<?xml version="1.0" encoding="UTF-8" standalone="no" ?>
<gpx xmlns="http://www.topografix.com/GPX/1/1" creator="www.cicloide.com" version="1.1" xmlns:xsi="http://www.w3.org/2001/XMLSchema-instance" xsi:schemaLocation="http://www.topografix.com/GPX/1/1 http://www.topografix.com/GPX/1/1/gpx.xsd">
  <trk>
    <name>www.cicloide.com 213287</name>
    <desc>www.cicloide.com 213287</desc>
    <trkseg>
      <trkpt lat="41.605742370" lon="2.540360080">
        <ele>126.07</ele>
        <time>2016-03-27T07:41:46Z</time>
      </trkpt>
      <trkpt lat="41.605568610" lon="2.540315070">
        <ele>125.59</ele>
        <time>2016-03-27T07:41:53Z</time>
      </trkpt>
      <trkpt lat="41.605346070" lon="2.540257400">
        <ele>125.11</ele>
        <time>2016-03-27T07:41:59Z</time>
      </trkpt>
      <trkpt lat="41.605230320" lon="2.540223290">
        <ele>124.63</ele>
        <time>2016-03-27T07:42:02Z</time>
      </trkpt>
      <trkpt lat="41.604969640" lon="2.540200740">
        <ele>123.67</ele>
        <time>2016-03-27T07:42:08Z</time>
      </trkpt>
      <trkpt lat="41.604764370" lon="2.540122120">
        <ele>122.71</ele>
        <time>2016-03-27T07:42:13Z</time>
      </trkpt>
      <trkpt lat="41.604599410" lon="2.539932690">
        <ele>121.26</ele>
        <time>2016-03-27T07:42:17Z</time>
      </trkpt>
      <trkpt lat="41.604401090" lon="2.539917260">
        <ele>121.26</ele>
        <time>2016-03-27T07:42:21Z</time>
      </trkpt>
      <trkpt lat="41.604295900" lon="2.539993040">
        <ele>121.26</ele>
        <time>2016-03-27T07:42:24Z</time>
      </trkpt>
      <trkpt lat="41.603929110" lon="2.540276760">
        <ele>120.78</ele>
        <time>2016-03-27T07:42:33Z</time>
      </trkpt>
      <trkpt lat="41.603532980" lon="2.540541880">
        <ele>119.34</ele>
        <time>2016-03-27T07:42:41Z</time>
      </trkpt>
      <trkpt lat="41.603078600" lon="2.540834160">
        <ele>117.42</ele>
        <time>2016-03-27T07:42:49Z</time>
      </trkpt>
      <trkpt lat="41.602631930" lon="2.541010940">
        <ele>115.50</ele>
        <time>2016-03-27T07:42:56Z</time>
      </trkpt>
      <trkpt lat="41.602151980" lon="2.541172450">
        <ele>112.13</ele>
        <time>2016-03-27T07:43:03Z</time>
      </trkpt>
      <trkpt lat="41.601797760" lon="2.541261640">
        <ele>111.17</ele>
        <time>2016-03-27T07:43:08Z</time>
      </trkpt>
      <trkpt lat="41.601578320" lon="2.541339420">
        <ele>109.25</ele>
        <time>2016-03-27T07:43:13Z</time>
      </trkpt>
      <trkpt lat="41.601263330" lon="2.541333810">
        <ele>108.77</ele>
        <time>2016-03-27T07:43:21Z</time>
      </trkpt>
      <trkpt lat="41.600907350" lon="2.541409490">
        <ele>108.77</ele>
        <time>2016-03-27T07:43:30Z</time>
      </trkpt>
      <trkpt lat="41.600525550" lon="2.541470600">
        <ele>108.77</ele>
        <time>2016-03-27T07:43:39Z</time>
      </trkpt>
      <trkpt lat="41.600479540" lon="2.541475290">
        <ele>107.81</ele>
        <time>2016-03-27T07:43:40Z</time>
      </trkpt>
      <trkpt lat="41.600273680" lon="2.541414360">
        <ele>107.32</ele>
        <time>2016-03-27T07:43:44Z</time>
      </trkpt>
      <trkpt lat="41.600126320" lon="2.541312600">
        <ele>107.32</ele>
        <time>2016-03-27T07:43:49Z</time>
      </trkpt>
      <trkpt lat="41.599956170" lon="2.541194080">
        <ele>110.69</ele>
        <time>2016-03-27T07:43:59Z</time>
      </trkpt>
      <trkpt lat="41.599810070" lon="2.541056280">
        <ele>112.61</ele>
        <time>2016-03-27T07:44:09Z</time>
      </trkpt>
      <trkpt lat="41.599697170" lon="2.540943960">
        <ele>113.57</ele>
        <time>2016-03-27T07:44:17Z</time>
      </trkpt>
      <trkpt lat="41.599557610" lon="2.540811870">
        <ele>115.98</ele>
        <time>2016-03-27T07:44:27Z</time>
      </trkpt>
      <trkpt lat="41.599436660" lon="2.540655960">
        <ele>117.42</ele>
        <time>2016-03-27T07:44:37Z</time>
      </trkpt>
      <trkpt lat="41.599414110" lon="2.540588490">
        <ele>118.38</ele>
        <time>2016-03-27T07:44:41Z</time>
      </trkpt>
      <trkpt lat="41.599496930" lon="2.540474660">
        <ele>119.82</ele>
        <time>2016-03-27T07:44:49Z</time>
      </trkpt>
      <trkpt lat="41.599533300" lon="2.540502410">
        <ele>120.30</ele>
        <time>2016-03-27T07:44:52Z</time>
      </trkpt>
      <trkpt lat="41.599574630" lon="2.540606420">
        <ele>121.26</ele>
        <time>2016-03-27T07:44:59Z</time>
      </trkpt>
      <trkpt lat="41.599645290" lon="2.540668620">
        <ele>121.74</ele>
        <time>2016-03-27T07:45:05Z</time>
      </trkpt>
      <trkpt lat="41.599764980" lon="2.540729470">
        <ele>124.15</ele>
        <time>2016-03-27T07:45:14Z</time>
      </trkpt>
      <trkpt lat="41.599847120" lon="2.540751430">
        <ele>124.63</ele>
        <time>2016-03-27T07:45:20Z</time>
      </trkpt>
      <trkpt lat="41.599865650" lon="2.540663340">
        <ele>126.07</ele>
        <time>2016-03-27T07:45:26Z</time>
      </trkpt>
      <trkpt lat="41.599855340" lon="2.540649680">
        <ele>126.07</ele>
        <time>2016-03-27T07:45:27Z</time>
      </trkpt>
      <trkpt lat="41.599719210" lon="2.540572230">
        <ele>126.55</ele>
        <time>2016-03-27T07:45:35Z</time>
      </trkpt>
      <trkpt lat="41.599643360" lon="2.540374500">
        <ele>127.51</ele>
        <time>2016-03-27T07:45:44Z</time>
      </trkpt>
      <trkpt lat="41.599627100" lon="2.540210040">
        <ele>127.51</ele>
        <time>2016-03-27T07:45:51Z</time>
      </trkpt>
      <trkpt lat="41.599593820" lon="2.539991780">
        <ele>128.95</ele>
        <time>2016-03-27T07:46:00Z</time>
      </trkpt>
      <trkpt lat="41.599592730" lon="2.539876860">
        <ele>129.43</ele>
        <time>2016-03-27T07:46:05Z</time>
      </trkpt>
      <trkpt lat="41.599607730" lon="2.539672930">
        <ele>131.36</ele>
        <time>2016-03-27T07:46:14Z</time>
      </trkpt>
      <trkpt lat="41.599619720" lon="2.539432460">
        <ele>133.28</ele>
        <time>2016-03-27T07:46:24Z</time>
      </trkpt>
      <trkpt lat="41.599640840" lon="2.539368750">
        <ele>133.28</ele>
        <time>2016-03-27T07:46:27Z</time>
      </trkpt>
      <trkpt lat="41.599684600" lon="2.539165320">
        <ele>134.72</ele>
        <time>2016-03-27T07:46:36Z</time>
      </trkpt>
      <trkpt lat="41.599734800" lon="2.538992410">
        <ele>135.68</ele>
        <time>2016-03-27T07:46:44Z</time>
      </trkpt>
      <trkpt lat="41.599774370" lon="2.538858040">
        <ele>137.61</ele>
        <time>2016-03-27T07:46:51Z</time>
      </trkpt>
      <trkpt lat="41.599832200" lon="2.538739190">
        <ele>138.57</ele>
        <time>2016-03-27T07:46:57Z</time>
      </trkpt>
      <trkpt lat="41.599864390" lon="2.538603400">
        <ele>139.53</ele>
        <time>2016-03-27T07:47:04Z</time>
      </trkpt>
      <trkpt lat="41.599929600" lon="2.538503570">
        <ele>140.49</ele>
        <time>2016-03-27T07:47:11Z</time>
      </trkpt>
      <trkpt lat="41.599988440" lon="2.538398630">
        <ele>142.41</ele>
        <time>2016-03-27T07:47:19Z</time>
      </trkpt>
      <trkpt lat="41.600050300" lon="2.538307770">
        <ele>143.85</ele>
        <time>2016-03-27T07:47:26Z</time>
      </trkpt>
      <trkpt lat="41.600112910" lon="2.538193530">
        <ele>145.78</ele>
        <time>2016-03-27T07:47:34Z</time>
      </trkpt>
      <trkpt lat="41.600187010" lon="2.538096880">
        <ele>147.22</ele>
        <time>2016-03-27T07:47:42Z</time>
      </trkpt>
      <trkpt lat="41.600276780" lon="2.537998730">
        <ele>149.14</ele>
        <time>2016-03-27T07:47:50Z</time>
      </trkpt>
      <trkpt lat="41.600394040" lon="2.537854230">
        <ele>150.58</ele>
        <time>2016-03-27T07:47:59Z</time>
      </trkpt>
      <trkpt lat="41.600473670" lon="2.537714080">
        <ele>151.54</ele>
        <time>2016-03-27T07:48:06Z</time>
      </trkpt>
      <trkpt lat="41.600498730" lon="2.537635290">
        <ele>152.51</ele>
        <time>2016-03-27T07:48:10Z</time>
      </trkpt>
      <trkpt lat="41.600560420" lon="2.537480980">
        <ele>153.47</ele>
        <time>2016-03-27T07:48:19Z</time>
      </trkpt>
      <trkpt lat="41.600596720" lon="2.537400680">
        <ele>154.91</ele>
        <time>2016-03-27T07:48:25Z</time>
      </trkpt>
      <trkpt lat="41.600638040" lon="2.537238580">
        <ele>156.83</ele>
        <time>2016-03-27T07:48:34Z</time>
      </trkpt>
      <trkpt lat="41.600671570" lon="2.537111590">
        <ele>157.31</ele>
        <time>2016-03-27T07:48:41Z</time>
      </trkpt>
      <trkpt lat="41.600695120" lon="2.537041010">
        <ele>158.75</ele>
        <time>2016-03-27T07:48:45Z</time>
      </trkpt>
      <trkpt lat="41.600764940" lon="2.536830460">
        <ele>158.75</ele>
        <time>2016-03-27T07:48:55Z</time>
      </trkpt>
      <trkpt lat="41.600784720" lon="2.536696520">
        <ele>159.72</ele>
        <time>2016-03-27T07:49:00Z</time>
      </trkpt>
      <trkpt lat="41.600770220" lon="2.536459480">
        <ele>159.24</ele>
        <time>2016-03-27T07:49:06Z</time>
      </trkpt>
      <trkpt lat="41.600780030" lon="2.536198630">
        <ele>158.27</ele>
        <time>2016-03-27T07:49:12Z</time>
      </trkpt>
      <trkpt lat="41.600783630" lon="2.536147340">
        <ele>158.27</ele>
        <time>2016-03-27T07:49:14Z</time>
      </trkpt>
      <trkpt lat="41.600709700" lon="2.535977770">
        <ele>158.27</ele>
        <time>2016-03-27T07:49:21Z</time>
      </trkpt>
      <trkpt lat="41.600684310" lon="2.535972740">
        <ele>158.27</ele>
        <time>2016-03-27T07:49:22Z</time>
      </trkpt>
      <trkpt lat="41.600547770" lon="2.535912220">
        <ele>159.72</ele>
        <time>2016-03-27T07:49:30Z</time>
      </trkpt>
      <trkpt lat="41.600477360" lon="2.535888170">
        <ele>160.68</ele>
        <time>2016-03-27T07:49:35Z</time>
      </trkpt>
      <trkpt lat="41.600326730" lon="2.535875180">
        <ele>162.60</ele>
        <time>2016-03-27T07:49:44Z</time>
      </trkpt>
      <trkpt lat="41.600238810" lon="2.535910130">
        <ele>163.56</ele>
        <time>2016-03-27T07:49:50Z</time>
      </trkpt>
      <trkpt lat="41.600095980" lon="2.536035610">
        <ele>163.56</ele>
        <time>2016-03-27T07:49:58Z</time>
      </trkpt>
      <trkpt lat="41.599909230" lon="2.536095950">
        <ele>163.56</ele>
        <time>2016-03-27T07:50:03Z</time>
      </trkpt>
      <trkpt lat="41.599786940" lon="2.536158230">
        <ele>163.56</ele>
        <time>2016-03-27T07:50:09Z</time>
      </trkpt>
      <trkpt lat="41.599632460" lon="2.536227800">
        <ele>164.04</ele>
        <time>2016-03-27T07:50:18Z</time>
      </trkpt>
      <trkpt lat="41.599581000" lon="2.536285720">
        <ele>165.00</ele>
        <time>2016-03-27T07:50:22Z</time>
      </trkpt>
      <trkpt lat="41.599470270" lon="2.536344310">
        <ele>166.45</ele>
        <time>2016-03-27T07:50:29Z</time>
      </trkpt>
      <trkpt lat="41.599494660" lon="2.536282540">
        <ele>166.93</ele>
        <time>2016-03-27T07:50:34Z</time>
      </trkpt>
      <trkpt lat="41.599545210" lon="2.536157140">
        <ele>168.85</ele>
        <time>2016-03-27T07:50:42Z</time>
      </trkpt>
      <trkpt lat="41.599626510" lon="2.536064440">
        <ele>169.33</ele>
        <time>2016-03-27T07:50:49Z</time>
      </trkpt>
      <trkpt lat="41.599739410" lon="2.535916830">
        <ele>171.25</ele>
        <time>2016-03-27T07:50:59Z</time>
      </trkpt>
      <trkpt lat="41.599831530" lon="2.535794790">
        <ele>172.69</ele>
        <time>2016-03-27T07:51:07Z</time>
      </trkpt>
      <trkpt lat="41.599925910" lon="2.535707540">
        <ele>173.17</ele>
        <time>2016-03-27T07:51:13Z</time>
      </trkpt>
      <trkpt lat="41.600038820" lon="2.535573680">
        <ele>173.66</ele>
        <time>2016-03-27T07:51:20Z</time>
      </trkpt>
      <trkpt lat="41.600052650" lon="2.535551890">
        <ele>173.66</ele>
        <time>2016-03-27T07:51:21Z</time>
      </trkpt>
      <trkpt lat="41.600119280" lon="2.535476870">
        <ele>174.14</ele>
        <time>2016-03-27T07:51:26Z</time>
      </trkpt>
      <trkpt lat="41.600218360" lon="2.535341670">
        <ele>174.62</ele>
        <time>2016-03-27T07:51:33Z</time>
      </trkpt>
      <trkpt lat="41.600312320" lon="2.535220630">
        <ele>175.58</ele>
        <time>2016-03-27T07:51:39Z</time>
      </trkpt>
      <trkpt lat="41.600294130" lon="2.535168830">
        <ele>176.06</ele>
        <time>2016-03-27T07:51:43Z</time>
      </trkpt>
      <trkpt lat="41.600196980" lon="2.535230610">
        <ele>177.02</ele>
        <time>2016-03-27T07:51:51Z</time>
      </trkpt>
      <trkpt lat="41.600077040" lon="2.535277710">
        <ele>178.46</ele>
        <time>2016-03-27T07:52:00Z</time>
      </trkpt>
      <trkpt lat="41.599986430" lon="2.535307050">
        <ele>179.42</ele>
        <time>2016-03-27T07:52:06Z</time>
      </trkpt>
      <trkpt lat="41.599847960" lon="2.535338570">
        <ele>180.87</ele>
        <time>2016-03-27T07:52:14Z</time>
      </trkpt>
      <trkpt lat="41.599711670" lon="2.535390530">
        <ele>182.31</ele>
        <time>2016-03-27T07:52:23Z</time>
      </trkpt>
      <trkpt lat="41.599548890" lon="2.535497990">
        <ele>183.27</ele>
        <time>2016-03-27T07:52:32Z</time>
      </trkpt>
      <trkpt lat="41.599397430" lon="2.535516010">
        <ele>184.71</ele>
        <time>2016-03-27T07:52:40Z</time>
      </trkpt>
      <trkpt lat="41.599261810" lon="2.535520790">
        <ele>184.71</ele>
        <time>2016-03-27T07:52:47Z</time>
      </trkpt>
      <trkpt lat="41.599190060" lon="2.535466390">
        <ele>186.15</ele>
        <time>2016-03-27T07:52:53Z</time>
      </trkpt>
      <trkpt lat="41.599184110" lon="2.535434710">
        <ele>186.63</ele>
        <time>2016-03-27T07:52:55Z</time>
      </trkpt>
      <trkpt lat="41.599196180" lon="2.535273520">
        <ele>189.52</ele>
        <time>2016-03-27T07:53:05Z</time>
      </trkpt>
      <trkpt lat="41.599216470" lon="2.535220720">
        <ele>190.48</ele>
        <time>2016-03-27T07:53:10Z</time>
      </trkpt>
      <trkpt lat="41.599276570" lon="2.535096250">
        <ele>192.40</ele>
        <time>2016-03-27T07:53:18Z</time>
      </trkpt>
      <trkpt lat="41.599338680" lon="2.534986190">
        <ele>194.32</ele>
        <time>2016-03-27T07:53:26Z</time>
      </trkpt>
      <trkpt lat="41.599420480" lon="2.534871280">
        <ele>194.80</ele>
        <time>2016-03-27T07:53:33Z</time>
      </trkpt>
      <trkpt lat="41.599510590" lon="2.534783940">
        <ele>195.77</ele>
        <time>2016-03-27T07:53:40Z</time>
      </trkpt>
      <trkpt lat="41.599595250" lon="2.534710430">
        <ele>196.25</ele>
        <time>2016-03-27T07:53:46Z</time>
      </trkpt>
      <trkpt lat="41.599687780" lon="2.534577150">
        <ele>196.73</ele>
        <time>2016-03-27T07:53:54Z</time>
      </trkpt>
      <trkpt lat="41.599716360" lon="2.534438430">
        <ele>197.69</ele>
        <time>2016-03-27T07:54:01Z</time>
      </trkpt>
      <trkpt lat="41.599703540" lon="2.534404650">
        <ele>198.17</ele>
        <time>2016-03-27T07:54:03Z</time>
      </trkpt>
      <trkpt lat="41.599673450" lon="2.534375230">
        <ele>198.65</ele>
        <time>2016-03-27T07:54:06Z</time>
      </trkpt>
      <trkpt lat="41.599568340" lon="2.534375900">
        <ele>201.05</ele>
        <time>2016-03-27T07:54:14Z</time>
      </trkpt>
      <trkpt lat="41.599501280" lon="2.534380350">
        <ele>202.01</ele>
        <time>2016-03-27T07:54:19Z</time>
      </trkpt>
      <trkpt lat="41.599320990" lon="2.534379760">
        <ele>202.98</ele>
        <time>2016-03-27T07:54:30Z</time>
      </trkpt>
      <trkpt lat="41.599199200" lon="2.534356540">
        <ele>204.90</ele>
        <time>2016-03-27T07:54:38Z</time>
      </trkpt>
      <trkpt lat="41.599126530" lon="2.534275820">
        <ele>205.86</ele>
        <time>2016-03-27T07:54:46Z</time>
      </trkpt>
      <trkpt lat="41.599107670" lon="2.534176500">
        <ele>208.26</ele>
        <time>2016-03-27T07:54:54Z</time>
      </trkpt>
      <trkpt lat="41.599075650" lon="2.534023280">
        <ele>210.67</ele>
        <time>2016-03-27T07:55:03Z</time>
      </trkpt>
      <trkpt lat="41.599044140" lon="2.533921020">
        <ele>211.63</ele>
        <time>2016-03-27T07:55:09Z</time>
      </trkpt>
      <trkpt lat="41.598969790" lon="2.533802160">
        <ele>213.55</ele>
        <time>2016-03-27T07:55:18Z</time>
      </trkpt>
      <trkpt lat="41.598892000" lon="2.533689260">
        <ele>215.47</ele>
        <time>2016-03-27T07:55:27Z</time>
      </trkpt>
      <trkpt lat="41.598854030" lon="2.533624720">
        <ele>216.43</ele>
        <time>2016-03-27T07:55:33Z</time>
      </trkpt>
      <trkpt lat="41.598814140" lon="2.533433950">
        <ele>217.40</ele>
        <time>2016-03-27T07:55:43Z</time>
      </trkpt>
      <trkpt lat="41.598794440" lon="2.533234370">
        <ele>219.32</ele>
        <time>2016-03-27T07:55:52Z</time>
      </trkpt>
      <trkpt lat="41.598809690" lon="2.533130690">
        <ele>221.24</ele>
        <time>2016-03-27T07:55:58Z</time>
      </trkpt>
      <trkpt lat="41.598857220" lon="2.533086520">
        <ele>222.68</ele>
        <time>2016-03-27T07:56:06Z</time>
      </trkpt>
      <trkpt lat="41.598857550" lon="2.533068330">
        <ele>223.16</ele>
        <time>2016-03-27T07:56:11Z</time>
      </trkpt>
      <trkpt lat="41.598853780" lon="2.533040580">
        <ele>223.16</ele>
        <time>2016-03-27T07:56:19Z</time>
      </trkpt>
      <trkpt lat="41.598864850" lon="2.532991380">
        <ele>223.64</ele>
        <time>2016-03-27T07:56:25Z</time>
      </trkpt>
      <trkpt lat="41.598863510" lon="2.532954420">
        <ele>224.12</ele>
        <time>2016-03-27T07:56:28Z</time>
      </trkpt>
      <trkpt lat="41.598876160" lon="2.532853750">
        <ele>224.61</ele>
        <time>2016-03-27T07:56:35Z</time>
      </trkpt>
      <trkpt lat="41.598868790" lon="2.532751070">
        <ele>226.53</ele>
        <time>2016-03-27T07:56:42Z</time>
      </trkpt>
      <trkpt lat="41.598865430" lon="2.532739510">
        <ele>226.53</ele>
        <time>2016-03-27T07:56:43Z</time>
      </trkpt>
      <trkpt lat="41.598757560" lon="2.532667510">
        <ele>227.97</ele>
        <time>2016-03-27T07:56:52Z</time>
      </trkpt>
      <trkpt lat="41.598663600" lon="2.532641190">
        <ele>228.93</ele>
        <time>2016-03-27T07:56:59Z</time>
      </trkpt>
      <trkpt lat="41.598582880" lon="2.532527530">
        <ele>230.37</ele>
        <time>2016-03-27T07:57:08Z</time>
      </trkpt>
      <trkpt lat="41.598534260" lon="2.532354780">
        <ele>231.81</ele>
        <time>2016-03-27T07:57:18Z</time>
      </trkpt>
      <trkpt lat="41.598558320" lon="2.532176910">
        <ele>233.26</ele>
        <time>2016-03-27T07:57:28Z</time>
      </trkpt>
      <trkpt lat="41.598565610" lon="2.532139610">
        <ele>233.26</ele>
        <time>2016-03-27T07:57:30Z</time>
      </trkpt>
      <trkpt lat="41.598588660" lon="2.531917070">
        <ele>233.74</ele>
        <time>2016-03-27T07:57:37Z</time>
      </trkpt>
      <trkpt lat="41.598541810" lon="2.531733170">
        <ele>233.74</ele>
        <time>2016-03-27T07:57:43Z</time>
      </trkpt>
      <trkpt lat="41.598427480" lon="2.531542990">
        <ele>233.74</ele>
        <time>2016-03-27T07:57:50Z</time>
      </trkpt>
      <trkpt lat="41.598377020" lon="2.531366300">
        <ele>230.37</ele>
        <time>2016-03-27T07:57:53Z</time>
      </trkpt>
      <trkpt lat="41.598255990" lon="2.531066900">
        <ele>226.05</ele>
        <time>2016-03-27T07:57:57Z</time>
      </trkpt>
      <trkpt lat="41.598160430" lon="2.531018200">
        <ele>223.16</ele>
        <time>2016-03-27T07:58:00Z</time>
      </trkpt>
      <trkpt lat="41.597969160" lon="2.530911240">
        <ele>220.76</ele>
        <time>2016-03-27T07:58:04Z</time>
      </trkpt>
      <trkpt lat="41.597674280" lon="2.530650740">
        <ele>217.40</ele>
        <time>2016-03-27T07:58:09Z</time>
      </trkpt>
      <trkpt lat="41.597524330" lon="2.530641100">
        <ele>216.43</ele>
        <time>2016-03-27T07:58:12Z</time>
      </trkpt>
      <trkpt lat="41.597269350" lon="2.530761880">
        <ele>216.91</ele>
        <time>2016-03-27T07:58:19Z</time>
      </trkpt>
      <trkpt lat="41.597154690" lon="2.530873270">
        <ele>218.36</ele>
        <time>2016-03-27T07:58:24Z</time>
      </trkpt>
      <trkpt lat="41.596992750" lon="2.530899180">
        <ele>219.80</ele>
        <time>2016-03-27T07:58:31Z</time>
      </trkpt>
      <trkpt lat="41.596956960" lon="2.530894980">
        <ele>220.76</ele>
        <time>2016-03-27T07:58:33Z</time>
      </trkpt>
      <trkpt lat="41.596876320" lon="2.530924490">
        <ele>222.68</ele>
        <time>2016-03-27T07:58:38Z</time>
      </trkpt>
      <trkpt lat="41.596756630" lon="2.531065220">
        <ele>223.16</ele>
        <time>2016-03-27T07:58:44Z</time>
      </trkpt>
      <trkpt lat="41.596640040" lon="2.531145440">
        <ele>221.72</ele>
        <time>2016-03-27T07:58:47Z</time>
      </trkpt>
      <trkpt lat="41.596256570" lon="2.531177040">
        <ele>220.76</ele>
        <time>2016-03-27T07:58:55Z</time>
      </trkpt>
      <trkpt lat="41.596208120" lon="2.531172510">
        <ele>220.76</ele>
        <time>2016-03-27T07:58:56Z</time>
      </trkpt>
      <trkpt lat="41.595844930" lon="2.531070580">
        <ele>219.32</ele>
        <time>2016-03-27T07:59:03Z</time>
      </trkpt>
      <trkpt lat="41.595546870" lon="2.530935890">
        <ele>218.36</ele>
        <time>2016-03-27T07:59:08Z</time>
      </trkpt>
      <trkpt lat="41.595295330" lon="2.530987940">
        <ele>216.91</ele>
        <time>2016-03-27T07:59:12Z</time>
      </trkpt>
      <trkpt lat="41.595000450" lon="2.531027080">
        <ele>216.43</ele>
        <time>2016-03-27T07:59:18Z</time>
      </trkpt>
      <trkpt lat="41.594932140" lon="2.530960950">
        <ele>216.43</ele>
        <time>2016-03-27T07:59:20Z</time>
      </trkpt>
      <trkpt lat="41.594864000" lon="2.530876800">
        <ele>216.43</ele>
        <time>2016-03-27T07:59:22Z</time>
      </trkpt>
      <trkpt lat="41.594762990" lon="2.530566330">
        <ele>215.47</ele>
        <time>2016-03-27T07:59:27Z</time>
      </trkpt>
      <trkpt lat="41.594762410" lon="2.530394840">
        <ele>214.03</ele>
        <time>2016-03-27T07:59:30Z</time>
      </trkpt>
      <trkpt lat="41.594638520" lon="2.530344130">
        <ele>213.07</ele>
        <time>2016-03-27T07:59:34Z</time>
      </trkpt>
      <trkpt lat="41.594534840" lon="2.530379500">
        <ele>212.11</ele>
        <time>2016-03-27T07:59:36Z</time>
      </trkpt>
      <trkpt lat="41.594236690" lon="2.530389140">
        <ele>210.19</ele>
        <time>2016-03-27T07:59:40Z</time>
      </trkpt>
      <trkpt lat="41.593906870" lon="2.530232060">
        <ele>208.74</ele>
        <time>2016-03-27T07:59:45Z</time>
      </trkpt>
      <trkpt lat="41.593785920" lon="2.530043470">
        <ele>207.30</ele>
        <time>2016-03-27T07:59:50Z</time>
      </trkpt>
      <trkpt lat="41.593650300" lon="2.530031900">
        <ele>205.86</ele>
        <time>2016-03-27T07:59:55Z</time>
      </trkpt>
      <trkpt lat="41.593518700" lon="2.530028130">
        <ele>202.98</ele>
        <time>2016-03-27T07:59:58Z</time>
      </trkpt>
      <trkpt lat="41.593467570" lon="2.529976410">
        <ele>202.49</ele>
        <time>2016-03-27T08:00:00Z</time>
      </trkpt>
      <trkpt lat="41.593355510" lon="2.529930230">
        <ele>200.57</ele>
        <time>2016-03-27T08:00:03Z</time>
      </trkpt>
      <trkpt lat="41.593293650" lon="2.529892420">
        <ele>199.13</ele>
        <time>2016-03-27T08:00:05Z</time>
      </trkpt>
      <trkpt lat="41.593185440" lon="2.529898290">
        <ele>198.17</ele>
        <time>2016-03-27T08:00:09Z</time>
      </trkpt>
      <trkpt lat="41.593118300" lon="2.529934750">
        <ele>197.21</ele>
        <time>2016-03-27T08:00:12Z</time>
      </trkpt>
      <trkpt lat="41.593055600" lon="2.529938020">
        <ele>195.77</ele>
        <time>2016-03-27T08:00:15Z</time>
      </trkpt>
      <trkpt lat="41.592996590" lon="2.529817070">
        <ele>195.28</ele>
        <time>2016-03-27T08:00:20Z</time>
      </trkpt>
      <trkpt lat="41.592872370" lon="2.529754960">
        <ele>194.80</ele>
        <time>2016-03-27T08:00:24Z</time>
      </trkpt>
      <trkpt lat="41.592654780" lon="2.529669300">
        <ele>193.84</ele>
        <time>2016-03-27T08:00:30Z</time>
      </trkpt>
      <trkpt lat="41.592599540" lon="2.529631920">
        <ele>193.84</ele>
        <time>2016-03-27T08:00:32Z</time>
      </trkpt>
      <trkpt lat="41.592517730" lon="2.529554130">
        <ele>193.84</ele>
        <time>2016-03-27T08:00:37Z</time>
      </trkpt>
      <trkpt lat="41.592450010" lon="2.529495370">
        <ele>193.84</ele>
        <time>2016-03-27T08:00:40Z</time>
      </trkpt>
      <trkpt lat="41.592340540" lon="2.529329830">
        <ele>195.28</ele>
        <time>2016-03-27T08:00:47Z</time>
      </trkpt>
      <trkpt lat="41.592274580" lon="2.529204350">
        <ele>196.25</ele>
        <time>2016-03-27T08:00:52Z</time>
      </trkpt>
      <trkpt lat="41.592220510" lon="2.529077120">
        <ele>197.69</ele>
        <time>2016-03-27T08:00:57Z</time>
      </trkpt>
      <trkpt lat="41.592115490" lon="2.529056080">
        <ele>198.65</ele>
        <time>2016-03-27T08:01:03Z</time>
      </trkpt>
      <trkpt lat="41.592039300" lon="2.529031180">
        <ele>199.13</ele>
        <time>2016-03-27T08:01:07Z</time>
      </trkpt>
      <trkpt lat="41.591960590" lon="2.528944180">
        <ele>201.05</ele>
        <time>2016-03-27T08:01:13Z</time>
      </trkpt>
      <trkpt lat="41.591940220" lon="2.528935380">
        <ele>201.05</ele>
        <time>2016-03-27T08:01:14Z</time>
      </trkpt>
      <trkpt lat="41.591870480" lon="2.528861950">
        <ele>202.49</ele>
        <time>2016-03-27T08:01:20Z</time>
      </trkpt>
      <trkpt lat="41.591827150" lon="2.528841920">
        <ele>202.98</ele>
        <time>2016-03-27T08:01:23Z</time>
      </trkpt>
      <trkpt lat="41.591755990" lon="2.528673110">
        <ele>205.38</ele>
        <time>2016-03-27T08:01:32Z</time>
      </trkpt>
      <trkpt lat="41.591623050" lon="2.528572860">
        <ele>205.86</ele>
        <time>2016-03-27T08:01:39Z</time>
      </trkpt>
      <trkpt lat="41.591556080" lon="2.528461050">
        <ele>205.86</ele>
        <time>2016-03-27T08:01:44Z</time>
      </trkpt>
      <trkpt lat="41.591408560" lon="2.528336240">
        <ele>206.34</ele>
        <time>2016-03-27T08:01:50Z</time>
      </trkpt>
      <trkpt lat="41.591275540" lon="2.528142950">
        <ele>206.34</ele>
        <time>2016-03-27T08:01:58Z</time>
      </trkpt>
      <trkpt lat="41.591218620" lon="2.527979840">
        <ele>206.82</ele>
        <time>2016-03-27T08:02:04Z</time>
      </trkpt>
      <trkpt lat="41.590998680" lon="2.527813550">
        <ele>207.30</ele>
        <time>2016-03-27T08:02:12Z</time>
      </trkpt>
      <trkpt lat="41.590914190" lon="2.527623110">
        <ele>207.30</ele>
        <time>2016-03-27T08:02:17Z</time>
      </trkpt>
      <trkpt lat="41.590821150" lon="2.527344070">
        <ele>207.30</ele>
        <time>2016-03-27T08:02:24Z</time>
      </trkpt>
      <trkpt lat="41.590763150" lon="2.527140060">
        <ele>205.38</ele>
        <time>2016-03-27T08:02:28Z</time>
      </trkpt>
      <trkpt lat="41.590830790" lon="2.527044840">
        <ele>204.90</ele>
        <time>2016-03-27T08:02:33Z</time>
      </trkpt>
      <trkpt lat="41.590879160" lon="2.527006450">
        <ele>204.90</ele>
        <time>2016-03-27T08:02:36Z</time>
      </trkpt>
      <trkpt lat="41.591079820" lon="2.526890950">
        <ele>204.90</ele>
        <time>2016-03-27T08:02:46Z</time>
      </trkpt>
      <trkpt lat="41.591157940" lon="2.526809900">
        <ele>204.90</ele>
        <time>2016-03-27T08:02:51Z</time>
      </trkpt>
      <trkpt lat="41.591242340" lon="2.526713920">
        <ele>204.42</ele>
        <time>2016-03-27T08:02:56Z</time>
      </trkpt>
      <trkpt lat="41.591288030" lon="2.526585090">
        <ele>202.98</ele>
        <time>2016-03-27T08:03:00Z</time>
      </trkpt>
      <trkpt lat="41.591347960" lon="2.526466070">
        <ele>200.09</ele>
        <time>2016-03-27T08:03:04Z</time>
      </trkpt>
      <trkpt lat="41.591458510" lon="2.526294830">
        <ele>196.73</ele>
        <time>2016-03-27T08:03:09Z</time>
      </trkpt>
      <trkpt lat="41.591632440" lon="2.526306060">
        <ele>193.84</ele>
        <time>2016-03-27T08:03:13Z</time>
      </trkpt>
      <trkpt lat="41.591671250" lon="2.526390470">
        <ele>193.36</ele>
        <time>2016-03-27T08:03:15Z</time>
      </trkpt>
      <trkpt lat="41.591771070" lon="2.526779050">
        <ele>192.88</ele>
        <time>2016-03-27T08:03:23Z</time>
      </trkpt>
      <trkpt lat="41.591861520" lon="2.527058840">
        <ele>192.40</ele>
        <time>2016-03-27T08:03:29Z</time>
      </trkpt>
      <trkpt lat="41.591914240" lon="2.527322370">
        <ele>192.40</ele>
        <time>2016-03-27T08:03:35Z</time>
      </trkpt>
      <trkpt lat="41.592023200" lon="2.527358320">
        <ele>192.40</ele>
        <time>2016-03-27T08:03:39Z</time>
      </trkpt>
      <trkpt lat="41.592103920" lon="2.527339210">
        <ele>193.84</ele>
        <time>2016-03-27T08:03:42Z</time>
      </trkpt>
      <trkpt lat="41.592259740" lon="2.527262350">
        <ele>193.84</ele>
        <time>2016-03-27T08:03:47Z</time>
      </trkpt>
      <trkpt lat="41.592441120" lon="2.527112310">
        <ele>190.48</ele>
        <time>2016-03-27T08:03:52Z</time>
      </trkpt>
      <trkpt lat="41.592444390" lon="2.526961690">
        <ele>188.08</ele>
        <time>2016-03-27T08:03:56Z</time>
      </trkpt>
      <trkpt lat="41.592415060" lon="2.526954650">
        <ele>188.08</ele>
        <time>2016-03-27T08:03:57Z</time>
      </trkpt>
      <trkpt lat="41.592216660" lon="2.526997820">
        <ele>184.23</ele>
        <time>2016-03-27T08:04:02Z</time>
      </trkpt>
      <trkpt lat="41.592088160" lon="2.526891370">
        <ele>181.35</ele>
        <time>2016-03-27T08:04:08Z</time>
      </trkpt>
      <trkpt lat="41.592035100" lon="2.526631700">
        <ele>180.87</ele>
        <time>2016-03-27T08:04:13Z</time>
      </trkpt>
      <trkpt lat="41.592037450" lon="2.526562970">
        <ele>180.87</ele>
        <time>2016-03-27T08:04:14Z</time>
      </trkpt>
      <trkpt lat="41.592043320" lon="2.526301700">
        <ele>178.46</ele>
        <time>2016-03-27T08:04:18Z</time>
      </trkpt>
      <trkpt lat="41.592063440" lon="2.526119390">
        <ele>176.06</ele>
        <time>2016-03-27T08:04:21Z</time>
      </trkpt>
      <trkpt lat="41.592067370" lon="2.525923170">
        <ele>173.66</ele>
        <time>2016-03-27T08:04:24Z</time>
      </trkpt>
      <trkpt lat="41.592058240" lon="2.525790570">
        <ele>172.21</ele>
        <time>2016-03-27T08:04:26Z</time>
      </trkpt>
      <trkpt lat="41.592004510" lon="2.525493770">
        <ele>167.89</ele>
        <time>2016-03-27T08:04:30Z</time>
      </trkpt>
      <trkpt lat="41.591915750" lon="2.525250530">
        <ele>164.04</ele>
        <time>2016-03-27T08:04:34Z</time>
      </trkpt>
      <trkpt lat="41.591795210" lon="2.525213310">
        <ele>164.52</ele>
        <time>2016-03-27T08:04:38Z</time>
      </trkpt>
      <trkpt lat="41.591648200" lon="2.525221360">
        <ele>165.96</ele>
        <time>2016-03-27T08:04:44Z</time>
      </trkpt>
      <trkpt lat="41.591489360" lon="2.525200400">
        <ele>167.89</ele>
        <time>2016-03-27T08:04:51Z</time>
      </trkpt>
      <trkpt lat="41.591299340" lon="2.525197800">
        <ele>168.85</ele>
        <time>2016-03-27T08:04:58Z</time>
      </trkpt>
      <trkpt lat="41.591271600" lon="2.525208530">
        <ele>168.85</ele>
        <time>2016-03-27T08:04:59Z</time>
      </trkpt>
      <trkpt lat="41.591098010" lon="2.525331330">
        <ele>169.81</ele>
        <time>2016-03-27T08:05:07Z</time>
      </trkpt>
      <trkpt lat="41.590979570" lon="2.525264020">
        <ele>171.73</ele>
        <time>2016-03-27T08:05:14Z</time>
      </trkpt>
      <trkpt lat="41.590851580" lon="2.525209370">
        <ele>173.17</ele>
        <time>2016-03-27T08:05:21Z</time>
      </trkpt>
      <trkpt lat="41.590753600" lon="2.525222110">
        <ele>173.17</ele>
        <time>2016-03-27T08:05:25Z</time>
      </trkpt>
      <trkpt lat="41.590524100" lon="2.525311880">
        <ele>172.21</ele>
        <time>2016-03-27T08:05:32Z</time>
      </trkpt>
      <trkpt lat="41.590494010" lon="2.525344910">
        <ele>172.21</ele>
        <time>2016-03-27T08:05:33Z</time>
      </trkpt>
      <trkpt lat="41.590329970" lon="2.525542640">
        <ele>168.37</ele>
        <time>2016-03-27T08:05:39Z</time>
      </trkpt>
      <trkpt lat="41.590274820" lon="2.525609690">
        <ele>166.93</ele>
        <time>2016-03-27T08:05:41Z</time>
      </trkpt>
      <trkpt lat="41.590163680" lon="2.525539870">
        <ele>165.48</ele>
        <time>2016-03-27T08:05:45Z</time>
      </trkpt>
      <trkpt lat="41.590065610" lon="2.525272570">
        <ele>164.52</ele>
        <time>2016-03-27T08:05:50Z</time>
      </trkpt>
      <trkpt lat="41.590046160" lon="2.525229240">
        <ele>164.52</ele>
        <time>2016-03-27T08:05:51Z</time>
      </trkpt>
      <trkpt lat="41.589970050" lon="2.525065790">
        <ele>165.96</ele>
        <time>2016-03-27T08:05:56Z</time>
      </trkpt>
      <trkpt lat="41.589941560" lon="2.524983230">
        <ele>165.96</ele>
        <time>2016-03-27T08:05:58Z</time>
      </trkpt>
      <trkpt lat="41.589897970" lon="2.524865550">
        <ele>164.04</ele>
        <time>2016-03-27T08:06:00Z</time>
      </trkpt>
      <trkpt lat="41.589738970" lon="2.524592130">
        <ele>159.72</ele>
        <time>2016-03-27T08:06:06Z</time>
      </trkpt>
      <trkpt lat="41.589711140" lon="2.524541080">
        <ele>159.24</ele>
        <time>2016-03-27T08:06:07Z</time>
      </trkpt>
      <trkpt lat="41.589492870" lon="2.524314270">
        <ele>157.79</ele>
        <time>2016-03-27T08:06:12Z</time>
      </trkpt>
      <trkpt lat="41.589325320" lon="2.524350390">
        <ele>157.79</ele>
        <time>2016-03-27T08:06:16Z</time>
      </trkpt>
      <trkpt lat="41.589165980" lon="2.524586760">
        <ele>159.24</ele>
        <time>2016-03-27T08:06:23Z</time>
      </trkpt>
      <trkpt lat="41.589067990" lon="2.524744180">
        <ele>160.68</ele>
        <time>2016-03-27T08:06:29Z</time>
      </trkpt>
      <trkpt lat="41.588980740" lon="2.524911480">
        <ele>161.16</ele>
        <time>2016-03-27T08:06:35Z</time>
      </trkpt>
      <trkpt lat="41.588964230" lon="2.525109710">
        <ele>162.60</ele>
        <time>2016-03-27T08:06:42Z</time>
      </trkpt>
      <trkpt lat="41.588925330" lon="2.525225970">
        <ele>163.56</ele>
        <time>2016-03-27T08:06:48Z</time>
      </trkpt>
      <trkpt lat="41.588920560" lon="2.525350440">
        <ele>165.48</ele>
        <time>2016-03-27T08:06:53Z</time>
      </trkpt>
      <trkpt lat="41.588889210" lon="2.525526960">
        <ele>166.93</ele>
        <time>2016-03-27T08:07:01Z</time>
      </trkpt>
      <trkpt lat="41.588900190" lon="2.525722510">
        <ele>168.85</ele>
        <time>2016-03-27T08:07:09Z</time>
      </trkpt>
      <trkpt lat="41.588899690" lon="2.525748240">
        <ele>169.33</ele>
        <time>2016-03-27T08:07:10Z</time>
      </trkpt>
      <trkpt lat="41.588789880" lon="2.525884530">
        <ele>169.33</ele>
        <time>2016-03-27T08:07:16Z</time>
      </trkpt>
      <trkpt lat="41.588699780" lon="2.526094920">
        <ele>169.33</ele>
        <time>2016-03-27T08:07:22Z</time>
      </trkpt>
      <trkpt lat="41.588619310" lon="2.526228780">
        <ele>167.89</ele>
        <time>2016-03-27T08:07:26Z</time>
      </trkpt>
      <trkpt lat="41.588637500" lon="2.526335230">
        <ele>169.33</ele>
        <time>2016-03-27T08:07:30Z</time>
      </trkpt>
      <trkpt lat="41.588646470" lon="2.526509660">
        <ele>171.25</ele>
        <time>2016-03-27T08:07:38Z</time>
      </trkpt>
      <trkpt lat="41.588649320" lon="2.526536730">
        <ele>171.25</ele>
        <time>2016-03-27T08:07:39Z</time>
      </trkpt>
      <trkpt lat="41.588647810" lon="2.526716350">
        <ele>171.25</ele>
        <time>2016-03-27T08:07:45Z</time>
      </trkpt>
      <trkpt lat="41.588669940" lon="2.526747620">
        <ele>172.21</ele>
        <time>2016-03-27T08:07:47Z</time>
      </trkpt>
      <trkpt lat="41.588708490" lon="2.526807470">
        <ele>173.17</ele>
        <time>2016-03-27T08:07:50Z</time>
      </trkpt>
      <trkpt lat="41.588707400" lon="2.526964790">
        <ele>175.10</ele>
        <time>2016-03-27T08:07:57Z</time>
      </trkpt>
      <trkpt lat="41.588733300" lon="2.527157660">
        <ele>177.50</ele>
        <time>2016-03-27T08:08:05Z</time>
      </trkpt>
      <trkpt lat="41.588766160" lon="2.527333760">
        <ele>178.46</ele>
        <time>2016-03-27T08:08:13Z</time>
      </trkpt>
      <trkpt lat="41.588795250" lon="2.527457230">
        <ele>178.46</ele>
        <time>2016-03-27T08:08:18Z</time>
      </trkpt>
      <trkpt lat="41.588690810" lon="2.527565360">
        <ele>177.02</ele>
        <time>2016-03-27T08:08:24Z</time>
      </trkpt>
      <trkpt lat="41.588488720" lon="2.527583800">
        <ele>175.10</ele>
        <time>2016-03-27T08:08:28Z</time>
      </trkpt>
      <trkpt lat="41.588367430" lon="2.527551690">
        <ele>174.62</ele>
        <time>2016-03-27T08:08:30Z</time>
      </trkpt>
      <trkpt lat="41.588185300" lon="2.527465360">
        <ele>174.14</ele>
        <time>2016-03-27T08:08:33Z</time>
      </trkpt>
      <trkpt lat="41.587822690" lon="2.527093790">
        <ele>172.69</ele>
        <time>2016-03-27T08:08:40Z</time>
      </trkpt>
      <trkpt lat="41.587619940" lon="2.526856080">
        <ele>172.21</ele>
        <time>2016-03-27T08:08:45Z</time>
      </trkpt>
      <trkpt lat="41.587580540" lon="2.526680810">
        <ele>172.21</ele>
        <time>2016-03-27T08:08:49Z</time>
      </trkpt>
      <trkpt lat="41.587534780" lon="2.526432210">
        <ele>174.14</ele>
        <time>2016-03-27T08:08:55Z</time>
      </trkpt>
      <trkpt lat="41.587365290" lon="2.526327690">
        <ele>175.10</ele>
        <time>2016-03-27T08:09:01Z</time>
      </trkpt>
      <trkpt lat="41.587160440" lon="2.526304470">
        <ele>176.06</ele>
        <time>2016-03-27T08:09:08Z</time>
      </trkpt>
      <trkpt lat="41.587056590" lon="2.526154350">
        <ele>176.06</ele>
        <time>2016-03-27T08:09:13Z</time>
      </trkpt>
      <trkpt lat="41.587092460" lon="2.525911190">
        <ele>176.06</ele>
        <time>2016-03-27T08:09:18Z</time>
      </trkpt>
      <trkpt lat="41.587251050" lon="2.525695100">
        <ele>176.06</ele>
        <time>2016-03-27T08:09:24Z</time>
      </trkpt>
      <trkpt lat="41.587290530" lon="2.525657130">
        <ele>174.62</ele>
        <time>2016-03-27T08:09:25Z</time>
      </trkpt>
      <trkpt lat="41.587474010" lon="2.525372400">
        <ele>171.25</ele>
        <time>2016-03-27T08:09:31Z</time>
      </trkpt>
      <trkpt lat="41.587505520" lon="2.525251030">
        <ele>169.33</ele>
        <time>2016-03-27T08:09:33Z</time>
      </trkpt>
      <trkpt lat="41.587435530" lon="2.524929840">
        <ele>165.96</ele>
        <time>2016-03-27T08:09:38Z</time>
      </trkpt>
      <trkpt lat="41.587341070" lon="2.524857830">
        <ele>164.52</ele>
        <time>2016-03-27T08:09:40Z</time>
      </trkpt>
      <trkpt lat="41.587131270" lon="2.524729260">
        <ele>163.08</ele>
        <time>2016-03-27T08:09:45Z</time>
      </trkpt>
      <trkpt lat="41.587143430" lon="2.524359530">
        <ele>159.72</ele>
        <time>2016-03-27T08:09:51Z</time>
      </trkpt>
      <trkpt lat="41.587149710" lon="2.524261710">
        <ele>158.75</ele>
        <time>2016-03-27T08:09:52Z</time>
      </trkpt>
      <trkpt lat="41.587173430" lon="2.523931630">
        <ele>155.87</ele>
        <time>2016-03-27T08:09:56Z</time>
      </trkpt>
      <trkpt lat="41.587286170" lon="2.523826020">
        <ele>153.95</ele>
        <time>2016-03-27T08:09:59Z</time>
      </trkpt>
      <trkpt lat="41.587382560" lon="2.523982850">
        <ele>152.03</ele>
        <time>2016-03-27T08:10:02Z</time>
      </trkpt>
      <trkpt lat="41.587402260" lon="2.524058120">
        <ele>151.06</ele>
        <time>2016-03-27T08:10:03Z</time>
      </trkpt>
      <trkpt lat="41.587599650" lon="2.524264810">
        <ele>147.70</ele>
        <time>2016-03-27T08:10:08Z</time>
      </trkpt>
      <trkpt lat="41.587877010" lon="2.524263220">
        <ele>146.26</ele>
        <time>2016-03-27T08:10:12Z</time>
      </trkpt>
      <trkpt lat="41.588063090" lon="2.524394900">
        <ele>143.85</ele>
        <time>2016-03-27T08:10:15Z</time>
      </trkpt>
      <trkpt lat="41.588098630" lon="2.524442180">
        <ele>143.85</ele>
        <time>2016-03-27T08:10:16Z</time>
      </trkpt>
      <trkpt lat="41.588137850" lon="2.524507890">
        <ele>142.89</ele>
        <time>2016-03-27T08:10:17Z</time>
      </trkpt>
      <trkpt lat="41.588259480" lon="2.524673940">
        <ele>140.97</ele>
        <time>2016-03-27T08:10:21Z</time>
      </trkpt>
      <trkpt lat="41.588449490" lon="2.524534540">
        <ele>139.53</ele>
        <time>2016-03-27T08:10:26Z</time>
      </trkpt>
      <trkpt lat="41.588541110" lon="2.524401690">
        <ele>138.57</ele>
        <time>2016-03-27T08:10:28Z</time>
      </trkpt>
      <trkpt lat="41.588632390" lon="2.524129700">
        <ele>135.20</ele>
        <time>2016-03-27T08:10:32Z</time>
      </trkpt>
      <trkpt lat="41.588658450" lon="2.523919480">
        <ele>132.32</ele>
        <time>2016-03-27T08:10:35Z</time>
      </trkpt>
      <trkpt lat="41.588702120" lon="2.523689400">
        <ele>128.95</ele>
        <time>2016-03-27T08:10:38Z</time>
      </trkpt>
      <trkpt lat="41.588843690" lon="2.523401980">
        <ele>125.59</ele>
        <time>2016-03-27T08:10:42Z</time>
      </trkpt>
      <trkpt lat="41.589044530" lon="2.523338280">
        <ele>123.19</ele>
        <time>2016-03-27T08:10:45Z</time>
      </trkpt>
      <trkpt lat="41.589121970" lon="2.523357980">
        <ele>122.71</ele>
        <time>2016-03-27T08:10:46Z</time>
      </trkpt>
      <trkpt lat="41.589521460" lon="2.523509350">
        <ele>119.34</ele>
        <time>2016-03-27T08:10:51Z</time>
      </trkpt>
      <trkpt lat="41.589764110" lon="2.523605750">
        <ele>117.42</ele>
        <time>2016-03-27T08:10:54Z</time>
      </trkpt>
      <trkpt lat="41.590050520" lon="2.523632990">
        <ele>113.57</ele>
        <time>2016-03-27T08:10:58Z</time>
      </trkpt>
      <trkpt lat="41.590252940" lon="2.523491170">
        <ele>111.17</ele>
        <time>2016-03-27T08:11:02Z</time>
      </trkpt>
      <trkpt lat="41.590249510" lon="2.523317740">
        <ele>110.21</ele>
        <time>2016-03-27T08:11:06Z</time>
      </trkpt>
      <trkpt lat="41.590187980" lon="2.523270470">
        <ele>110.21</ele>
        <time>2016-03-27T08:11:08Z</time>
      </trkpt>
      <trkpt lat="41.590117320" lon="2.523214480">
        <ele>109.73</ele>
        <time>2016-03-27T08:11:10Z</time>
      </trkpt>
      <trkpt lat="41.590052280" lon="2.523143900">
        <ele>109.73</ele>
        <time>2016-03-27T08:11:12Z</time>
      </trkpt>
      <trkpt lat="41.589894370" lon="2.523020520">
        <ele>109.25</ele>
        <time>2016-03-27T08:11:16Z</time>
      </trkpt>
      <trkpt lat="41.589339320" lon="2.522730510">
        <ele>106.36</ele>
        <time>2016-03-27T08:11:27Z</time>
      </trkpt>
      <trkpt lat="41.588864230" lon="2.522481820">
        <ele>105.40</ele>
        <time>2016-03-27T08:11:35Z</time>
      </trkpt>
      <trkpt lat="41.588385790" lon="2.522268330">
        <ele>103.00</ele>
        <time>2016-03-27T08:11:43Z</time>
      </trkpt>
      <trkpt lat="41.588228880" lon="2.522188280">
        <ele>102.04</ele>
        <time>2016-03-27T08:11:47Z</time>
      </trkpt>
      <trkpt lat="41.588053280" lon="2.522127260">
        <ele>102.04</ele>
        <time>2016-03-27T08:11:51Z</time>
      </trkpt>
      <trkpt lat="41.587910370" lon="2.522065150">
        <ele>101.08</ele>
        <time>2016-03-27T08:11:54Z</time>
      </trkpt>
      <trkpt lat="41.587813310" lon="2.522033890">
        <ele>101.08</ele>
        <time>2016-03-27T08:11:56Z</time>
      </trkpt>
      <trkpt lat="41.587719350" lon="2.521905480">
        <ele>100.11</ele>
        <time>2016-03-27T08:12:01Z</time>
      </trkpt>
      <trkpt lat="41.587739300" lon="2.521882850">
        <ele>100.11</ele>
        <time>2016-03-27T08:12:02Z</time>
      </trkpt>
      <trkpt lat="41.587823450" lon="2.521765750">
        <ele>101.56</ele>
        <time>2016-03-27T08:12:06Z</time>
      </trkpt>
      <trkpt lat="41.587976340" lon="2.521544300">
        <ele>103.96</ele>
        <time>2016-03-27T08:12:14Z</time>
      </trkpt>
      <trkpt lat="41.588101900" lon="2.521398710">
        <ele>104.92</ele>
        <time>2016-03-27T08:12:21Z</time>
      </trkpt>
      <trkpt lat="41.588270540" lon="2.521170720">
        <ele>106.36</ele>
        <time>2016-03-27T08:12:30Z</time>
      </trkpt>
      <trkpt lat="41.588416970" lon="2.520954210">
        <ele>107.81</ele>
        <time>2016-03-27T08:12:39Z</time>
      </trkpt>
      <trkpt lat="41.588545630" lon="2.520733520">
        <ele>109.73</ele>
        <time>2016-03-27T08:12:48Z</time>
      </trkpt>
      <trkpt lat="41.588649740" lon="2.520536040">
        <ele>110.69</ele>
        <time>2016-03-27T08:12:54Z</time>
      </trkpt>
      <trkpt lat="41.588807740" lon="2.520295650">
        <ele>111.65</ele>
        <time>2016-03-27T08:13:03Z</time>
      </trkpt>
      <trkpt lat="41.588975790" lon="2.520093980">
        <ele>114.05</ele>
        <time>2016-03-27T08:13:12Z</time>
      </trkpt>
      <trkpt lat="41.589159270" lon="2.520020640">
        <ele>115.50</ele>
        <time>2016-03-27T08:13:20Z</time>
      </trkpt>
      <trkpt lat="41.589339570" lon="2.519965400">
        <ele>116.94</ele>
        <time>2016-03-27T08:13:28Z</time>
      </trkpt>
      <trkpt lat="41.589538720" lon="2.519751750">
        <ele>118.86</ele>
        <time>2016-03-27T08:13:38Z</time>
      </trkpt>
      <trkpt lat="41.589705020" lon="2.519526690">
        <ele>121.26</ele>
        <time>2016-03-27T08:13:48Z</time>
      </trkpt>
      <trkpt lat="41.589764200" lon="2.519400290">
        <ele>122.22</ele>
        <time>2016-03-27T08:13:53Z</time>
      </trkpt>
      <trkpt lat="41.589663280" lon="2.519274900">
        <ele>123.19</ele>
        <time>2016-03-27T08:13:59Z</time>
      </trkpt>
      <trkpt lat="41.589575270" lon="2.519313620">
        <ele>123.19</ele>
        <time>2016-03-27T08:14:02Z</time>
      </trkpt>
      <trkpt lat="41.589410060" lon="2.519375230">
        <ele>123.67</ele>
        <time>2016-03-27T08:14:09Z</time>
      </trkpt>
      <trkpt lat="41.589203110" lon="2.519302310">
        <ele>125.59</ele>
        <time>2016-03-27T08:14:17Z</time>
      </trkpt>
      <trkpt lat="41.589013180" lon="2.519244890">
        <ele>126.55</ele>
        <time>2016-03-27T08:14:25Z</time>
      </trkpt>
      <trkpt lat="41.588840510" lon="2.519298540">
        <ele>128.47</ele>
        <time>2016-03-27T08:14:32Z</time>
      </trkpt>
      <trkpt lat="41.588759370" lon="2.519264260">
        <ele>128.95</ele>
        <time>2016-03-27T08:14:35Z</time>
      </trkpt>
      <trkpt lat="41.588552670" lon="2.519323680">
        <ele>132.32</ele>
        <time>2016-03-27T08:14:44Z</time>
      </trkpt>
      <trkpt lat="41.588356200" lon="2.519444800">
        <ele>131.84</ele>
        <time>2016-03-27T08:14:51Z</time>
      </trkpt>
      <trkpt lat="41.588110280" lon="2.519592240">
        <ele>132.32</ele>
        <time>2016-03-27T08:14:59Z</time>
      </trkpt>
      <trkpt lat="41.587925210" lon="2.519684100">
        <ele>132.80</ele>
        <time>2016-03-27T08:15:06Z</time>
      </trkpt>
      <trkpt lat="41.587790590" lon="2.519647140">
        <ele>134.72</ele>
        <time>2016-03-27T08:15:12Z</time>
      </trkpt>
      <trkpt lat="41.587599740" lon="2.519523340">
        <ele>136.64</ele>
        <time>2016-03-27T08:15:22Z</time>
      </trkpt>
      <trkpt lat="41.587462610" lon="2.519433990">
        <ele>137.61</ele>
        <time>2016-03-27T08:15:29Z</time>
      </trkpt>
      <trkpt lat="41.587316090" lon="2.519276160">
        <ele>138.57</ele>
        <time>2016-03-27T08:15:37Z</time>
      </trkpt>
      <trkpt lat="41.587311990" lon="2.519101310">
        <ele>140.49</ele>
        <time>2016-03-27T08:15:44Z</time>
      </trkpt>
      <trkpt lat="41.587351460" lon="2.518947670">
        <ele>141.45</ele>
        <time>2016-03-27T08:15:50Z</time>
      </trkpt>
      <trkpt lat="41.587406950" lon="2.518731590">
        <ele>143.37</ele>
        <time>2016-03-27T08:15:59Z</time>
      </trkpt>
      <trkpt lat="41.587479620" lon="2.518537130">
        <ele>144.82</ele>
        <time>2016-03-27T08:16:07Z</time>
      </trkpt>
      <trkpt lat="41.587520860" lon="2.518431600">
        <ele>145.30</ele>
        <time>2016-03-27T08:16:12Z</time>
      </trkpt>
      <trkpt lat="41.587592860" lon="2.518280220">
        <ele>147.22</ele>
        <time>2016-03-27T08:16:20Z</time>
      </trkpt>
      <trkpt lat="41.587645590" lon="2.518195730">
        <ele>148.18</ele>
        <time>2016-03-27T08:16:26Z</time>
      </trkpt>
      <trkpt lat="41.587586410" lon="2.518076620">
        <ele>147.70</ele>
        <time>2016-03-27T08:16:30Z</time>
      </trkpt>
      <trkpt lat="41.587360770" lon="2.517941590">
        <ele>145.30</ele>
        <time>2016-03-27T08:16:34Z</time>
      </trkpt>
      <trkpt lat="41.587108050" lon="2.517946790">
        <ele>144.34</ele>
        <time>2016-03-27T08:16:38Z</time>
      </trkpt>
      <trkpt lat="41.586785850" lon="2.517991130">
        <ele>144.34</ele>
        <time>2016-03-27T08:16:44Z</time>
      </trkpt>
      <trkpt lat="41.586680240" lon="2.517913260">
        <ele>144.34</ele>
        <time>2016-03-27T08:16:48Z</time>
      </trkpt>
      <trkpt lat="41.586663230" lon="2.517844700">
        <ele>144.34</ele>
        <time>2016-03-27T08:16:50Z</time>
      </trkpt>
      <trkpt lat="41.586691720" lon="2.517603800">
        <ele>144.34</ele>
        <time>2016-03-27T08:16:57Z</time>
      </trkpt>
      <trkpt lat="41.586718380" lon="2.517523750">
        <ele>144.34</ele>
        <time>2016-03-27T08:17:03Z</time>
      </trkpt>
      <trkpt lat="41.586719550" lon="2.517532390">
        <ele>144.34</ele>
        <time>2016-03-27T08:17:16Z</time>
      </trkpt>
      <trkpt lat="41.586703460" lon="2.517474130">
        <ele>144.34</ele>
        <time>2016-03-27T08:17:32Z</time>
      </trkpt>
      <trkpt lat="41.586709750" lon="2.517222760">
        <ele>145.30</ele>
        <time>2016-03-27T08:17:40Z</time>
      </trkpt>
      <trkpt lat="41.586726840" lon="2.516819340">
        <ele>145.30</ele>
        <time>2016-03-27T08:17:49Z</time>
      </trkpt>
      <trkpt lat="41.586715360" lon="2.516523120">
        <ele>145.30</ele>
        <time>2016-03-27T08:17:55Z</time>
      </trkpt>
      <trkpt lat="41.586738410" lon="2.516298820">
        <ele>145.30</ele>
        <time>2016-03-27T08:18:00Z</time>
      </trkpt>
      <trkpt lat="41.586731290" lon="2.516053900">
        <ele>145.30</ele>
        <time>2016-03-27T08:18:06Z</time>
      </trkpt>
      <trkpt lat="41.586564660" lon="2.516020290">
        <ele>145.78</ele>
        <time>2016-03-27T08:18:12Z</time>
      </trkpt>
      <trkpt lat="41.586494670" lon="2.516055330">
        <ele>146.26</ele>
        <time>2016-03-27T08:18:15Z</time>
      </trkpt>
      <trkpt lat="41.586485030" lon="2.515994140">
        <ele>146.74</ele>
        <time>2016-03-27T08:18:20Z</time>
      </trkpt>
      <trkpt lat="41.586501790" lon="2.515987100">
        <ele>146.26</ele>
        <time>2016-03-27T08:18:21Z</time>
      </trkpt>
      <trkpt lat="41.586675970" lon="2.515900260">
        <ele>147.22</ele>
        <time>2016-03-27T08:18:29Z</time>
      </trkpt>
      <trkpt lat="41.586856180" lon="2.515861960">
        <ele>149.14</ele>
        <time>2016-03-27T08:18:37Z</time>
      </trkpt>
      <trkpt lat="41.586963970" lon="2.515857430">
        <ele>150.10</ele>
        <time>2016-03-27T08:18:44Z</time>
      </trkpt>
      <trkpt lat="41.587057590" lon="2.515875450">
        <ele>151.54</ele>
        <time>2016-03-27T08:18:51Z</time>
      </trkpt>
      <trkpt lat="41.587177290" lon="2.515894810">
        <ele>152.99</ele>
        <time>2016-03-27T08:18:59Z</time>
      </trkpt>
      <trkpt lat="41.587254490" lon="2.515929520">
        <ele>154.43</ele>
        <time>2016-03-27T08:19:04Z</time>
      </trkpt>
      <trkpt lat="41.587303270" lon="2.516036300">
        <ele>155.87</ele>
        <time>2016-03-27T08:19:12Z</time>
      </trkpt>
      <trkpt lat="41.587339230" lon="2.516186250">
        <ele>157.79</ele>
        <time>2016-03-27T08:19:21Z</time>
      </trkpt>
      <trkpt lat="41.587365970" lon="2.516306200">
        <ele>159.24</ele>
        <time>2016-03-27T08:19:28Z</time>
      </trkpt>
      <trkpt lat="41.587385080" lon="2.516458160">
        <ele>161.16</ele>
        <time>2016-03-27T08:19:37Z</time>
      </trkpt>
      <trkpt lat="41.587382390" lon="2.516605680">
        <ele>163.08</ele>
        <time>2016-03-27T08:19:45Z</time>
      </trkpt>
      <trkpt lat="41.587411400" lon="2.516738030">
        <ele>164.52</ele>
        <time>2016-03-27T08:19:53Z</time>
      </trkpt>
      <trkpt lat="41.587504350" lon="2.516946490">
        <ele>165.96</ele>
        <time>2016-03-27T08:20:02Z</time>
      </trkpt>
      <trkpt lat="41.587618850" lon="2.517035340">
        <ele>166.93</ele>
        <time>2016-03-27T08:20:09Z</time>
      </trkpt>
      <trkpt lat="41.587731250" lon="2.517118150">
        <ele>167.89</ele>
        <time>2016-03-27T08:20:16Z</time>
      </trkpt>
      <trkpt lat="41.587883130" lon="2.517287050">
        <ele>168.85</ele>
        <time>2016-03-27T08:20:27Z</time>
      </trkpt>
      <trkpt lat="41.587966440" lon="2.517405990">
        <ele>170.29</ele>
        <time>2016-03-27T08:20:34Z</time>
      </trkpt>
      <trkpt lat="41.588098880" lon="2.517554100">
        <ele>171.73</ele>
        <time>2016-03-27T08:20:44Z</time>
      </trkpt>
      <trkpt lat="41.588248240" lon="2.517684940">
        <ele>173.17</ele>
        <time>2016-03-27T08:20:53Z</time>
      </trkpt>
      <trkpt lat="41.588420830" lon="2.517787870">
        <ele>174.14</ele>
        <time>2016-03-27T08:21:03Z</time>
      </trkpt>
      <trkpt lat="41.588572880" lon="2.517800860">
        <ele>175.10</ele>
        <time>2016-03-27T08:21:12Z</time>
      </trkpt>
      <trkpt lat="41.588587460" lon="2.517795330">
        <ele>175.10</ele>
        <time>2016-03-27T08:21:13Z</time>
      </trkpt>
      <trkpt lat="41.588676560" lon="2.517735060">
        <ele>176.06</ele>
        <time>2016-03-27T08:21:20Z</time>
      </trkpt>
      <trkpt lat="41.588762220" lon="2.517690050">
        <ele>176.54</ele>
        <time>2016-03-27T08:21:25Z</time>
      </trkpt>
      <trkpt lat="41.588775970" lon="2.517668420">
        <ele>176.54</ele>
        <time>2016-03-27T08:21:26Z</time>
      </trkpt>
      <trkpt lat="41.588885860" lon="2.517465670">
        <ele>178.46</ele>
        <time>2016-03-27T08:21:37Z</time>
      </trkpt>
      <trkpt lat="41.588946460" lon="2.517336000">
        <ele>179.42</ele>
        <time>2016-03-27T08:21:45Z</time>
      </trkpt>
      <trkpt lat="41.589022560" lon="2.517182690">
        <ele>180.87</ele>
        <time>2016-03-27T08:21:53Z</time>
      </trkpt>
      <trkpt lat="41.589018960" lon="2.516978170">
        <ele>182.79</ele>
        <time>2016-03-27T08:22:02Z</time>
      </trkpt>
      <trkpt lat="41.588943020" lon="2.516828730">
        <ele>184.71</ele>
        <time>2016-03-27T08:22:11Z</time>
      </trkpt>
      <trkpt lat="41.588915360" lon="2.516772320">
        <ele>184.71</ele>
        <time>2016-03-27T08:22:14Z</time>
      </trkpt>
      <trkpt lat="41.588901360" lon="2.516702660">
        <ele>185.67</ele>
        <time>2016-03-27T08:22:19Z</time>
      </trkpt>
      <trkpt lat="41.588966570" lon="2.516569220">
        <ele>186.63</ele>
        <time>2016-03-27T08:22:27Z</time>
      </trkpt>
      <trkpt lat="41.589025080" lon="2.516423800">
        <ele>188.08</ele>
        <time>2016-03-27T08:22:35Z</time>
      </trkpt>
      <trkpt lat="41.589035640" lon="2.516239310">
        <ele>190.00</ele>
        <time>2016-03-27T08:22:45Z</time>
      </trkpt>
      <trkpt lat="41.589025500" lon="2.516082740">
        <ele>190.96</ele>
        <time>2016-03-27T08:22:52Z</time>
      </trkpt>
      <trkpt lat="41.589032120" lon="2.516018110">
        <ele>192.40</ele>
        <time>2016-03-27T08:22:57Z</time>
      </trkpt>
      <trkpt lat="41.589102860" lon="2.515966310">
        <ele>192.40</ele>
        <time>2016-03-27T08:23:02Z</time>
      </trkpt>
      <trkpt lat="41.589146200" lon="2.515896570">
        <ele>192.40</ele>
        <time>2016-03-27T08:23:05Z</time>
      </trkpt>
      <trkpt lat="41.589156260" lon="2.515817530">
        <ele>192.88</ele>
        <time>2016-03-27T08:23:09Z</time>
      </trkpt>
      <trkpt lat="41.589137560" lon="2.515665230">
        <ele>194.32</ele>
        <time>2016-03-27T08:23:16Z</time>
      </trkpt>
      <trkpt lat="41.589149050" lon="2.515460880">
        <ele>195.28</ele>
        <time>2016-03-27T08:23:25Z</time>
      </trkpt>
      <trkpt lat="41.589119380" lon="2.515260890">
        <ele>195.28</ele>
        <time>2016-03-27T08:23:31Z</time>
      </trkpt>
      <trkpt lat="41.589109820" lon="2.515108000">
        <ele>191.92</ele>
        <time>2016-03-27T08:23:34Z</time>
      </trkpt>
      <trkpt lat="41.589125410" lon="2.514823270">
        <ele>188.08</ele>
        <time>2016-03-27T08:23:39Z</time>
      </trkpt>
      <trkpt lat="41.589127340" lon="2.514636190">
        <ele>184.71</ele>
        <time>2016-03-27T08:23:43Z</time>
      </trkpt>
      <trkpt lat="41.589136810" lon="2.514541810">
        <ele>183.75</ele>
        <time>2016-03-27T08:23:45Z</time>
      </trkpt>
      <trkpt lat="41.589151650" lon="2.514370560">
        <ele>181.35</ele>
        <time>2016-03-27T08:23:48Z</time>
      </trkpt>
      <trkpt lat="41.589138230" lon="2.514238890">
        <ele>180.87</ele>
        <time>2016-03-27T08:23:50Z</time>
      </trkpt>
      <trkpt lat="41.589126750" lon="2.514169060">
        <ele>180.38</ele>
        <time>2016-03-27T08:23:51Z</time>
      </trkpt>
      <trkpt lat="41.589131610" lon="2.513923220">
        <ele>179.90</ele>
        <time>2016-03-27T08:23:56Z</time>
      </trkpt>
      <trkpt lat="41.589168580" lon="2.513895390">
        <ele>180.38</ele>
        <time>2016-03-27T08:24:00Z</time>
      </trkpt>
      <trkpt lat="41.589192970" lon="2.513916600">
        <ele>181.83</ele>
        <time>2016-03-27T08:24:03Z</time>
      </trkpt>
      <trkpt lat="41.589247790" lon="2.514008800">
        <ele>182.31</ele>
        <time>2016-03-27T08:24:10Z</time>
      </trkpt>
      <trkpt lat="41.589300930" lon="2.514137130">
        <ele>179.90</ele>
        <time>2016-03-27T08:24:14Z</time>
      </trkpt>
      <trkpt lat="41.589415340" lon="2.514311220">
        <ele>181.35</ele>
        <time>2016-03-27T08:24:23Z</time>
      </trkpt>
      <trkpt lat="41.589429760" lon="2.514332590">
        <ele>181.35</ele>
        <time>2016-03-27T08:24:24Z</time>
      </trkpt>
      <trkpt lat="41.589544760" lon="2.514420440">
        <ele>182.79</ele>
        <time>2016-03-27T08:24:31Z</time>
      </trkpt>
      <trkpt lat="41.589682390" lon="2.514475760">
        <ele>184.23</ele>
        <time>2016-03-27T08:24:39Z</time>
      </trkpt>
      <trkpt lat="41.589795210" lon="2.514528060">
        <ele>185.19</ele>
        <time>2016-03-27T08:24:46Z</time>
      </trkpt>
      <trkpt lat="41.589928900" lon="2.514562180">
        <ele>188.08</ele>
        <time>2016-03-27T08:24:55Z</time>
      </trkpt>
      <trkpt lat="41.590007100" lon="2.514589330">
        <ele>189.04</ele>
        <time>2016-03-27T08:25:02Z</time>
      </trkpt>
      <trkpt lat="41.590123950" lon="2.514556560">
        <ele>190.48</ele>
        <time>2016-03-27T08:25:12Z</time>
      </trkpt>
      <trkpt lat="41.590134260" lon="2.514551280">
        <ele>191.44</ele>
        <time>2016-03-27T08:25:13Z</time>
      </trkpt>
      <trkpt lat="41.590229470" lon="2.514457990">
        <ele>192.40</ele>
        <time>2016-03-27T08:25:21Z</time>
      </trkpt>
      <trkpt lat="41.590259980" lon="2.514375510">
        <ele>193.36</ele>
        <time>2016-03-27T08:25:28Z</time>
      </trkpt>
      <trkpt lat="41.590297700" lon="2.514304850">
        <ele>194.32</ele>
        <time>2016-03-27T08:25:35Z</time>
      </trkpt>
      <trkpt lat="41.590334080" lon="2.514233770">
        <ele>196.25</ele>
        <time>2016-03-27T08:25:42Z</time>
      </trkpt>
      <trkpt lat="41.590382280" lon="2.514148110">
        <ele>197.69</ele>
        <time>2016-03-27T08:25:49Z</time>
      </trkpt>
      <trkpt lat="41.590413710" lon="2.514032360">
        <ele>199.61</ele>
        <time>2016-03-27T08:25:57Z</time>
      </trkpt>
      <trkpt lat="41.590445390" lon="2.513933280">
        <ele>200.57</ele>
        <time>2016-03-27T08:26:04Z</time>
      </trkpt>
      <trkpt lat="41.590453100" lon="2.513882740">
        <ele>201.53</ele>
        <time>2016-03-27T08:26:08Z</time>
      </trkpt>
      <trkpt lat="41.590422590" lon="2.513821720">
        <ele>202.98</ele>
        <time>2016-03-27T08:26:15Z</time>
      </trkpt>
      <trkpt lat="41.590364510" lon="2.513863960">
        <ele>203.94</ele>
        <time>2016-03-27T08:26:24Z</time>
      </trkpt>
      <trkpt lat="41.590315220" lon="2.513917020">
        <ele>203.94</ele>
        <time>2016-03-27T08:26:30Z</time>
      </trkpt>
      <trkpt lat="41.590228050" lon="2.513979630">
        <ele>204.90</ele>
        <time>2016-03-27T08:26:38Z</time>
      </trkpt>
      <trkpt lat="41.590142140" lon="2.514014080">
        <ele>206.34</ele>
        <time>2016-03-27T08:26:46Z</time>
      </trkpt>
      <trkpt lat="41.590058900" lon="2.514020620">
        <ele>206.82</ele>
        <time>2016-03-27T08:26:52Z</time>
      </trkpt>
      <trkpt lat="41.590041470" lon="2.513962620">
        <ele>207.78</ele>
        <time>2016-03-27T08:26:57Z</time>
      </trkpt>
      <trkpt lat="41.590071220" lon="2.513929840">
        <ele>208.26</ele>
        <time>2016-03-27T08:27:01Z</time>
      </trkpt>
      <trkpt lat="41.590108690" lon="2.513851730">
        <ele>209.22</ele>
        <time>2016-03-27T08:27:09Z</time>
      </trkpt>
      <trkpt lat="41.590129480" lon="2.513840580">
        <ele>210.19</ele>
        <time>2016-03-27T08:27:11Z</time>
      </trkpt>
      <trkpt lat="41.590197200" lon="2.513810320">
        <ele>208.74</ele>
        <time>2016-03-27T08:27:16Z</time>
      </trkpt>
      <trkpt lat="41.590237940" lon="2.513727510">
        <ele>208.74</ele>
        <time>2016-03-27T08:27:21Z</time>
      </trkpt>
      <trkpt lat="41.590343300" lon="2.513612590">
        <ele>207.30</ele>
        <time>2016-03-27T08:27:27Z</time>
      </trkpt>
      <trkpt lat="41.590360060" lon="2.513553160">
        <ele>207.30</ele>
        <time>2016-03-27T08:27:31Z</time>
      </trkpt>
      <trkpt lat="41.590390740" lon="2.513515780">
        <ele>208.74</ele>
        <time>2016-03-27T08:27:33Z</time>
      </trkpt>
      <trkpt lat="41.590420920" lon="2.513487110">
        <ele>208.74</ele>
        <time>2016-03-27T08:27:35Z</time>
      </trkpt>
      <trkpt lat="41.590564920" lon="2.513321070">
        <ele>206.34</ele>
        <time>2016-03-27T08:27:42Z</time>
      </trkpt>
      <trkpt lat="41.590593330" lon="2.513309330">
        <ele>206.34</ele>
        <time>2016-03-27T08:27:43Z</time>
      </trkpt>
      <trkpt lat="41.590738420" lon="2.513252340">
        <ele>207.78</ele>
        <time>2016-03-27T08:27:52Z</time>
      </trkpt>
      <trkpt lat="41.590826180" lon="2.513204310">
        <ele>206.34</ele>
        <time>2016-03-27T08:27:56Z</time>
      </trkpt>
      <trkpt lat="41.590895580" lon="2.513103140">
        <ele>205.86</ele>
        <time>2016-03-27T08:28:00Z</time>
      </trkpt>
      <trkpt lat="41.590953170" lon="2.513018060">
        <ele>207.30</ele>
        <time>2016-03-27T08:28:04Z</time>
      </trkpt>
      <trkpt lat="41.591000110" lon="2.512957120">
        <ele>207.78</ele>
        <time>2016-03-27T08:28:07Z</time>
      </trkpt>
      <trkpt lat="41.591014360" lon="2.512925780">
        <ele>207.78</ele>
        <time>2016-03-27T08:28:09Z</time>
      </trkpt>
      <trkpt lat="41.591031120" lon="2.512825530">
        <ele>209.22</ele>
        <time>2016-03-27T08:28:15Z</time>
      </trkpt>
      <trkpt lat="41.591074620" lon="2.512718740">
        <ele>210.19</ele>
        <time>2016-03-27T08:28:23Z</time>
      </trkpt>
      <trkpt lat="41.591114600" lon="2.512594610">
        <ele>211.63</ele>
        <time>2016-03-27T08:28:30Z</time>
      </trkpt>
      <trkpt lat="41.591124080" lon="2.512577840">
        <ele>212.11</ele>
        <time>2016-03-27T08:28:31Z</time>
      </trkpt>
      <trkpt lat="41.591164640" lon="2.512432080">
        <ele>213.07</ele>
        <time>2016-03-27T08:28:39Z</time>
      </trkpt>
      <trkpt lat="41.591193140" lon="2.512328480">
        <ele>213.07</ele>
        <time>2016-03-27T08:28:42Z</time>
      </trkpt>
      <trkpt lat="41.591242510" lon="2.512211890">
        <ele>210.19</ele>
        <time>2016-03-27T08:28:47Z</time>
      </trkpt>
      <trkpt lat="41.591336220" lon="2.512102840">
        <ele>206.82</ele>
        <time>2016-03-27T08:28:54Z</time>
      </trkpt>
      <trkpt lat="41.591400340" lon="2.512059340">
        <ele>204.90</ele>
        <time>2016-03-27T08:28:59Z</time>
      </trkpt>
      <trkpt lat="41.591453320" lon="2.511948450">
        <ele>202.49</ele>
        <time>2016-03-27T08:29:04Z</time>
      </trkpt>
      <trkpt lat="41.591502520" lon="2.511896900">
        <ele>201.53</ele>
        <time>2016-03-27T08:29:09Z</time>
      </trkpt>
      <trkpt lat="41.591510560" lon="2.511889350">
        <ele>201.53</ele>
        <time>2016-03-27T08:29:11Z</time>
      </trkpt>
      <trkpt lat="41.591542920" lon="2.511970990">
        <ele>200.57</ele>
        <time>2016-03-27T08:29:16Z</time>
      </trkpt>
      <trkpt lat="41.591639980" lon="2.512113740">
        <ele>198.65</ele>
        <time>2016-03-27T08:29:22Z</time>
      </trkpt>
      <trkpt lat="41.591698820" lon="2.512177190">
        <ele>198.65</ele>
        <time>2016-03-27T08:29:25Z</time>
      </trkpt>
      <trkpt lat="41.591755150" lon="2.512324370">
        <ele>196.25</ele>
        <time>2016-03-27T08:29:29Z</time>
      </trkpt>
      <trkpt lat="41.591792450" lon="2.512453460">
        <ele>194.80</ele>
        <time>2016-03-27T08:29:32Z</time>
      </trkpt>
      <trkpt lat="41.591815410" lon="2.512562340">
        <ele>193.36</ele>
        <time>2016-03-27T08:29:34Z</time>
      </trkpt>
      <trkpt lat="41.591837380" lon="2.512765430">
        <ele>189.52</ele>
        <time>2016-03-27T08:29:39Z</time>
      </trkpt>
      <trkpt lat="41.591866130" lon="2.512811360">
        <ele>189.04</ele>
        <time>2016-03-27T08:29:41Z</time>
      </trkpt>
      <trkpt lat="41.591940050" lon="2.512876070">
        <ele>185.19</ele>
        <time>2016-03-27T08:29:47Z</time>
      </trkpt>
      <trkpt lat="41.591935950" lon="2.512885960">
        <ele>184.71</ele>
        <time>2016-03-27T08:29:49Z</time>
      </trkpt>
      <trkpt lat="41.591887420" lon="2.513081930">
        <ele>182.79</ele>
        <time>2016-03-27T08:29:55Z</time>
      </trkpt>
      <trkpt lat="41.591855560" lon="2.513261640">
        <ele>182.79</ele>
        <time>2016-03-27T08:29:59Z</time>
      </trkpt>
      <trkpt lat="41.591817340" lon="2.513472780">
        <ele>184.71</ele>
        <time>2016-03-27T08:30:06Z</time>
      </trkpt>
      <trkpt lat="41.591799150" lon="2.513698000">
        <ele>186.63</ele>
        <time>2016-03-27T08:30:15Z</time>
      </trkpt>
      <trkpt lat="41.591844000" lon="2.513849210">
        <ele>188.08</ele>
        <time>2016-03-27T08:30:22Z</time>
      </trkpt>
      <trkpt lat="41.591931840" lon="2.513935380">
        <ele>190.00</ele>
        <time>2016-03-27T08:30:30Z</time>
      </trkpt>
      <trkpt lat="41.591993360" lon="2.514058260">
        <ele>192.40</ele>
        <time>2016-03-27T08:30:38Z</time>
      </trkpt>
      <trkpt lat="41.591997640" lon="2.514218270">
        <ele>193.36</ele>
        <time>2016-03-27T08:30:46Z</time>
      </trkpt>
      <trkpt lat="41.592012310" lon="2.514396210">
        <ele>193.84</ele>
        <time>2016-03-27T08:30:55Z</time>
      </trkpt>
      <trkpt lat="41.592012980" lon="2.514542310">
        <ele>194.32</ele>
        <time>2016-03-27T08:31:01Z</time>
      </trkpt>
      <trkpt lat="41.592023030" lon="2.514730990">
        <ele>194.80</ele>
        <time>2016-03-27T08:31:09Z</time>
      </trkpt>
      <trkpt lat="41.592055980" lon="2.514929300">
        <ele>195.77</ele>
        <time>2016-03-27T08:31:18Z</time>
      </trkpt>
      <trkpt lat="41.592131160" lon="2.515074310">
        <ele>197.21</ele>
        <time>2016-03-27T08:31:26Z</time>
      </trkpt>
      <trkpt lat="41.592270640" lon="2.515097780">
        <ele>198.17</ele>
        <time>2016-03-27T08:31:35Z</time>
      </trkpt>
      <trkpt lat="41.592299550" lon="2.515113030">
        <ele>196.73</ele>
        <time>2016-03-27T08:31:36Z</time>
      </trkpt>
      <trkpt lat="41.592440200" lon="2.515118230">
        <ele>195.28</ele>
        <time>2016-03-27T08:31:42Z</time>
      </trkpt>
      <trkpt lat="41.592606500" lon="2.515073720">
        <ele>194.80</ele>
        <time>2016-03-27T08:31:49Z</time>
      </trkpt>
      <trkpt lat="41.592658630" lon="2.515097440">
        <ele>193.84</ele>
        <time>2016-03-27T08:31:52Z</time>
      </trkpt>
      <trkpt lat="41.592803050" lon="2.515009100">
        <ele>190.48</ele>
        <time>2016-03-27T08:31:59Z</time>
      </trkpt>
      <trkpt lat="41.592848070" lon="2.514988560">
        <ele>189.52</ele>
        <time>2016-03-27T08:32:01Z</time>
      </trkpt>
      <trkpt lat="41.592968680" lon="2.515056880">
        <ele>185.19</ele>
        <time>2016-03-27T08:32:06Z</time>
      </trkpt>
      <trkpt lat="41.592984770" lon="2.515069620">
        <ele>184.71</ele>
        <time>2016-03-27T08:32:07Z</time>
      </trkpt>
      <trkpt lat="41.593101870" lon="2.515183530">
        <ele>184.23</ele>
        <time>2016-03-27T08:32:12Z</time>
      </trkpt>
      <trkpt lat="41.593150650" lon="2.515297940">
        <ele>181.83</ele>
        <time>2016-03-27T08:32:14Z</time>
      </trkpt>
      <trkpt lat="41.593159120" lon="2.515346300">
        <ele>181.83</ele>
        <time>2016-03-27T08:32:15Z</time>
      </trkpt>
      <trkpt lat="41.593134810" lon="2.515471190">
        <ele>181.83</ele>
        <time>2016-03-27T08:32:21Z</time>
      </trkpt>
      <trkpt lat="41.593106400" lon="2.515561130">
        <ele>180.87</ele>
        <time>2016-03-27T08:32:25Z</time>
      </trkpt>
      <trkpt lat="41.593075300" lon="2.515607310">
        <ele>179.42</ele>
        <time>2016-03-27T08:32:27Z</time>
      </trkpt>
      <trkpt lat="41.593065070" lon="2.515621650">
        <ele>178.94</ele>
        <time>2016-03-27T08:32:28Z</time>
      </trkpt>
      <trkpt lat="41.593068170" lon="2.515686020">
        <ele>178.94</ele>
        <time>2016-03-27T08:32:31Z</time>
      </trkpt>
      <trkpt lat="41.593048480" lon="2.515714100">
        <ele>177.50</ele>
        <time>2016-03-27T08:32:33Z</time>
      </trkpt>
      <trkpt lat="41.593036490" lon="2.515712420">
        <ele>176.54</ele>
        <time>2016-03-27T08:32:34Z</time>
      </trkpt>
      <trkpt lat="41.593000620" lon="2.515801940">
        <ele>176.54</ele>
        <time>2016-03-27T08:32:36Z</time>
      </trkpt>
      <trkpt lat="41.592973790" lon="2.515939740">
        <ele>176.54</ele>
        <time>2016-03-27T08:32:40Z</time>
      </trkpt>
      <trkpt lat="41.592942700" lon="2.516004110">
        <ele>177.50</ele>
        <time>2016-03-27T08:32:44Z</time>
      </trkpt>
      <trkpt lat="41.592879500" lon="2.516142000">
        <ele>179.42</ele>
        <time>2016-03-27T08:32:52Z</time>
      </trkpt>
      <trkpt lat="41.592823670" lon="2.516276690">
        <ele>180.87</ele>
        <time>2016-03-27T08:32:59Z</time>
      </trkpt>
      <trkpt lat="41.592779750" lon="2.516424630">
        <ele>182.31</ele>
        <time>2016-03-27T08:33:06Z</time>
      </trkpt>
      <trkpt lat="41.592704480" lon="2.516559830">
        <ele>183.75</ele>
        <time>2016-03-27T08:33:14Z</time>
      </trkpt>
      <trkpt lat="41.592659220" lon="2.516707860">
        <ele>185.67</ele>
        <time>2016-03-27T08:33:22Z</time>
      </trkpt>
      <trkpt lat="41.592634750" lon="2.516798630">
        <ele>185.67</ele>
        <time>2016-03-27T08:33:26Z</time>
      </trkpt>
      <trkpt lat="41.592667520" lon="2.516933080">
        <ele>188.56</ele>
        <time>2016-03-27T08:33:34Z</time>
      </trkpt>
      <trkpt lat="41.592752680" lon="2.516980100">
        <ele>190.48</ele>
        <time>2016-03-27T08:33:42Z</time>
      </trkpt>
      <trkpt lat="41.592778830" lon="2.516983960">
        <ele>190.96</ele>
        <time>2016-03-27T08:33:44Z</time>
      </trkpt>
      <trkpt lat="41.592839680" lon="2.516998960">
        <ele>191.92</ele>
        <time>2016-03-27T08:33:49Z</time>
      </trkpt>
      <trkpt lat="41.592961220" lon="2.516994600">
        <ele>193.36</ele>
        <time>2016-03-27T08:33:59Z</time>
      </trkpt>
      <trkpt lat="41.593001960" lon="2.516991590">
        <ele>193.84</ele>
        <time>2016-03-27T08:34:02Z</time>
      </trkpt>
      <trkpt lat="41.593106230" lon="2.517008270">
        <ele>194.80</ele>
        <time>2016-03-27T08:34:10Z</time>
      </trkpt>
      <trkpt lat="41.593121060" lon="2.517007340">
        <ele>194.80</ele>
        <time>2016-03-27T08:34:11Z</time>
      </trkpt>
      <trkpt lat="41.593234220" lon="2.517005330">
        <ele>195.77</ele>
        <time>2016-03-27T08:34:19Z</time>
      </trkpt>
      <trkpt lat="41.593350980" lon="2.516976830">
        <ele>196.73</ele>
        <time>2016-03-27T08:34:27Z</time>
      </trkpt>
      <trkpt lat="41.593464720" lon="2.516959990">
        <ele>198.17</ele>
        <time>2016-03-27T08:34:35Z</time>
      </trkpt>
      <trkpt lat="41.593496660" lon="2.516956880">
        <ele>198.65</ele>
        <time>2016-03-27T08:34:37Z</time>
      </trkpt>
      <trkpt lat="41.593643000" lon="2.516928970">
        <ele>201.05</ele>
        <time>2016-03-27T08:34:48Z</time>
      </trkpt>
      <trkpt lat="41.593714170" lon="2.516855550">
        <ele>202.49</ele>
        <time>2016-03-27T08:34:56Z</time>
      </trkpt>
      <trkpt lat="41.593716600" lon="2.516714730">
        <ele>204.42</ele>
        <time>2016-03-27T08:35:05Z</time>
      </trkpt>
      <trkpt lat="41.593704950" lon="2.516611050">
        <ele>205.86</ele>
        <time>2016-03-27T08:35:13Z</time>
      </trkpt>
      <trkpt lat="41.593704360" lon="2.516559750">
        <ele>205.86</ele>
        <time>2016-03-27T08:35:17Z</time>
      </trkpt>
      <trkpt lat="41.593708800" lon="2.516524970">
        <ele>205.86</ele>
        <time>2016-03-27T08:35:19Z</time>
      </trkpt>
      <trkpt lat="41.593747950" lon="2.516353640">
        <ele>206.82</ele>
        <time>2016-03-27T08:35:28Z</time>
      </trkpt>
      <trkpt lat="41.593751380" lon="2.516293460">
        <ele>206.82</ele>
        <time>2016-03-27T08:35:32Z</time>
      </trkpt>
      <trkpt lat="41.593794970" lon="2.516123720">
        <ele>208.26</ele>
        <time>2016-03-27T08:35:41Z</time>
      </trkpt>
      <trkpt lat="41.593838640" lon="2.515937560">
        <ele>209.70</ele>
        <time>2016-03-27T08:35:50Z</time>
      </trkpt>
      <trkpt lat="41.593886080" lon="2.515758610">
        <ele>210.67</ele>
        <time>2016-03-27T08:35:58Z</time>
      </trkpt>
      <trkpt lat="41.593920610" lon="2.515621140">
        <ele>211.63</ele>
        <time>2016-03-27T08:36:05Z</time>
      </trkpt>
      <trkpt lat="41.593947600" lon="2.515524500">
        <ele>212.11</ele>
        <time>2016-03-27T08:36:10Z</time>
      </trkpt>
      <trkpt lat="41.593974840" lon="2.515450910">
        <ele>212.11</ele>
        <time>2016-03-27T08:36:14Z</time>
      </trkpt>
      <trkpt lat="41.594024300" lon="2.515236000">
        <ele>213.07</ele>
        <time>2016-03-27T08:36:24Z</time>
      </trkpt>
      <trkpt lat="41.594095460" lon="2.515069620">
        <ele>214.03</ele>
        <time>2016-03-27T08:36:31Z</time>
      </trkpt>
      <trkpt lat="41.594166120" lon="2.514834670">
        <ele>215.47</ele>
        <time>2016-03-27T08:36:41Z</time>
      </trkpt>
      <trkpt lat="41.594177600" lon="2.514671390">
        <ele>216.91</ele>
        <time>2016-03-27T08:36:49Z</time>
      </trkpt>
      <trkpt lat="41.594167040" lon="2.514521270">
        <ele>218.36</ele>
        <time>2016-03-27T08:36:57Z</time>
      </trkpt>
      <trkpt lat="41.594159330" lon="2.514326640">
        <ele>219.32</ele>
        <time>2016-03-27T08:37:06Z</time>
      </trkpt>
      <trkpt lat="41.594221270" lon="2.514160010">
        <ele>219.80</ele>
        <time>2016-03-27T08:37:14Z</time>
      </trkpt>
      <trkpt lat="41.594250530" lon="2.514041410">
        <ele>219.80</ele>
        <time>2016-03-27T08:37:18Z</time>
      </trkpt>
      <trkpt lat="41.594276930" lon="2.513991870">
        <ele>218.36</ele>
        <time>2016-03-27T08:37:20Z</time>
      </trkpt>
      <trkpt lat="41.594293360" lon="2.513894220">
        <ele>216.91</ele>
        <time>2016-03-27T08:37:23Z</time>
      </trkpt>
      <trkpt lat="41.594243480" lon="2.513828670">
        <ele>215.95</ele>
        <time>2016-03-27T08:37:28Z</time>
      </trkpt>
      <trkpt lat="41.594210960" lon="2.513744940">
        <ele>215.95</ele>
        <time>2016-03-27T08:37:32Z</time>
      </trkpt>
      <trkpt lat="41.594217670" lon="2.513683840">
        <ele>217.40</ele>
        <time>2016-03-27T08:37:35Z</time>
      </trkpt>
      <trkpt lat="41.594210880" lon="2.513642010">
        <ele>218.36</ele>
        <time>2016-03-27T08:37:38Z</time>
      </trkpt>
      <trkpt lat="41.594205600" lon="2.513553920">
        <ele>219.32</ele>
        <time>2016-03-27T08:37:43Z</time>
      </trkpt>
      <trkpt lat="41.594233010" lon="2.513361220">
        <ele>220.28</ele>
        <time>2016-03-27T08:37:51Z</time>
      </trkpt>
      <trkpt lat="41.594272900" lon="2.513205820">
        <ele>221.72</ele>
        <time>2016-03-27T08:37:58Z</time>
      </trkpt>
      <trkpt lat="41.594265110" lon="2.513167010">
        <ele>222.68</ele>
        <time>2016-03-27T08:38:00Z</time>
      </trkpt>
      <trkpt lat="41.594246500" lon="2.513005400">
        <ele>223.64</ele>
        <time>2016-03-27T08:38:08Z</time>
      </trkpt>
      <trkpt lat="41.594228900" lon="2.512849750">
        <ele>224.61</ele>
        <time>2016-03-27T08:38:16Z</time>
      </trkpt>
      <trkpt lat="41.594207950" lon="2.512747410">
        <ele>225.09</ele>
        <time>2016-03-27T08:38:22Z</time>
      </trkpt>
      <trkpt lat="41.594178440" lon="2.512604330">
        <ele>227.01</ele>
        <time>2016-03-27T08:38:31Z</time>
      </trkpt>
      <trkpt lat="41.594170560" lon="2.512495200">
        <ele>227.97</ele>
        <time>2016-03-27T08:38:38Z</time>
      </trkpt>
      <trkpt lat="41.594160920" lon="2.512412130">
        <ele>229.41</ele>
        <time>2016-03-27T08:38:43Z</time>
      </trkpt>
      <trkpt lat="41.594138040" lon="2.512314150">
        <ele>230.37</ele>
        <time>2016-03-27T08:38:49Z</time>
      </trkpt>
      <trkpt lat="41.594071150" lon="2.512200570">
        <ele>231.81</ele>
        <time>2016-03-27T08:38:57Z</time>
      </trkpt>
      <trkpt lat="41.594012650" lon="2.512134520">
        <ele>232.78</ele>
        <time>2016-03-27T08:39:03Z</time>
      </trkpt>
      <trkpt lat="41.593901170" lon="2.512085160">
        <ele>233.74</ele>
        <time>2016-03-27T08:39:11Z</time>
      </trkpt>
      <trkpt lat="41.593889520" lon="2.512076940">
        <ele>233.74</ele>
        <time>2016-03-27T08:39:12Z</time>
      </trkpt>
      <trkpt lat="41.593839900" lon="2.512082220">
        <ele>234.22</ele>
        <time>2016-03-27T08:39:16Z</time>
      </trkpt>
      <trkpt lat="41.593735880" lon="2.512047520">
        <ele>235.18</ele>
        <time>2016-03-27T08:39:24Z</time>
      </trkpt>
      <trkpt lat="41.593702430" lon="2.512041070">
        <ele>235.66</ele>
        <time>2016-03-27T08:39:26Z</time>
      </trkpt>
      <trkpt lat="41.593619870" lon="2.511939230">
        <ele>236.62</ele>
        <time>2016-03-27T08:39:34Z</time>
      </trkpt>
      <trkpt lat="41.593580640" lon="2.511796820">
        <ele>237.58</ele>
        <time>2016-03-27T08:39:42Z</time>
      </trkpt>
      <trkpt lat="41.593548620" lon="2.511726410">
        <ele>237.58</ele>
        <time>2016-03-27T08:39:46Z</time>
      </trkpt>
      <trkpt lat="41.593502360" lon="2.511526170">
        <ele>238.54</ele>
        <time>2016-03-27T08:39:56Z</time>
      </trkpt>
      <trkpt lat="41.593500680" lon="2.511435730">
        <ele>239.02</ele>
        <time>2016-03-27T08:40:00Z</time>
      </trkpt>
      <trkpt lat="41.593492720" lon="2.511243190">
        <ele>239.99</ele>
        <time>2016-03-27T08:40:09Z</time>
      </trkpt>
      <trkpt lat="41.593481320" lon="2.511027950">
        <ele>240.47</ele>
        <time>2016-03-27T08:40:19Z</time>
      </trkpt>
      <trkpt lat="41.593464550" lon="2.510846060">
        <ele>241.91</ele>
        <time>2016-03-27T08:40:28Z</time>
      </trkpt>
      <trkpt lat="41.593452650" lon="2.510662910">
        <ele>243.35</ele>
        <time>2016-03-27T08:40:37Z</time>
      </trkpt>
      <trkpt lat="41.593403370" lon="2.510482450">
        <ele>244.31</ele>
        <time>2016-03-27T08:40:45Z</time>
      </trkpt>
      <trkpt lat="41.593377470" lon="2.510445150">
        <ele>244.79</ele>
        <time>2016-03-27T08:40:47Z</time>
      </trkpt>
      <trkpt lat="41.593293810" lon="2.510432750">
        <ele>245.75</ele>
        <time>2016-03-27T08:40:54Z</time>
      </trkpt>
      <trkpt lat="41.593257860" lon="2.510487150">
        <ele>246.72</ele>
        <time>2016-03-27T08:40:59Z</time>
      </trkpt>
      <trkpt lat="41.593187950" lon="2.510581940">
        <ele>247.68</ele>
        <time>2016-03-27T08:41:06Z</time>
      </trkpt>
      <trkpt lat="41.593121990" lon="2.510690070">
        <ele>248.64</ele>
        <time>2016-03-27T08:41:13Z</time>
      </trkpt>
      <trkpt lat="41.593045210" lon="2.510790320">
        <ele>250.08</ele>
        <time>2016-03-27T08:41:21Z</time>
      </trkpt>
      <trkpt lat="41.592988710" lon="2.510838510">
        <ele>251.04</ele>
        <time>2016-03-27T08:41:26Z</time>
      </trkpt>
      <trkpt lat="41.592939180" lon="2.510815300">
        <ele>251.52</ele>
        <time>2016-03-27T08:41:30Z</time>
      </trkpt>
      <trkpt lat="41.592930290" lon="2.510704660">
        <ele>253.93</ele>
        <time>2016-03-27T08:41:38Z</time>
      </trkpt>
      <trkpt lat="41.592923000" lon="2.510673640">
        <ele>253.93</ele>
        <time>2016-03-27T08:41:40Z</time>
      </trkpt>
      <trkpt lat="41.592928450" lon="2.510578840">
        <ele>255.37</ele>
        <time>2016-03-27T08:41:46Z</time>
      </trkpt>
      <trkpt lat="41.592923750" lon="2.510533750">
        <ele>256.33</ele>
        <time>2016-03-27T08:41:49Z</time>
      </trkpt>
      <trkpt lat="41.592915200" lon="2.510412460">
        <ele>257.77</ele>
        <time>2016-03-27T08:41:58Z</time>
      </trkpt>
      <trkpt lat="41.592929870" lon="2.510322020">
        <ele>259.69</ele>
        <time>2016-03-27T08:42:05Z</time>
      </trkpt>
      <trkpt lat="41.592946720" lon="2.510260160">
        <ele>260.17</ele>
        <time>2016-03-27T08:42:08Z</time>
      </trkpt>
      <trkpt lat="41.592968430" lon="2.510141390">
        <ele>261.62</ele>
        <time>2016-03-27T08:42:14Z</time>
      </trkpt>
      <trkpt lat="41.592959710" lon="2.510090770">
        <ele>262.10</ele>
        <time>2016-03-27T08:42:17Z</time>
      </trkpt>
      <trkpt lat="41.592968930" lon="2.509965200">
        <ele>263.06</ele>
        <time>2016-03-27T08:42:25Z</time>
      </trkpt>
      <trkpt lat="41.592971200" lon="2.509948610">
        <ele>263.06</ele>
        <time>2016-03-27T08:42:26Z</time>
      </trkpt>
      <trkpt lat="41.592992900" lon="2.509860100">
        <ele>264.02</ele>
        <time>2016-03-27T08:42:30Z</time>
      </trkpt>
      <trkpt lat="41.593015950" lon="2.509724730">
        <ele>264.02</ele>
        <time>2016-03-27T08:42:37Z</time>
      </trkpt>
      <trkpt lat="41.593006820" lon="2.509634370">
        <ele>264.98</ele>
        <time>2016-03-27T08:42:44Z</time>
      </trkpt>
      <trkpt lat="41.592995080" lon="2.509534540">
        <ele>265.94</ele>
        <time>2016-03-27T08:42:49Z</time>
      </trkpt>
      <trkpt lat="41.593060460" lon="2.509358020">
        <ele>265.94</ele>
        <time>2016-03-27T08:42:56Z</time>
      </trkpt>
      <trkpt lat="41.593088120" lon="2.509172280">
        <ele>266.90</ele>
        <time>2016-03-27T08:43:05Z</time>
      </trkpt>
      <trkpt lat="41.593013940" lon="2.509002540">
        <ele>268.35</ele>
        <time>2016-03-27T08:43:15Z</time>
      </trkpt>
      <trkpt lat="41.592859880" lon="2.508946720">
        <ele>268.35</ele>
        <time>2016-03-27T08:43:24Z</time>
      </trkpt>
      <trkpt lat="41.592828280" lon="2.508927440">
        <ele>268.35</ele>
        <time>2016-03-27T08:43:26Z</time>
      </trkpt>
      <trkpt lat="41.592747650" lon="2.508802470">
        <ele>268.83</ele>
        <time>2016-03-27T08:43:32Z</time>
      </trkpt>
      <trkpt lat="41.592703730" lon="2.508757540">
        <ele>268.83</ele>
        <time>2016-03-27T08:43:34Z</time>
      </trkpt>
      <trkpt lat="41.592558970" lon="2.508774390">
        <ele>267.38</ele>
        <time>2016-03-27T08:43:39Z</time>
      </trkpt>
      <trkpt lat="41.592538860" lon="2.508746480">
        <ele>267.38</ele>
        <time>2016-03-27T08:43:40Z</time>
      </trkpt>
      <trkpt lat="41.592462410" lon="2.508563500">
        <ele>265.94</ele>
        <time>2016-03-27T08:43:44Z</time>
      </trkpt>
      <trkpt lat="41.592345910" lon="2.508401640">
        <ele>265.94</ele>
        <time>2016-03-27T08:43:48Z</time>
      </trkpt>
      <trkpt lat="41.592240960" lon="2.508221270">
        <ele>265.94</ele>
        <time>2016-03-27T08:43:53Z</time>
      </trkpt>
      <trkpt lat="41.592132420" lon="2.508190340">
        <ele>265.94</ele>
        <time>2016-03-27T08:43:57Z</time>
      </trkpt>
      <trkpt lat="41.591946510" lon="2.508162260">
        <ele>265.94</ele>
        <time>2016-03-27T08:44:04Z</time>
      </trkpt>
      <trkpt lat="41.591860680" lon="2.508058910">
        <ele>265.94</ele>
        <time>2016-03-27T08:44:09Z</time>
      </trkpt>
      <trkpt lat="41.591805100" lon="2.508022200">
        <ele>266.90</ele>
        <time>2016-03-27T08:44:12Z</time>
      </trkpt>
      <trkpt lat="41.591656410" lon="2.507969720">
        <ele>267.38</ele>
        <time>2016-03-27T08:44:19Z</time>
      </trkpt>
      <trkpt lat="41.591505120" lon="2.507868640">
        <ele>268.83</ele>
        <time>2016-03-27T08:44:27Z</time>
      </trkpt>
      <trkpt lat="41.591447370" lon="2.507812900">
        <ele>269.31</ele>
        <time>2016-03-27T08:44:31Z</time>
      </trkpt>
      <trkpt lat="41.591422220" lon="2.507794880">
        <ele>269.79</ele>
        <time>2016-03-27T08:44:33Z</time>
      </trkpt>
      <trkpt lat="41.591354830" lon="2.507698570">
        <ele>271.23</ele>
        <time>2016-03-27T08:44:41Z</time>
      </trkpt>
      <trkpt lat="41.591282580" lon="2.507617520">
        <ele>272.19</ele>
        <time>2016-03-27T08:44:47Z</time>
      </trkpt>
      <trkpt lat="41.591222310" lon="2.507542750">
        <ele>272.67</ele>
        <time>2016-03-27T08:44:52Z</time>
      </trkpt>
      <trkpt lat="41.591183590" lon="2.507513500">
        <ele>273.15</ele>
        <time>2016-03-27T08:44:55Z</time>
      </trkpt>
      <trkpt lat="41.591107060" lon="2.507509470">
        <ele>273.63</ele>
        <time>2016-03-27T08:45:01Z</time>
      </trkpt>
      <trkpt lat="41.590980410" lon="2.507601170">
        <ele>274.11</ele>
        <time>2016-03-27T08:45:10Z</time>
      </trkpt>
      <trkpt lat="41.590850240" lon="2.507645510">
        <ele>275.07</ele>
        <time>2016-03-27T08:45:18Z</time>
      </trkpt>
      <trkpt lat="41.590702550" lon="2.507708040">
        <ele>277.00</ele>
        <time>2016-03-27T08:45:27Z</time>
      </trkpt>
      <trkpt lat="41.590524180" lon="2.507754900">
        <ele>277.48</ele>
        <time>2016-03-27T08:45:36Z</time>
      </trkpt>
      <trkpt lat="41.590271970" lon="2.507864870">
        <ele>277.48</ele>
        <time>2016-03-27T08:45:45Z</time>
      </trkpt>
      <trkpt lat="41.590095700" lon="2.507947760">
        <ele>277.96</ele>
        <time>2016-03-27T08:45:53Z</time>
      </trkpt>
      <trkpt lat="41.590020430" lon="2.507980290">
        <ele>277.96</ele>
        <time>2016-03-27T08:45:58Z</time>
      </trkpt>
      <trkpt lat="41.589946670" lon="2.508087490">
        <ele>276.52</ele>
        <time>2016-03-27T08:46:03Z</time>
      </trkpt>
      <trkpt lat="41.589891100" lon="2.508142220">
        <ele>276.04</ele>
        <time>2016-03-27T08:46:07Z</time>
      </trkpt>
      <trkpt lat="41.589799320" lon="2.508076850">
        <ele>277.96</ele>
        <time>2016-03-27T08:46:14Z</time>
      </trkpt>
      <trkpt lat="41.589742490" lon="2.507991100">
        <ele>278.44</ele>
        <time>2016-03-27T08:46:22Z</time>
      </trkpt>
      <trkpt lat="41.589732510" lon="2.507991100">
        <ele>278.44</ele>
        <time>2016-03-27T08:46:35Z</time>
      </trkpt>
      <trkpt lat="41.589726480" lon="2.507999060">
        <ele>278.44</ele>
        <time>2016-03-27T08:46:51Z</time>
      </trkpt>
      <trkpt lat="41.589716590" lon="2.507991180">
        <ele>278.44</ele>
        <time>2016-03-27T08:47:05Z</time>
      </trkpt>
      <trkpt lat="41.589664700" lon="2.507906270">
        <ele>278.44</ele>
        <time>2016-03-27T08:47:11Z</time>
      </trkpt>
      <trkpt lat="41.589599830" lon="2.507809550">
        <ele>278.44</ele>
        <time>2016-03-27T08:47:15Z</time>
      </trkpt>
      <trkpt lat="41.589424140" lon="2.507502180">
        <ele>278.44</ele>
        <time>2016-03-27T08:47:25Z</time>
      </trkpt>
      <trkpt lat="41.589420790" lon="2.507324990">
        <ele>278.92</ele>
        <time>2016-03-27T08:47:32Z</time>
      </trkpt>
      <trkpt lat="41.589393550" lon="2.507152490">
        <ele>278.92</ele>
        <time>2016-03-27T08:47:37Z</time>
      </trkpt>
      <trkpt lat="41.589392210" lon="2.507072530">
        <ele>279.88</ele>
        <time>2016-03-27T08:47:41Z</time>
      </trkpt>
      <trkpt lat="41.589346190" lon="2.506973950">
        <ele>280.36</ele>
        <time>2016-03-27T08:47:47Z</time>
      </trkpt>
      <trkpt lat="41.589338650" lon="2.506935650">
        <ele>280.84</ele>
        <time>2016-03-27T08:47:49Z</time>
      </trkpt>
      <trkpt lat="41.589343680" lon="2.506862560">
        <ele>281.32</ele>
        <time>2016-03-27T08:47:53Z</time>
      </trkpt>
      <trkpt lat="41.589365300" lon="2.506786280">
        <ele>282.28</ele>
        <time>2016-03-27T08:47:57Z</time>
      </trkpt>
      <trkpt lat="41.589475020" lon="2.506662650">
        <ele>284.69</ele>
        <time>2016-03-27T08:48:07Z</time>
      </trkpt>
      <trkpt lat="41.589581300" lon="2.506619320">
        <ele>284.69</ele>
        <time>2016-03-27T08:48:15Z</time>
      </trkpt>
      <trkpt lat="41.589612060" lon="2.506619650">
        <ele>285.65</ele>
        <time>2016-03-27T08:48:17Z</time>
      </trkpt>
      <trkpt lat="41.589666970" lon="2.506582690">
        <ele>285.65</ele>
        <time>2016-03-27T08:48:21Z</time>
      </trkpt>
      <trkpt lat="41.589682560" lon="2.506547230">
        <ele>286.13</ele>
        <time>2016-03-27T08:48:23Z</time>
      </trkpt>
      <trkpt lat="41.589726140" lon="2.506491160">
        <ele>286.61</ele>
        <time>2016-03-27T08:48:27Z</time>
      </trkpt>
      <trkpt lat="41.589750110" lon="2.506464920">
        <ele>286.61</ele>
        <time>2016-03-27T08:48:29Z</time>
      </trkpt>
      <trkpt lat="41.589801080" lon="2.506444300">
        <ele>287.57</ele>
        <time>2016-03-27T08:48:35Z</time>
      </trkpt>
      <trkpt lat="41.589800150" lon="2.506438850">
        <ele>287.57</ele>
        <time>2016-03-27T08:48:43Z</time>
      </trkpt>
      <trkpt lat="41.589817500" lon="2.506425530">
        <ele>288.05</ele>
        <time>2016-03-27T08:48:50Z</time>
      </trkpt>
      <trkpt lat="41.589849440" lon="2.506394350">
        <ele>288.05</ele>
        <time>2016-03-27T08:48:57Z</time>
      </trkpt>
      <trkpt lat="41.589880790" lon="2.506362080">
        <ele>288.53</ele>
        <time>2016-03-27T08:49:05Z</time>
      </trkpt>
      <trkpt lat="41.589889840" lon="2.506347570">
        <ele>289.49</ele>
        <time>2016-03-27T08:49:10Z</time>
      </trkpt>
      <trkpt lat="41.589904930" lon="2.506337680">
        <ele>289.49</ele>
        <time>2016-03-27T08:49:22Z</time>
      </trkpt>
      <trkpt lat="41.589941050" lon="2.506294520">
        <ele>289.97</ele>
        <time>2016-03-27T08:49:29Z</time>
      </trkpt>
      <trkpt lat="41.589961510" lon="2.506268950">
        <ele>289.97</ele>
        <time>2016-03-27T08:49:34Z</time>
      </trkpt>
      <trkpt lat="41.589976010" lon="2.506242050">
        <ele>289.97</ele>
        <time>2016-03-27T08:49:40Z</time>
      </trkpt>
      <trkpt lat="41.590006350" lon="2.506175750">
        <ele>290.46</ele>
        <time>2016-03-27T08:49:46Z</time>
      </trkpt>
      <trkpt lat="41.590014810" lon="2.506125540">
        <ele>291.42</ele>
        <time>2016-03-27T08:49:49Z</time>
      </trkpt>
      <trkpt lat="41.590009620" lon="2.506027720">
        <ele>292.38</ele>
        <time>2016-03-27T08:49:56Z</time>
      </trkpt>
      <trkpt lat="41.589998130" lon="2.506016410">
        <ele>292.38</ele>
        <time>2016-03-27T08:49:59Z</time>
      </trkpt>
      <trkpt lat="41.589913730" lon="2.505959330">
        <ele>292.38</ele>
        <time>2016-03-27T08:50:07Z</time>
      </trkpt>
      <trkpt lat="41.589843820" lon="2.505949940">
        <ele>290.94</ele>
        <time>2016-03-27T08:50:12Z</time>
      </trkpt>
      <trkpt lat="41.589753800" lon="2.506024960">
        <ele>289.49</ele>
        <time>2016-03-27T08:50:19Z</time>
      </trkpt>
      <trkpt lat="41.589732010" lon="2.506082040">
        <ele>289.01</ele>
        <time>2016-03-27T08:50:22Z</time>
      </trkpt>
      <trkpt lat="41.589675350" lon="2.506164350">
        <ele>287.57</ele>
        <time>2016-03-27T08:50:25Z</time>
      </trkpt>
      <trkpt lat="41.589616090" lon="2.506239030">
        <ele>286.13</ele>
        <time>2016-03-27T08:50:27Z</time>
      </trkpt>
      <trkpt lat="41.589478040" lon="2.506356630">
        <ele>284.69</ele>
        <time>2016-03-27T08:50:33Z</time>
      </trkpt>
      <trkpt lat="41.589394890" lon="2.506468530">
        <ele>283.25</ele>
        <time>2016-03-27T08:50:39Z</time>
      </trkpt>
      <trkpt lat="41.589357420" lon="2.506406830">
        <ele>282.77</ele>
        <time>2016-03-27T08:50:46Z</time>
      </trkpt>
      <trkpt lat="41.589409720" lon="2.506298880">
        <ele>279.88</ele>
        <time>2016-03-27T08:50:51Z</time>
      </trkpt>
      <trkpt lat="41.589492620" lon="2.505997970">
        <ele>277.48</ele>
        <time>2016-03-27T08:50:58Z</time>
      </trkpt>
      <trkpt lat="41.589547520" lon="2.505758910">
        <ele>276.52</ele>
        <time>2016-03-27T08:51:03Z</time>
      </trkpt>
      <trkpt lat="41.589545430" lon="2.505721360">
        <ele>276.04</ele>
        <time>2016-03-27T08:51:04Z</time>
      </trkpt>
      <trkpt lat="41.589577780" lon="2.505607120">
        <ele>276.04</ele>
        <time>2016-03-27T08:51:09Z</time>
      </trkpt>
      <trkpt lat="41.589605940" lon="2.505509640">
        <ele>276.04</ele>
        <time>2016-03-27T08:51:15Z</time>
      </trkpt>
      <trkpt lat="41.589569820" lon="2.505475020">
        <ele>275.56</ele>
        <time>2016-03-27T08:51:19Z</time>
      </trkpt>
      <trkpt lat="41.589507630" lon="2.505405280">
        <ele>275.07</ele>
        <time>2016-03-27T08:51:23Z</time>
      </trkpt>
      <trkpt lat="41.589367400" lon="2.505290620">
        <ele>275.07</ele>
        <time>2016-03-27T08:51:31Z</time>
      </trkpt>
      <trkpt lat="41.589259020" lon="2.505199000">
        <ele>276.52</ele>
        <time>2016-03-27T08:51:39Z</time>
      </trkpt>
      <trkpt lat="41.589196740" lon="2.505104200">
        <ele>279.88</ele>
        <time>2016-03-27T08:51:47Z</time>
      </trkpt>
      <trkpt lat="41.589136390" lon="2.505081070">
        <ele>280.36</ele>
        <time>2016-03-27T08:51:51Z</time>
      </trkpt>
      <trkpt lat="41.588997920" lon="2.505056430">
        <ele>282.77</ele>
        <time>2016-03-27T08:52:01Z</time>
      </trkpt>
      <trkpt lat="41.588898930" lon="2.505039160">
        <ele>284.21</ele>
        <time>2016-03-27T08:52:09Z</time>
      </trkpt>
      <trkpt lat="41.588865490" lon="2.504971350">
        <ele>285.65</ele>
        <time>2016-03-27T08:52:16Z</time>
      </trkpt>
      <trkpt lat="41.588863390" lon="2.504955170">
        <ele>286.13</ele>
        <time>2016-03-27T08:52:23Z</time>
      </trkpt>
      <trkpt lat="41.588865660" lon="2.504954250">
        <ele>287.57</ele>
        <time>2016-03-27T08:52:35Z</time>
      </trkpt>
      <trkpt lat="41.588892310" lon="2.504946200">
        <ele>289.01</ele>
        <time>2016-03-27T08:52:45Z</time>
      </trkpt>
      <trkpt lat="41.588931450" lon="2.504914020">
        <ele>289.97</ele>
        <time>2016-03-27T08:52:53Z</time>
      </trkpt>
      <trkpt lat="41.588982080" lon="2.504883000">
        <ele>290.94</ele>
        <time>2016-03-27T08:53:01Z</time>
      </trkpt>
      <trkpt lat="41.589009150" lon="2.504863140">
        <ele>291.42</ele>
        <time>2016-03-27T08:53:09Z</time>
      </trkpt>
      <trkpt lat="41.589054000" lon="2.504850400">
        <ele>291.90</ele>
        <time>2016-03-27T08:53:23Z</time>
      </trkpt>
      <trkpt lat="41.589111920" lon="2.504817120">
        <ele>293.82</ele>
        <time>2016-03-27T08:53:30Z</time>
      </trkpt>
      <trkpt lat="41.589134380" lon="2.504786280">
        <ele>293.82</ele>
        <time>2016-03-27T08:53:33Z</time>
      </trkpt>
      <trkpt lat="41.589241750" lon="2.504728780">
        <ele>296.22</ele>
        <time>2016-03-27T08:53:44Z</time>
      </trkpt>
      <trkpt lat="41.589304870" lon="2.504720560">
        <ele>298.15</ele>
        <time>2016-03-27T08:53:51Z</time>
      </trkpt>
      <trkpt lat="41.589319870" lon="2.504675470">
        <ele>299.11</ele>
        <time>2016-03-27T08:53:55Z</time>
      </trkpt>
      <trkpt lat="41.589303610" lon="2.504593070">
        <ele>300.55</ele>
        <time>2016-03-27T08:54:02Z</time>
      </trkpt>
      <trkpt lat="41.589292290" lon="2.504563820">
        <ele>301.03</ele>
        <time>2016-03-27T08:54:05Z</time>
      </trkpt>
      <trkpt lat="41.589263210" lon="2.504534150">
        <ele>301.51</ele>
        <time>2016-03-27T08:54:09Z</time>
      </trkpt>
      <trkpt lat="41.589147540" lon="2.504517130">
        <ele>302.95</ele>
        <time>2016-03-27T08:54:19Z</time>
      </trkpt>
      <trkpt lat="41.589030440" lon="2.504497520">
        <ele>303.91</ele>
        <time>2016-03-27T08:54:28Z</time>
      </trkpt>
      <trkpt lat="41.588986190" lon="2.504482520">
        <ele>303.91</ele>
        <time>2016-03-27T08:54:32Z</time>
      </trkpt>
      <trkpt lat="41.588908910" lon="2.504381930">
        <ele>304.88</ele>
        <time>2016-03-27T08:54:40Z</time>
      </trkpt>
      <trkpt lat="41.588898340" lon="2.504351010">
        <ele>304.88</ele>
        <time>2016-03-27T08:54:43Z</time>
      </trkpt>
      <trkpt lat="41.588839000" lon="2.504287470">
        <ele>305.36</ele>
        <time>2016-03-27T08:54:50Z</time>
      </trkpt>
      <trkpt lat="41.588774800" lon="2.504187060">
        <ele>305.36</ele>
        <time>2016-03-27T08:54:58Z</time>
      </trkpt>
      <trkpt lat="41.588760210" lon="2.504171800">
        <ele>305.84</ele>
        <time>2016-03-27T08:55:01Z</time>
      </trkpt>
      <trkpt lat="41.588651080" lon="2.504141630">
        <ele>304.39</ele>
        <time>2016-03-27T08:55:07Z</time>
      </trkpt>
      <trkpt lat="41.588582770" lon="2.504100300">
        <ele>303.91</ele>
        <time>2016-03-27T08:55:13Z</time>
      </trkpt>
      <trkpt lat="41.588530630" lon="2.503990920">
        <ele>301.99</ele>
        <time>2016-03-27T08:55:18Z</time>
      </trkpt>
      <trkpt lat="41.588538930" lon="2.503896870">
        <ele>301.99</ele>
        <time>2016-03-27T08:55:23Z</time>
      </trkpt>
      <trkpt lat="41.588563320" lon="2.503860660">
        <ele>303.43</ele>
        <time>2016-03-27T08:55:27Z</time>
      </trkpt>
      <trkpt lat="41.588617630" lon="2.503665870">
        <ele>300.07</ele>
        <time>2016-03-27T08:55:34Z</time>
      </trkpt>
      <trkpt lat="41.588647220" lon="2.503587160">
        <ele>298.63</ele>
        <time>2016-03-27T08:55:36Z</time>
      </trkpt>
      <trkpt lat="41.588688710" lon="2.503464870">
        <ele>297.18</ele>
        <time>2016-03-27T08:55:41Z</time>
      </trkpt>
      <trkpt lat="41.588632050" lon="2.503430250">
        <ele>296.22</ele>
        <time>2016-03-27T08:55:44Z</time>
      </trkpt>
      <trkpt lat="41.588514120" lon="2.503382480">
        <ele>293.82</ele>
        <time>2016-03-27T08:55:52Z</time>
      </trkpt>
      <trkpt lat="41.588427450" lon="2.503389350">
        <ele>290.94</ele>
        <time>2016-03-27T08:55:57Z</time>
      </trkpt>
      <trkpt lat="41.588413790" lon="2.503397730">
        <ele>290.94</ele>
        <time>2016-03-27T08:55:58Z</time>
      </trkpt>
      <trkpt lat="41.588282020" lon="2.503425310">
        <ele>286.13</ele>
        <time>2016-03-27T08:56:05Z</time>
      </trkpt>
      <trkpt lat="41.588213710" lon="2.503388930">
        <ele>286.61</ele>
        <time>2016-03-27T08:56:13Z</time>
      </trkpt>
      <trkpt lat="41.588199380" lon="2.503394630">
        <ele>286.61</ele>
        <time>2016-03-27T08:56:25Z</time>
      </trkpt>
      <trkpt lat="41.588182280" lon="2.503387340">
        <ele>286.61</ele>
        <time>2016-03-27T08:56:36Z</time>
      </trkpt>
      <trkpt lat="41.588133750" lon="2.503344090">
        <ele>288.05</ele>
        <time>2016-03-27T08:56:43Z</time>
      </trkpt>
      <trkpt lat="41.588053280" lon="2.503242670">
        <ele>289.49</ele>
        <time>2016-03-27T08:56:52Z</time>
      </trkpt>
      <trkpt lat="41.587952610" lon="2.503123390">
        <ele>291.42</ele>
        <time>2016-03-27T08:57:01Z</time>
      </trkpt>
      <trkpt lat="41.587879270" lon="2.503017780">
        <ele>292.38</ele>
        <time>2016-03-27T08:57:09Z</time>
      </trkpt>
      <trkpt lat="41.587891010" lon="2.502835730">
        <ele>294.78</ele>
        <time>2016-03-27T08:57:19Z</time>
      </trkpt>
      <trkpt lat="41.587907180" lon="2.502688120">
        <ele>296.22</ele>
        <time>2016-03-27T08:57:29Z</time>
      </trkpt>
      <trkpt lat="41.587927890" lon="2.502649480">
        <ele>297.67</ele>
        <time>2016-03-27T08:57:36Z</time>
      </trkpt>
      <trkpt lat="41.587953870" lon="2.502619720">
        <ele>299.11</ele>
        <time>2016-03-27T08:57:44Z</time>
      </trkpt>
      <trkpt lat="41.587972650" lon="2.502592730">
        <ele>299.11</ele>
        <time>2016-03-27T08:57:54Z</time>
      </trkpt>
      <trkpt lat="41.587970550" lon="2.502581920">
        <ele>299.11</ele>
        <time>2016-03-27T08:58:07Z</time>
      </trkpt>
      <trkpt lat="41.587969800" lon="2.502582000">
        <ele>299.11</ele>
        <time>2016-03-27T08:58:17Z</time>
      </trkpt>
      <trkpt lat="41.587974160" lon="2.502590720">
        <ele>299.11</ele>
        <time>2016-03-27T08:58:22Z</time>
      </trkpt>
      <trkpt lat="41.588052280" lon="2.502557780">
        <ele>299.11</ele>
        <time>2016-03-27T08:58:30Z</time>
      </trkpt>
      <trkpt lat="41.588063670" lon="2.502545540">
        <ele>299.59</ele>
        <time>2016-03-27T08:58:39Z</time>
      </trkpt>
      <trkpt lat="41.588078850" lon="2.502550150">
        <ele>299.59</ele>
        <time>2016-03-27T08:58:49Z</time>
      </trkpt>
      <trkpt lat="41.588070550" lon="2.502531880">
        <ele>299.59</ele>
        <time>2016-03-27T08:58:56Z</time>
      </trkpt>
      <trkpt lat="41.588085470" lon="2.502517380">
        <ele>300.07</ele>
        <time>2016-03-27T08:59:03Z</time>
      </trkpt>
      <trkpt lat="41.588102150" lon="2.502527690">
        <ele>300.07</ele>
        <time>2016-03-27T08:59:20Z</time>
      </trkpt>
      <trkpt lat="41.588121340" lon="2.502510930">
        <ele>300.07</ele>
        <time>2016-03-27T08:59:38Z</time>
      </trkpt>
      <trkpt lat="41.588128130" lon="2.502513440">
        <ele>300.07</ele>
        <time>2016-03-27T08:59:54Z</time>
      </trkpt>
      <trkpt lat="41.588119250" lon="2.502540600">
        <ele>300.07</ele>
        <time>2016-03-27T09:00:22Z</time>
      </trkpt>
      <trkpt lat="41.588122260" lon="2.502548480">
        <ele>300.07</ele>
        <time>2016-03-27T09:00:43Z</time>
      </trkpt>
      <trkpt lat="41.588110610" lon="2.502543030">
        <ele>300.07</ele>
        <time>2016-03-27T09:00:59Z</time>
      </trkpt>
      <trkpt lat="41.588111280" lon="2.502548900">
        <ele>300.07</ele>
        <time>2016-03-27T09:01:08Z</time>
      </trkpt>
      <trkpt lat="41.588105920" lon="2.502539680">
        <ele>300.07</ele>
        <time>2016-03-27T09:01:34Z</time>
      </trkpt>
      <trkpt lat="41.588102820" lon="2.502542440">
        <ele>300.07</ele>
        <time>2016-03-27T09:01:56Z</time>
      </trkpt>
      <trkpt lat="41.588113130" lon="2.502535230">
        <ele>300.07</ele>
        <time>2016-03-27T09:02:13Z</time>
      </trkpt>
      <trkpt lat="41.588124110" lon="2.502517970">
        <ele>300.07</ele>
        <time>2016-03-27T09:02:31Z</time>
      </trkpt>
      <trkpt lat="41.588111950" lon="2.502535900">
        <ele>300.07</ele>
        <time>2016-03-27T09:02:52Z</time>
      </trkpt>
      <trkpt lat="41.588081440" lon="2.502524920">
        <ele>300.07</ele>
        <time>2016-03-27T09:02:59Z</time>
      </trkpt>
      <trkpt lat="41.588077420" lon="2.502526600">
        <ele>300.07</ele>
        <time>2016-03-27T09:03:07Z</time>
      </trkpt>
      <trkpt lat="41.588101900" lon="2.502525340">
        <ele>300.07</ele>
        <time>2016-03-27T09:03:15Z</time>
      </trkpt>
      <trkpt lat="41.588173310" lon="2.502563980">
        <ele>300.55</ele>
        <time>2016-03-27T09:03:22Z</time>
      </trkpt>
      <trkpt lat="41.588240950" lon="2.502608660">
        <ele>302.47</ele>
        <time>2016-03-27T09:03:31Z</time>
      </trkpt>
      <trkpt lat="41.588241370" lon="2.502609250">
        <ele>302.95</ele>
        <time>2016-03-27T09:03:36Z</time>
      </trkpt>
      <trkpt lat="41.588227540" lon="2.502602460">
        <ele>302.95</ele>
        <time>2016-03-27T09:03:41Z</time>
      </trkpt>
      <trkpt lat="41.588160230" lon="2.502553250">
        <ele>300.55</ele>
        <time>2016-03-27T09:03:47Z</time>
      </trkpt>
      <trkpt lat="41.588193430" lon="2.502486200">
        <ele>300.07</ele>
        <time>2016-03-27T09:03:55Z</time>
      </trkpt>
      <trkpt lat="41.588203650" lon="2.502466920">
        <ele>300.07</ele>
        <time>2016-03-27T09:03:57Z</time>
      </trkpt>
      <trkpt lat="41.588278750" lon="2.502377910">
        <ele>302.47</ele>
        <time>2016-03-27T09:04:06Z</time>
      </trkpt>
      <trkpt lat="41.588353440" lon="2.502286460">
        <ele>303.91</ele>
        <time>2016-03-27T09:04:14Z</time>
      </trkpt>
      <trkpt lat="41.588357800" lon="2.502276990">
        <ele>303.91</ele>
        <time>2016-03-27T09:04:15Z</time>
      </trkpt>
      <trkpt lat="41.588398700" lon="2.502127620">
        <ele>306.80</ele>
        <time>2016-03-27T09:04:26Z</time>
      </trkpt>
      <trkpt lat="41.588446730" lon="2.502002730">
        <ele>307.76</ele>
        <time>2016-03-27T09:04:35Z</time>
      </trkpt>
      <trkpt lat="41.588532140" lon="2.501855040">
        <ele>310.16</ele>
        <time>2016-03-27T09:04:47Z</time>
      </trkpt>
      <trkpt lat="41.588607070" lon="2.501750440">
        <ele>311.60</ele>
        <time>2016-03-27T09:04:56Z</time>
      </trkpt>
      <trkpt lat="41.588667000" lon="2.501673070">
        <ele>313.05</ele>
        <time>2016-03-27T09:05:04Z</time>
      </trkpt>
      <trkpt lat="41.588724170" lon="2.501632500">
        <ele>314.01</ele>
        <time>2016-03-27T09:05:09Z</time>
      </trkpt>
      <trkpt lat="41.588870270" lon="2.501554470">
        <ele>314.97</ele>
        <time>2016-03-27T09:05:19Z</time>
      </trkpt>
      <trkpt lat="41.588923240" lon="2.501516920">
        <ele>316.41</ele>
        <time>2016-03-27T09:05:24Z</time>
      </trkpt>
      <trkpt lat="41.589008990" lon="2.501394290">
        <ele>316.89</ele>
        <time>2016-03-27T09:05:33Z</time>
      </trkpt>
      <trkpt lat="41.589089120" lon="2.501324470">
        <ele>318.33</ele>
        <time>2016-03-27T09:05:42Z</time>
      </trkpt>
      <trkpt lat="41.589145020" lon="2.501275850">
        <ele>319.30</ele>
        <time>2016-03-27T09:05:47Z</time>
      </trkpt>
      <trkpt lat="41.589189200" lon="2.501197650">
        <ele>319.78</ele>
        <time>2016-03-27T09:05:52Z</time>
      </trkpt>
      <trkpt lat="41.589245270" lon="2.501083150">
        <ele>321.22</ele>
        <time>2016-03-27T09:06:00Z</time>
      </trkpt>
      <trkpt lat="41.589306290" lon="2.500942840">
        <ele>321.70</ele>
        <time>2016-03-27T09:06:09Z</time>
      </trkpt>
      <trkpt lat="41.589354400" lon="2.500944100">
        <ele>322.66</ele>
        <time>2016-03-27T09:06:15Z</time>
      </trkpt>
      <trkpt lat="41.589361110" lon="2.500960020">
        <ele>322.66</ele>
        <time>2016-03-27T09:06:24Z</time>
      </trkpt>
      <trkpt lat="41.589354660" lon="2.500994050">
        <ele>323.62</ele>
        <time>2016-03-27T09:06:31Z</time>
      </trkpt>
      <trkpt lat="41.589353980" lon="2.501039570">
        <ele>324.10</ele>
        <time>2016-03-27T09:06:36Z</time>
      </trkpt>
      <trkpt lat="41.589353570" lon="2.501069160">
        <ele>324.58</ele>
        <time>2016-03-27T09:06:38Z</time>
      </trkpt>
      <trkpt lat="41.589377870" lon="2.501160350">
        <ele>326.50</ele>
        <time>2016-03-27T09:06:45Z</time>
      </trkpt>
      <trkpt lat="41.589408800" lon="2.501229170">
        <ele>328.43</ele>
        <time>2016-03-27T09:06:51Z</time>
      </trkpt>
      <trkpt lat="41.589408970" lon="2.501273760">
        <ele>328.91</ele>
        <time>2016-03-27T09:06:54Z</time>
      </trkpt>
      <trkpt lat="41.589428750" lon="2.501406610">
        <ele>330.35</ele>
        <time>2016-03-27T09:07:03Z</time>
      </trkpt>
      <trkpt lat="41.589446190" lon="2.501501830">
        <ele>330.35</ele>
        <time>2016-03-27T09:07:08Z</time>
      </trkpt>
      <trkpt lat="41.589521120" lon="2.501595960">
        <ele>331.79</ele>
        <time>2016-03-27T09:07:17Z</time>
      </trkpt>
      <trkpt lat="41.589586920" lon="2.501669720">
        <ele>333.23</ele>
        <time>2016-03-27T09:07:26Z</time>
      </trkpt>
      <trkpt lat="41.589657830" lon="2.501724280">
        <ele>334.68</ele>
        <time>2016-03-27T09:07:33Z</time>
      </trkpt>
      <trkpt lat="41.589740310" lon="2.501795030">
        <ele>336.12</ele>
        <time>2016-03-27T09:07:41Z</time>
      </trkpt>
      <trkpt lat="41.589785070" lon="2.501824360">
        <ele>337.56</ele>
        <time>2016-03-27T09:07:47Z</time>
      </trkpt>
      <trkpt lat="41.589832000" lon="2.501811960">
        <ele>338.52</ele>
        <time>2016-03-27T09:07:54Z</time>
      </trkpt>
      <trkpt lat="41.589814490" lon="2.501763600">
        <ele>339.00</ele>
        <time>2016-03-27T09:08:01Z</time>
      </trkpt>
      <trkpt lat="41.589786240" lon="2.501666950">
        <ele>339.00</ele>
        <time>2016-03-27T09:08:08Z</time>
      </trkpt>
      <trkpt lat="41.589786410" lon="2.501653040">
        <ele>339.00</ele>
        <time>2016-03-27T09:08:09Z</time>
      </trkpt>
      <trkpt lat="41.589803670" lon="2.501557150">
        <ele>341.41</ele>
        <time>2016-03-27T09:08:17Z</time>
      </trkpt>
      <trkpt lat="41.589812060" lon="2.501463270">
        <ele>342.85</ele>
        <time>2016-03-27T09:08:25Z</time>
      </trkpt>
      <trkpt lat="41.589854640" lon="2.501446930">
        <ele>344.29</ele>
        <time>2016-03-27T09:08:31Z</time>
      </trkpt>
      <trkpt lat="41.589891180" lon="2.501434770">
        <ele>344.29</ele>
        <time>2016-03-27T09:08:34Z</time>
      </trkpt>
      <trkpt lat="41.589944490" lon="2.501438800">
        <ele>344.29</ele>
        <time>2016-03-27T09:08:38Z</time>
      </trkpt>
      <trkpt lat="41.590030820" lon="2.501417840">
        <ele>345.25</ele>
        <time>2016-03-27T09:08:46Z</time>
      </trkpt>
      <trkpt lat="41.590069380" lon="2.501320700">
        <ele>345.73</ele>
        <time>2016-03-27T09:08:54Z</time>
      </trkpt>
      <trkpt lat="41.590049850" lon="2.501238300">
        <ele>345.73</ele>
        <time>2016-03-27T09:08:59Z</time>
      </trkpt>
      <trkpt lat="41.590039710" lon="2.501120870">
        <ele>346.21</ele>
        <time>2016-03-27T09:09:07Z</time>
      </trkpt>
      <trkpt lat="41.590036610" lon="2.501108470">
        <ele>346.21</ele>
        <time>2016-03-27T09:09:08Z</time>
      </trkpt>
      <trkpt lat="41.589986400" lon="2.500984160">
        <ele>344.29</ele>
        <time>2016-03-27T09:09:14Z</time>
      </trkpt>
      <trkpt lat="41.589988830" lon="2.500907720">
        <ele>342.85</ele>
        <time>2016-03-27T09:09:17Z</time>
      </trkpt>
      <trkpt lat="41.590045490" lon="2.500767070">
        <ele>339.96</ele>
        <time>2016-03-27T09:09:23Z</time>
      </trkpt>
      <trkpt lat="41.590100980" lon="2.500664900">
        <ele>337.56</ele>
        <time>2016-03-27T09:09:28Z</time>
      </trkpt>
      <trkpt lat="41.590150430" lon="2.500620720">
        <ele>336.12</ele>
        <time>2016-03-27T09:09:32Z</time>
      </trkpt>
      <trkpt lat="41.590193770" lon="2.500548720">
        <ele>334.68</ele>
        <time>2016-03-27T09:09:35Z</time>
      </trkpt>
      <trkpt lat="41.590245990" lon="2.500537160">
        <ele>335.64</ele>
        <time>2016-03-27T09:09:40Z</time>
      </trkpt>
      <trkpt lat="41.590331480" lon="2.500489710">
        <ele>338.04</ele>
        <time>2016-03-27T09:09:48Z</time>
      </trkpt>
      <trkpt lat="41.590336090" lon="2.500476720">
        <ele>338.04</ele>
        <time>2016-03-27T09:09:49Z</time>
      </trkpt>
      <trkpt lat="41.590393760" lon="2.500417460">
        <ele>339.00</ele>
        <time>2016-03-27T09:09:55Z</time>
      </trkpt>
      <trkpt lat="41.590464590" lon="2.500399860">
        <ele>339.96</ele>
        <time>2016-03-27T09:10:01Z</time>
      </trkpt>
      <trkpt lat="41.590507590" lon="2.500393070">
        <ele>340.92</ele>
        <time>2016-03-27T09:10:05Z</time>
      </trkpt>
      <trkpt lat="41.590585790" lon="2.500320230">
        <ele>339.48</ele>
        <time>2016-03-27T09:10:10Z</time>
      </trkpt>
      <trkpt lat="41.590654100" lon="2.500148820">
        <ele>337.08</ele>
        <time>2016-03-27T09:10:15Z</time>
      </trkpt>
      <trkpt lat="41.590676650" lon="2.500016470">
        <ele>335.64</ele>
        <time>2016-03-27T09:10:18Z</time>
      </trkpt>
      <trkpt lat="41.590719230" lon="2.499900210">
        <ele>333.71</ele>
        <time>2016-03-27T09:10:23Z</time>
      </trkpt>
      <trkpt lat="41.590822580" lon="2.499725790">
        <ele>330.83</ele>
        <time>2016-03-27T09:10:30Z</time>
      </trkpt>
      <trkpt lat="41.590829950" lon="2.499706760">
        <ele>330.83</ele>
        <time>2016-03-27T09:10:31Z</time>
      </trkpt>
      <trkpt lat="41.590889210" lon="2.499527470">
        <ele>330.83</ele>
        <time>2016-03-27T09:10:39Z</time>
      </trkpt>
      <trkpt lat="41.590934060" lon="2.499465360">
        <ele>331.79</ele>
        <time>2016-03-27T09:10:43Z</time>
      </trkpt>
      <trkpt lat="41.590982840" lon="2.499222620">
        <ele>330.83</ele>
        <time>2016-03-27T09:10:49Z</time>
      </trkpt>
      <trkpt lat="41.590967080" lon="2.499093960">
        <ele>330.83</ele>
        <time>2016-03-27T09:10:55Z</time>
      </trkpt>
      <trkpt lat="41.590929200" lon="2.499062190">
        <ele>332.27</ele>
        <time>2016-03-27T09:10:59Z</time>
      </trkpt>
      <trkpt lat="41.590873460" lon="2.499027410">
        <ele>332.75</ele>
        <time>2016-03-27T09:11:04Z</time>
      </trkpt>
      <trkpt lat="41.590707580" lon="2.499025480">
        <ele>334.20</ele>
        <time>2016-03-27T09:11:14Z</time>
      </trkpt>
      <trkpt lat="41.590638260" lon="2.499020280">
        <ele>334.68</ele>
        <time>2016-03-27T09:11:19Z</time>
      </trkpt>
      <trkpt lat="41.590540530" lon="2.498998410">
        <ele>335.64</ele>
        <time>2016-03-27T09:11:27Z</time>
      </trkpt>
      <trkpt lat="41.590415130" lon="2.498985500">
        <ele>335.64</ele>
        <time>2016-03-27T09:11:33Z</time>
      </trkpt>
      <trkpt lat="41.590311950" lon="2.498924230">
        <ele>335.64</ele>
        <time>2016-03-27T09:11:38Z</time>
      </trkpt>
      <trkpt lat="41.590206260" lon="2.498836130">
        <ele>335.64</ele>
        <time>2016-03-27T09:11:44Z</time>
      </trkpt>
      <trkpt lat="41.590127380" lon="2.498767820">
        <ele>335.64</ele>
        <time>2016-03-27T09:11:49Z</time>
      </trkpt>
      <trkpt lat="41.590013310" lon="2.498684000">
        <ele>336.60</ele>
        <time>2016-03-27T09:11:57Z</time>
      </trkpt>
      <trkpt lat="41.589931500" lon="2.498595240">
        <ele>339.00</ele>
        <time>2016-03-27T09:12:04Z</time>
      </trkpt>
      <trkpt lat="41.589921860" lon="2.498586770">
        <ele>339.00</ele>
        <time>2016-03-27T09:12:05Z</time>
      </trkpt>
      <trkpt lat="41.589804430" lon="2.498559360">
        <ele>340.44</ele>
        <time>2016-03-27T09:12:14Z</time>
      </trkpt>
      <trkpt lat="41.589681970" lon="2.498525830">
        <ele>341.41</ele>
        <time>2016-03-27T09:12:21Z</time>
      </trkpt>
      <trkpt lat="41.589618690" lon="2.498485350">
        <ele>341.41</ele>
        <time>2016-03-27T09:12:23Z</time>
      </trkpt>
      <trkpt lat="41.589500840" lon="2.498406480">
        <ele>339.96</ele>
        <time>2016-03-27T09:12:29Z</time>
      </trkpt>
      <trkpt lat="41.589484830" lon="2.498386610">
        <ele>339.96</ele>
        <time>2016-03-27T09:12:30Z</time>
      </trkpt>
      <trkpt lat="41.589421960" lon="2.498260210">
        <ele>341.89</ele>
        <time>2016-03-27T09:12:37Z</time>
      </trkpt>
      <trkpt lat="41.589356330" lon="2.498154850">
        <ele>343.81</ele>
        <time>2016-03-27T09:12:45Z</time>
      </trkpt>
      <trkpt lat="41.589345180" lon="2.498128110">
        <ele>344.29</ele>
        <time>2016-03-27T09:12:47Z</time>
      </trkpt>
      <trkpt lat="41.589309230" lon="2.498054770">
        <ele>344.29</ele>
        <time>2016-03-27T09:12:51Z</time>
      </trkpt>
      <trkpt lat="41.589242670" lon="2.497824690">
        <ele>344.29</ele>
        <time>2016-03-27T09:12:57Z</time>
      </trkpt>
      <trkpt lat="41.589242090" lon="2.497733410">
        <ele>345.73</ele>
        <time>2016-03-27T09:13:03Z</time>
      </trkpt>
      <trkpt lat="41.589242340" lon="2.497719830">
        <ele>345.73</ele>
        <time>2016-03-27T09:13:04Z</time>
      </trkpt>
      <trkpt lat="41.589250380" lon="2.497616980">
        <ele>346.69</ele>
        <time>2016-03-27T09:13:10Z</time>
      </trkpt>
      <trkpt lat="41.589255580" lon="2.497368540">
        <ele>346.69</ele>
        <time>2016-03-27T09:13:17Z</time>
      </trkpt>
      <trkpt lat="41.589261450" lon="2.497265450">
        <ele>346.69</ele>
        <time>2016-03-27T09:13:19Z</time>
      </trkpt>
      <trkpt lat="41.589246610" lon="2.497146760">
        <ele>345.25</ele>
        <time>2016-03-27T09:13:21Z</time>
      </trkpt>
      <trkpt lat="41.589163800" lon="2.496842250">
        <ele>345.25</ele>
        <time>2016-03-27T09:13:28Z</time>
      </trkpt>
      <trkpt lat="41.589158520" lon="2.496772510">
        <ele>345.25</ele>
        <time>2016-03-27T09:13:31Z</time>
      </trkpt>
      <trkpt lat="41.589169670" lon="2.496642500">
        <ele>347.65</ele>
        <time>2016-03-27T09:13:39Z</time>
      </trkpt>
      <trkpt lat="41.589177380" lon="2.496518620">
        <ele>349.10</ele>
        <time>2016-03-27T09:13:47Z</time>
      </trkpt>
      <trkpt lat="41.589184000" lon="2.496389540">
        <ele>350.54</ele>
        <time>2016-03-27T09:13:55Z</time>
      </trkpt>
      <trkpt lat="41.589194480" lon="2.496332460">
        <ele>352.94</ele>
        <time>2016-03-27T09:14:01Z</time>
      </trkpt>
      <trkpt lat="41.589297490" lon="2.496327930">
        <ele>355.34</ele>
        <time>2016-03-27T09:14:10Z</time>
      </trkpt>
      <trkpt lat="41.589348370" lon="2.496391380">
        <ele>357.27</ele>
        <time>2016-03-27T09:14:17Z</time>
      </trkpt>
      <trkpt lat="41.589398580" lon="2.496454250">
        <ele>359.19</ele>
        <time>2016-03-27T09:14:25Z</time>
      </trkpt>
      <trkpt lat="41.589450290" lon="2.496568740">
        <ele>360.63</ele>
        <time>2016-03-27T09:14:35Z</time>
      </trkpt>
      <trkpt lat="41.589493800" lon="2.496655240">
        <ele>362.07</ele>
        <time>2016-03-27T09:14:43Z</time>
      </trkpt>
      <trkpt lat="41.589553390" lon="2.496771080">
        <ele>363.52</ele>
        <time>2016-03-27T09:14:52Z</time>
      </trkpt>
      <trkpt lat="41.589568560" lon="2.496826570">
        <ele>364.00</ele>
        <time>2016-03-27T09:14:56Z</time>
      </trkpt>
      <trkpt lat="41.589595300" lon="2.496932100">
        <ele>364.48</ele>
        <time>2016-03-27T09:15:04Z</time>
      </trkpt>
      <trkpt lat="41.589624890" lon="2.497049530">
        <ele>364.96</ele>
        <time>2016-03-27T09:15:12Z</time>
      </trkpt>
      <trkpt lat="41.589651710" lon="2.497139800">
        <ele>365.44</ele>
        <time>2016-03-27T09:15:20Z</time>
      </trkpt>
      <trkpt lat="41.589682890" lon="2.497218420">
        <ele>366.40</ele>
        <time>2016-03-27T09:15:25Z</time>
      </trkpt>
      <trkpt lat="41.589774090" lon="2.497424700">
        <ele>366.88</ele>
        <time>2016-03-27T09:15:36Z</time>
      </trkpt>
      <trkpt lat="41.589891520" lon="2.497567530">
        <ele>367.84</ele>
        <time>2016-03-27T09:15:46Z</time>
      </trkpt>
      <trkpt lat="41.590011380" lon="2.497669120">
        <ele>368.32</ele>
        <time>2016-03-27T09:15:56Z</time>
      </trkpt>
      <trkpt lat="41.590139540" lon="2.497752270">
        <ele>369.28</ele>
        <time>2016-03-27T09:16:05Z</time>
      </trkpt>
      <trkpt lat="41.590280770" lon="2.497871460">
        <ele>369.76</ele>
        <time>2016-03-27T09:16:14Z</time>
      </trkpt>
      <trkpt lat="41.590433150" lon="2.498040350">
        <ele>367.84</ele>
        <time>2016-03-27T09:16:20Z</time>
      </trkpt>
      <trkpt lat="41.590457970" lon="2.498074640">
        <ele>367.84</ele>
        <time>2016-03-27T09:16:21Z</time>
      </trkpt>
      <trkpt lat="41.590533740" lon="2.498114370">
        <ele>367.36</ele>
        <time>2016-03-27T09:16:25Z</time>
      </trkpt>
      <trkpt lat="41.590669190" lon="2.498159210">
        <ele>368.80</ele>
        <time>2016-03-27T09:16:32Z</time>
      </trkpt>
      <trkpt lat="41.590720570" lon="2.498169520">
        <ele>369.28</ele>
        <time>2016-03-27T09:16:36Z</time>
      </trkpt>
      <trkpt lat="41.590767840" lon="2.498142450">
        <ele>369.76</ele>
        <time>2016-03-27T09:16:40Z</time>
      </trkpt>
      <trkpt lat="41.590823840" lon="2.498023840">
        <ele>371.69</ele>
        <time>2016-03-27T09:16:49Z</time>
      </trkpt>
      <trkpt lat="41.590860720" lon="2.497972540">
        <ele>373.13</ele>
        <time>2016-03-27T09:16:54Z</time>
      </trkpt>
      <trkpt lat="41.590880410" lon="2.497911110">
        <ele>374.57</ele>
        <time>2016-03-27T09:17:00Z</time>
      </trkpt>
      <trkpt lat="41.590917380" lon="2.497850840">
        <ele>376.49</ele>
        <time>2016-03-27T09:17:06Z</time>
      </trkpt>
      <trkpt lat="41.590916460" lon="2.497825530">
        <ele>376.97</ele>
        <time>2016-03-27T09:17:09Z</time>
      </trkpt>
      <trkpt lat="41.590905730" lon="2.497822090">
        <ele>377.45</ele>
        <time>2016-03-27T09:17:11Z</time>
      </trkpt>
      <trkpt lat="41.590885110" lon="2.497793590">
        <ele>377.94</ele>
        <time>2016-03-27T09:17:14Z</time>
      </trkpt>
      <trkpt lat="41.590867760" lon="2.497675150">
        <ele>379.86</ele>
        <time>2016-03-27T09:17:23Z</time>
      </trkpt>
      <trkpt lat="41.590862140" lon="2.497625700">
        <ele>380.82</ele>
        <time>2016-03-27T09:17:29Z</time>
      </trkpt>
      <trkpt lat="41.590828780" lon="2.497563680">
        <ele>382.26</ele>
        <time>2016-03-27T09:17:36Z</time>
      </trkpt>
      <trkpt lat="41.590831800" lon="2.497550600">
        <ele>382.26</ele>
        <time>2016-03-27T09:17:37Z</time>
      </trkpt>
      <trkpt lat="41.590842360" lon="2.497453370">
        <ele>383.22</ele>
        <time>2016-03-27T09:17:45Z</time>
      </trkpt>
      <trkpt lat="41.590861640" lon="2.497334010">
        <ele>385.15</ele>
        <time>2016-03-27T09:17:55Z</time>
      </trkpt>
      <trkpt lat="41.590880500" lon="2.497221020">
        <ele>386.59</ele>
        <time>2016-03-27T09:18:02Z</time>
      </trkpt>
      <trkpt lat="41.590881840" lon="2.497088000">
        <ele>388.03</ele>
        <time>2016-03-27T09:18:10Z</time>
      </trkpt>
      <trkpt lat="41.590902710" lon="2.497003930">
        <ele>388.99</ele>
        <time>2016-03-27T09:18:17Z</time>
      </trkpt>
      <trkpt lat="41.590915450" lon="2.496928240">
        <ele>390.43</ele>
        <time>2016-03-27T09:18:24Z</time>
      </trkpt>
      <trkpt lat="41.590980830" lon="2.496867730">
        <ele>390.91</ele>
        <time>2016-03-27T09:18:31Z</time>
      </trkpt>
      <trkpt lat="41.591037740" lon="2.496828250">
        <ele>392.36</ele>
        <time>2016-03-27T09:18:38Z</time>
      </trkpt>
      <trkpt lat="41.591096920" lon="2.496811230">
        <ele>393.80</ele>
        <time>2016-03-27T09:18:46Z</time>
      </trkpt>
      <trkpt lat="41.591131870" lon="2.496748620">
        <ele>395.24</ele>
        <time>2016-03-27T09:18:53Z</time>
      </trkpt>
      <trkpt lat="41.591173110" lon="2.496667900">
        <ele>395.72</ele>
        <time>2016-03-27T09:18:59Z</time>
      </trkpt>
      <trkpt lat="41.591211250" lon="2.496666810">
        <ele>395.72</ele>
        <time>2016-03-27T09:19:04Z</time>
      </trkpt>
      <trkpt lat="41.591244440" lon="2.496671920">
        <ele>396.68</ele>
        <time>2016-03-27T09:19:07Z</time>
      </trkpt>
      <trkpt lat="41.591328760" lon="2.496657590">
        <ele>397.64</ele>
        <time>2016-03-27T09:19:13Z</time>
      </trkpt>
      <trkpt lat="41.591414010" lon="2.496679550">
        <ele>398.60</ele>
        <time>2016-03-27T09:19:21Z</time>
      </trkpt>
      <trkpt lat="41.591489950" lon="2.496690870">
        <ele>400.05</ele>
        <time>2016-03-27T09:19:28Z</time>
      </trkpt>
      <trkpt lat="41.591581480" lon="2.496719030">
        <ele>401.49</ele>
        <time>2016-03-27T09:19:36Z</time>
      </trkpt>
      <trkpt lat="41.591614920" lon="2.496751220">
        <ele>401.49</ele>
        <time>2016-03-27T09:19:40Z</time>
      </trkpt>
      <trkpt lat="41.591679040" lon="2.496823550">
        <ele>401.49</ele>
        <time>2016-03-27T09:19:47Z</time>
      </trkpt>
      <trkpt lat="41.591752220" lon="2.496842330">
        <ele>401.49</ele>
        <time>2016-03-27T09:19:52Z</time>
      </trkpt>
      <trkpt lat="41.591871150" lon="2.496867060">
        <ele>401.97</ele>
        <time>2016-03-27T09:20:00Z</time>
      </trkpt>
      <trkpt lat="41.591985400" lon="2.496868730">
        <ele>401.97</ele>
        <time>2016-03-27T09:20:06Z</time>
      </trkpt>
      <trkpt lat="41.592187400" lon="2.496854990">
        <ele>401.97</ele>
        <time>2016-03-27T09:20:12Z</time>
      </trkpt>
      <trkpt lat="41.592255130" lon="2.496792710">
        <ele>401.97</ele>
        <time>2016-03-27T09:20:17Z</time>
      </trkpt>
      <trkpt lat="41.592267950" lon="2.496763790">
        <ele>401.97</ele>
        <time>2016-03-27T09:20:20Z</time>
      </trkpt>
      <trkpt lat="41.592330230" lon="2.496623480">
        <ele>403.41</ele>
        <time>2016-03-27T09:20:30Z</time>
      </trkpt>
      <trkpt lat="41.592312880" lon="2.496487270">
        <ele>405.81</ele>
        <time>2016-03-27T09:20:39Z</time>
      </trkpt>
      <trkpt lat="41.592267700" lon="2.496461040">
        <ele>406.77</ele>
        <time>2016-03-27T09:20:46Z</time>
      </trkpt>
      <trkpt lat="41.592267200" lon="2.496449390">
        <ele>406.29</ele>
        <time>2016-03-27T09:20:52Z</time>
      </trkpt>
      <trkpt lat="41.592258150" lon="2.496443850">
        <ele>406.77</ele>
        <time>2016-03-27T09:21:02Z</time>
      </trkpt>
      <trkpt lat="41.592229060" lon="2.496392890">
        <ele>407.74</ele>
        <time>2016-03-27T09:21:08Z</time>
      </trkpt>
      <trkpt lat="41.592236270" lon="2.496295490">
        <ele>409.18</ele>
        <time>2016-03-27T09:21:14Z</time>
      </trkpt>
      <trkpt lat="41.592294110" lon="2.496210500">
        <ele>410.14</ele>
        <time>2016-03-27T09:21:21Z</time>
      </trkpt>
      <trkpt lat="41.592304920" lon="2.496200280">
        <ele>410.14</ele>
        <time>2016-03-27T09:21:22Z</time>
      </trkpt>
      <trkpt lat="41.592340540" lon="2.496138330">
        <ele>410.62</ele>
        <time>2016-03-27T09:21:27Z</time>
      </trkpt>
      <trkpt lat="41.592377090" lon="2.496021410">
        <ele>411.58</ele>
        <time>2016-03-27T09:21:35Z</time>
      </trkpt>
      <trkpt lat="41.592394100" lon="2.495998940">
        <ele>412.06</ele>
        <time>2016-03-27T09:21:41Z</time>
      </trkpt>
      <trkpt lat="41.592404330" lon="2.495946970">
        <ele>412.06</ele>
        <time>2016-03-27T09:21:46Z</time>
      </trkpt>
      <trkpt lat="41.592424530" lon="2.495867260">
        <ele>412.54</ele>
        <time>2016-03-27T09:21:51Z</time>
      </trkpt>
      <trkpt lat="41.592436180" lon="2.495844630">
        <ele>413.02</ele>
        <time>2016-03-27T09:21:53Z</time>
      </trkpt>
      <trkpt lat="41.592506840" lon="2.495780680">
        <ele>413.98</ele>
        <time>2016-03-27T09:22:00Z</time>
      </trkpt>
      <trkpt lat="41.592527790" lon="2.495761990">
        <ele>413.98</ele>
        <time>2016-03-27T09:22:02Z</time>
      </trkpt>
      <trkpt lat="41.592594760" lon="2.495637510">
        <ele>415.91</ele>
        <time>2016-03-27T09:22:11Z</time>
      </trkpt>
      <trkpt lat="41.592600800" lon="2.495620420">
        <ele>415.91</ele>
        <time>2016-03-27T09:22:12Z</time>
      </trkpt>
      <trkpt lat="41.592668110" lon="2.495480520">
        <ele>417.35</ele>
        <time>2016-03-27T09:22:22Z</time>
      </trkpt>
      <trkpt lat="41.592686630" lon="2.495454030">
        <ele>418.31</ele>
        <time>2016-03-27T09:22:24Z</time>
      </trkpt>
      <trkpt lat="41.592776150" lon="2.495412290">
        <ele>419.75</ele>
        <time>2016-03-27T09:22:32Z</time>
      </trkpt>
      <trkpt lat="41.592834650" lon="2.495415560">
        <ele>420.23</ele>
        <time>2016-03-27T09:22:38Z</time>
      </trkpt>
      <trkpt lat="41.592921320" lon="2.495423110">
        <ele>421.68</ele>
        <time>2016-03-27T09:22:45Z</time>
      </trkpt>
      <trkpt lat="41.592993830" lon="2.495431990">
        <ele>422.64</ele>
        <time>2016-03-27T09:22:51Z</time>
      </trkpt>
      <trkpt lat="41.593096840" lon="2.495471130">
        <ele>422.64</ele>
        <time>2016-03-27T09:22:59Z</time>
      </trkpt>
      <trkpt lat="41.593195910" lon="2.495559730">
        <ele>422.64</ele>
        <time>2016-03-27T09:23:04Z</time>
      </trkpt>
      <trkpt lat="41.593285850" lon="2.495607510">
        <ele>421.19</ele>
        <time>2016-03-27T09:23:09Z</time>
      </trkpt>
      <trkpt lat="41.593298840" lon="2.495608510">
        <ele>420.71</ele>
        <time>2016-03-27T09:23:10Z</time>
      </trkpt>
      <trkpt lat="41.593456930" lon="2.495684030">
        <ele>421.19</ele>
        <time>2016-03-27T09:23:18Z</time>
      </trkpt>
      <trkpt lat="41.593565980" lon="2.495858290">
        <ele>419.75</ele>
        <time>2016-03-27T09:23:24Z</time>
      </trkpt>
      <trkpt lat="41.593620960" lon="2.495927030">
        <ele>419.75</ele>
        <time>2016-03-27T09:23:27Z</time>
      </trkpt>
      <trkpt lat="41.593689190" lon="2.496087290">
        <ele>419.75</ele>
        <time>2016-03-27T09:23:34Z</time>
      </trkpt>
      <trkpt lat="41.593773590" lon="2.496280240">
        <ele>419.27</ele>
        <time>2016-03-27T09:23:41Z</time>
      </trkpt>
      <trkpt lat="41.593917340" lon="2.496580730">
        <ele>417.83</ele>
        <time>2016-03-27T09:23:49Z</time>
      </trkpt>
      <trkpt lat="41.594027480" lon="2.496826650">
        <ele>416.87</ele>
        <time>2016-03-27T09:23:55Z</time>
      </trkpt>
      <trkpt lat="41.594076350" lon="2.496967720">
        <ele>415.91</ele>
        <time>2016-03-27T09:23:59Z</time>
      </trkpt>
      <trkpt lat="41.594122700" lon="2.497142650">
        <ele>414.95</ele>
        <time>2016-03-27T09:24:05Z</time>
      </trkpt>
      <trkpt lat="41.594123120" lon="2.497271820">
        <ele>413.02</ele>
        <time>2016-03-27T09:24:10Z</time>
      </trkpt>
      <trkpt lat="41.594133680" lon="2.497302160">
        <ele>413.02</ele>
        <time>2016-03-27T09:24:13Z</time>
      </trkpt>
      <trkpt lat="41.594211380" lon="2.497370470">
        <ele>413.02</ele>
        <time>2016-03-27T09:24:21Z</time>
      </trkpt>
      <trkpt lat="41.594212220" lon="2.497386900">
        <ele>413.02</ele>
        <time>2016-03-27T09:24:27Z</time>
      </trkpt>
      <trkpt lat="41.594201910" lon="2.497389830">
        <ele>413.02</ele>
        <time>2016-03-27T09:24:30Z</time>
      </trkpt>
      <trkpt lat="41.594166620" lon="2.497400730">
        <ele>411.58</ele>
        <time>2016-03-27T09:24:33Z</time>
      </trkpt>
      <trkpt lat="41.594085570" lon="2.497437110">
        <ele>409.18</ele>
        <time>2016-03-27T09:24:39Z</time>
      </trkpt>
      <trkpt lat="41.593988260" lon="2.497488240">
        <ele>407.26</ele>
        <time>2016-03-27T09:24:47Z</time>
      </trkpt>
      <trkpt lat="41.593892870" lon="2.497580690">
        <ele>403.89</ele>
        <time>2016-03-27T09:24:52Z</time>
      </trkpt>
      <trkpt lat="41.593728080" lon="2.497658810">
        <ele>401.97</ele>
        <time>2016-03-27T09:24:58Z</time>
      </trkpt>
      <trkpt lat="41.593666890" lon="2.497722850">
        <ele>401.97</ele>
        <time>2016-03-27T09:25:03Z</time>
      </trkpt>
      <trkpt lat="41.593584920" lon="2.497864000">
        <ele>400.05</ele>
        <time>2016-03-27T09:25:09Z</time>
      </trkpt>
      <trkpt lat="41.593567230" lon="2.498007920">
        <ele>396.68</ele>
        <time>2016-03-27T09:25:13Z</time>
      </trkpt>
      <trkpt lat="41.593539740" lon="2.498077740">
        <ele>395.72</ele>
        <time>2016-03-27T09:25:15Z</time>
      </trkpt>
      <trkpt lat="41.593416110" lon="2.498275970">
        <ele>392.84</ele>
        <time>2016-03-27T09:25:23Z</time>
      </trkpt>
      <trkpt lat="41.593328350" lon="2.498320810">
        <ele>390.91</ele>
        <time>2016-03-27T09:25:28Z</time>
      </trkpt>
      <trkpt lat="41.593235640" lon="2.498374540">
        <ele>388.99</ele>
        <time>2016-03-27T09:25:33Z</time>
      </trkpt>
      <trkpt lat="41.593190470" lon="2.498368590">
        <ele>388.03</ele>
        <time>2016-03-27T09:25:35Z</time>
      </trkpt>
      <trkpt lat="41.593092060" lon="2.498420810">
        <ele>386.59</ele>
        <time>2016-03-27T09:25:40Z</time>
      </trkpt>
      <trkpt lat="41.593080330" lon="2.498441180">
        <ele>385.63</ele>
        <time>2016-03-27T09:25:41Z</time>
      </trkpt>
      <trkpt lat="41.592949320" lon="2.498620050">
        <ele>384.66</ele>
        <time>2016-03-27T09:25:49Z</time>
      </trkpt>
      <trkpt lat="41.592893580" lon="2.498663130">
        <ele>383.22</ele>
        <time>2016-03-27T09:25:57Z</time>
      </trkpt>
      <trkpt lat="41.592823510" lon="2.498706720">
        <ele>382.26</ele>
        <time>2016-03-27T09:26:02Z</time>
      </trkpt>
      <trkpt lat="41.592764410" lon="2.498751140">
        <ele>380.34</ele>
        <time>2016-03-27T09:26:05Z</time>
      </trkpt>
      <trkpt lat="41.592685540" lon="2.498803360">
        <ele>378.42</ele>
        <time>2016-03-27T09:26:08Z</time>
      </trkpt>
      <trkpt lat="41.592479850" lon="2.498951470">
        <ele>376.97</ele>
        <time>2016-03-27T09:26:14Z</time>
      </trkpt>
      <trkpt lat="41.592369790" lon="2.499024890">
        <ele>378.90</ele>
        <time>2016-03-27T09:26:19Z</time>
      </trkpt>
      <trkpt lat="41.592356050" lon="2.499034620">
        <ele>379.86</ele>
        <time>2016-03-27T09:26:20Z</time>
      </trkpt>
      <trkpt lat="41.592247080" lon="2.499136540">
        <ele>381.30</ele>
        <time>2016-03-27T09:26:27Z</time>
      </trkpt>
      <trkpt lat="41.592153710" lon="2.499168220">
        <ele>381.30</ele>
        <time>2016-03-27T09:26:31Z</time>
      </trkpt>
      <trkpt lat="41.592068130" lon="2.499170910">
        <ele>381.30</ele>
        <time>2016-03-27T09:26:34Z</time>
      </trkpt>
      <trkpt lat="41.591956650" lon="2.499219690">
        <ele>377.94</ele>
        <time>2016-03-27T09:26:39Z</time>
      </trkpt>
      <trkpt lat="41.591933520" lon="2.499235030">
        <ele>377.94</ele>
        <time>2016-03-27T09:26:40Z</time>
      </trkpt>
      <trkpt lat="41.591880540" lon="2.499290180">
        <ele>376.97</ele>
        <time>2016-03-27T09:26:44Z</time>
      </trkpt>
      <trkpt lat="41.591780210" lon="2.499430910">
        <ele>375.53</ele>
        <time>2016-03-27T09:26:52Z</time>
      </trkpt>
      <trkpt lat="41.591743830" lon="2.499459160">
        <ele>375.53</ele>
        <time>2016-03-27T09:27:06Z</time>
      </trkpt>
      <trkpt lat="41.591710890" lon="2.499476760">
        <ele>375.05</ele>
        <time>2016-03-27T09:27:16Z</time>
      </trkpt>
      <trkpt lat="41.591708040" lon="2.499492350">
        <ele>374.57</ele>
        <time>2016-03-27T09:27:25Z</time>
      </trkpt>
      <trkpt lat="41.591698400" lon="2.499642050">
        <ele>374.57</ele>
        <time>2016-03-27T09:27:32Z</time>
      </trkpt>
      <trkpt lat="41.591700080" lon="2.499817570">
        <ele>374.57</ele>
        <time>2016-03-27T09:27:38Z</time>
      </trkpt>
      <trkpt lat="41.591697480" lon="2.499845980">
        <ele>374.57</ele>
        <time>2016-03-27T09:27:39Z</time>
      </trkpt>
      <trkpt lat="41.591619030" lon="2.499954860">
        <ele>371.21</ele>
        <time>2016-03-27T09:27:45Z</time>
      </trkpt>
      <trkpt lat="41.591602430" lon="2.499978250">
        <ele>371.21</ele>
        <time>2016-03-27T09:27:46Z</time>
      </trkpt>
      <trkpt lat="41.591538390" lon="2.500116970">
        <ele>369.28</ele>
        <time>2016-03-27T09:27:51Z</time>
      </trkpt>
      <trkpt lat="41.591499330" lon="2.500319140">
        <ele>367.36</ele>
        <time>2016-03-27T09:27:56Z</time>
      </trkpt>
      <trkpt lat="41.591493210" lon="2.500379580">
        <ele>367.84</ele>
        <time>2016-03-27T09:27:58Z</time>
      </trkpt>
      <trkpt lat="41.591429510" lon="2.500523410">
        <ele>364.96</ele>
        <time>2016-03-27T09:28:04Z</time>
      </trkpt>
      <trkpt lat="41.591422470" lon="2.500584430">
        <ele>364.48</ele>
        <time>2016-03-27T09:28:10Z</time>
      </trkpt>
      <trkpt lat="41.591416940" lon="2.500602120">
        <ele>364.48</ele>
        <time>2016-03-27T09:28:12Z</time>
      </trkpt>
      <trkpt lat="41.591358600" lon="2.500676380">
        <ele>363.52</ele>
        <time>2016-03-27T09:28:16Z</time>
      </trkpt>
      <trkpt lat="41.591235970" lon="2.500769000">
        <ele>361.11</ele>
        <time>2016-03-27T09:28:21Z</time>
      </trkpt>
      <trkpt lat="41.591130450" lon="2.500848630">
        <ele>359.19</ele>
        <time>2016-03-27T09:28:25Z</time>
      </trkpt>
      <trkpt lat="41.591106470" lon="2.500871430">
        <ele>358.71</ele>
        <time>2016-03-27T09:28:26Z</time>
      </trkpt>
      <trkpt lat="41.591033470" lon="2.500951560">
        <ele>357.75</ele>
        <time>2016-03-27T09:28:29Z</time>
      </trkpt>
      <trkpt lat="41.590988200" lon="2.501031100">
        <ele>356.31</ele>
        <time>2016-03-27T09:28:32Z</time>
      </trkpt>
      <trkpt lat="41.590865330" lon="2.501061280">
        <ele>354.86</ele>
        <time>2016-03-27T09:28:36Z</time>
      </trkpt>
      <trkpt lat="41.590763150" lon="2.501120200">
        <ele>352.94</ele>
        <time>2016-03-27T09:28:40Z</time>
      </trkpt>
      <trkpt lat="41.590669610" lon="2.501229000">
        <ele>351.98</ele>
        <time>2016-03-27T09:28:44Z</time>
      </trkpt>
      <trkpt lat="41.590594090" lon="2.501295800">
        <ele>350.54</ele>
        <time>2016-03-27T09:28:47Z</time>
      </trkpt>
      <trkpt lat="41.590503560" lon="2.501366630">
        <ele>349.10</ele>
        <time>2016-03-27T09:28:50Z</time>
      </trkpt>
      <trkpt lat="41.590393760" lon="2.501493870">
        <ele>345.73</ele>
        <time>2016-03-27T09:28:57Z</time>
      </trkpt>
      <trkpt lat="41.590278010" lon="2.501597550">
        <ele>343.81</ele>
        <time>2016-03-27T09:29:04Z</time>
      </trkpt>
      <trkpt lat="41.590189660" lon="2.501619180">
        <ele>342.85</ele>
        <time>2016-03-27T09:29:10Z</time>
      </trkpt>
      <trkpt lat="41.590192510" lon="2.501642730">
        <ele>342.85</ele>
        <time>2016-03-27T09:29:17Z</time>
      </trkpt>
      <trkpt lat="41.590216400" lon="2.501655640">
        <ele>343.33</ele>
        <time>2016-03-27T09:29:24Z</time>
      </trkpt>
      <trkpt lat="41.590267950" lon="2.501635440">
        <ele>345.25</ele>
        <time>2016-03-27T09:29:33Z</time>
      </trkpt>
      <trkpt lat="41.590320080" lon="2.501633420">
        <ele>346.21</ele>
        <time>2016-03-27T09:29:41Z</time>
      </trkpt>
      <trkpt lat="41.590322350" lon="2.501629490">
        <ele>346.21</ele>
        <time>2016-03-27T09:29:48Z</time>
      </trkpt>
      <trkpt lat="41.590329550" lon="2.501645660">
        <ele>346.21</ele>
        <time>2016-03-27T09:29:52Z</time>
      </trkpt>
      <trkpt lat="41.590353610" lon="2.501743060">
        <ele>346.21</ele>
        <time>2016-03-27T09:30:00Z</time>
      </trkpt>
      <trkpt lat="41.590369620" lon="2.501784890">
        <ele>346.21</ele>
        <time>2016-03-27T09:30:06Z</time>
      </trkpt>
      <trkpt lat="41.590350090" lon="2.501882870">
        <ele>343.33</ele>
        <time>2016-03-27T09:30:11Z</time>
      </trkpt>
      <trkpt lat="41.590342300" lon="2.501927460">
        <ele>342.37</ele>
        <time>2016-03-27T09:30:13Z</time>
      </trkpt>
      <trkpt lat="41.590311450" lon="2.502005410">
        <ele>340.44</ele>
        <time>2016-03-27T09:30:19Z</time>
      </trkpt>
      <trkpt lat="41.590186730" lon="2.502036680">
        <ele>338.04</ele>
        <time>2016-03-27T09:30:26Z</time>
      </trkpt>
      <trkpt lat="41.590104080" lon="2.502096190">
        <ele>336.60</ele>
        <time>2016-03-27T09:30:30Z</time>
      </trkpt>
      <trkpt lat="41.590044150" lon="2.502241530">
        <ele>335.16</ele>
        <time>2016-03-27T09:30:37Z</time>
      </trkpt>
      <trkpt lat="41.590028390" lon="2.502384860">
        <ele>333.71</ele>
        <time>2016-03-27T09:30:42Z</time>
      </trkpt>
      <trkpt lat="41.590017500" lon="2.502412190">
        <ele>334.20</ele>
        <time>2016-03-27T09:30:44Z</time>
      </trkpt>
      <trkpt lat="41.589979530" lon="2.502548810">
        <ele>333.71</ele>
        <time>2016-03-27T09:30:50Z</time>
      </trkpt>
      <trkpt lat="41.589989500" lon="2.502687030">
        <ele>333.71</ele>
        <time>2016-03-27T09:30:55Z</time>
      </trkpt>
      <trkpt lat="41.589906690" lon="2.502788450">
        <ele>331.79</ele>
        <time>2016-03-27T09:31:00Z</time>
      </trkpt>
      <trkpt lat="41.589818170" lon="2.502908230">
        <ele>329.87</ele>
        <time>2016-03-27T09:31:05Z</time>
      </trkpt>
      <trkpt lat="41.589774760" lon="2.502943010">
        <ele>328.43</ele>
        <time>2016-03-27T09:31:08Z</time>
      </trkpt>
      <trkpt lat="41.589740980" lon="2.502972940">
        <ele>327.47</ele>
        <time>2016-03-27T09:31:10Z</time>
      </trkpt>
      <trkpt lat="41.589712310" lon="2.503016940">
        <ele>326.50</ele>
        <time>2016-03-27T09:31:12Z</time>
      </trkpt>
      <trkpt lat="41.589680800" lon="2.503045440">
        <ele>325.54</ele>
        <time>2016-03-27T09:31:14Z</time>
      </trkpt>
      <trkpt lat="41.589588010" lon="2.503111660">
        <ele>323.14</ele>
        <time>2016-03-27T09:31:19Z</time>
      </trkpt>
      <trkpt lat="41.589521370" lon="2.503205200">
        <ele>321.70</ele>
        <time>2016-03-27T09:31:25Z</time>
      </trkpt>
      <trkpt lat="41.589450800" lon="2.503343000">
        <ele>317.37</ele>
        <time>2016-03-27T09:31:31Z</time>
      </trkpt>
      <trkpt lat="41.589426740" lon="2.503363110">
        <ele>316.89</ele>
        <time>2016-03-27T09:31:32Z</time>
      </trkpt>
      <trkpt lat="41.589285760" lon="2.503575430">
        <ele>315.93</ele>
        <time>2016-03-27T09:31:39Z</time>
      </trkpt>
      <trkpt lat="41.589144190" lon="2.503634020">
        <ele>314.97</ele>
        <time>2016-03-27T09:31:44Z</time>
      </trkpt>
      <trkpt lat="41.589062210" lon="2.503670900">
        <ele>313.53</ele>
        <time>2016-03-27T09:31:47Z</time>
      </trkpt>
      <trkpt lat="41.589001780" lon="2.503736110">
        <ele>312.09</ele>
        <time>2016-03-27T09:31:52Z</time>
      </trkpt>
      <trkpt lat="41.588924500" lon="2.503778520">
        <ele>311.12</ele>
        <time>2016-03-27T09:32:01Z</time>
      </trkpt>
      <trkpt lat="41.588923070" lon="2.503797880">
        <ele>311.12</ele>
        <time>2016-03-27T09:32:10Z</time>
      </trkpt>
      <trkpt lat="41.588933380" lon="2.503774080">
        <ele>313.05</ele>
        <time>2016-03-27T09:32:17Z</time>
      </trkpt>
      <trkpt lat="41.588949890" lon="2.503723960">
        <ele>313.05</ele>
        <time>2016-03-27T09:32:24Z</time>
      </trkpt>
      <trkpt lat="41.588955430" lon="2.503705180">
        <ele>313.05</ele>
        <time>2016-03-27T09:32:25Z</time>
      </trkpt>
      <trkpt lat="41.588975040" lon="2.503672910">
        <ele>312.09</ele>
        <time>2016-03-27T09:32:27Z</time>
      </trkpt>
      <trkpt lat="41.589060370" lon="2.503489680">
        <ele>308.24</ele>
        <time>2016-03-27T09:32:34Z</time>
      </trkpt>
      <trkpt lat="41.589067660" lon="2.503445010">
        <ele>306.80</ele>
        <time>2016-03-27T09:32:36Z</time>
      </trkpt>
      <trkpt lat="41.589050900" lon="2.503431430">
        <ele>305.84</ele>
        <time>2016-03-27T09:32:38Z</time>
      </trkpt>
      <trkpt lat="41.588958690" lon="2.503454640">
        <ele>303.91</ele>
        <time>2016-03-27T09:32:44Z</time>
      </trkpt>
      <trkpt lat="41.588905890" lon="2.503421870">
        <ele>301.51</ele>
        <time>2016-03-27T09:32:47Z</time>
      </trkpt>
      <trkpt lat="41.588790130" lon="2.503349120">
        <ele>300.55</ele>
        <time>2016-03-27T09:32:51Z</time>
      </trkpt>
      <trkpt lat="41.588603300" lon="2.503280720">
        <ele>297.67</ele>
        <time>2016-03-27T09:32:55Z</time>
      </trkpt>
      <trkpt lat="41.588456870" lon="2.503289520">
        <ele>295.26</ele>
        <time>2016-03-27T09:32:59Z</time>
      </trkpt>
      <trkpt lat="41.588386710" lon="2.503336040">
        <ele>292.38</ele>
        <time>2016-03-27T09:33:02Z</time>
      </trkpt>
      <trkpt lat="41.588235760" lon="2.503369990">
        <ele>288.05</ele>
        <time>2016-03-27T09:33:07Z</time>
      </trkpt>
      <trkpt lat="41.588138530" lon="2.503464700">
        <ele>284.21</ele>
        <time>2016-03-27T09:33:11Z</time>
      </trkpt>
      <trkpt lat="41.588114720" lon="2.503545090">
        <ele>282.77</ele>
        <time>2016-03-27T09:33:13Z</time>
      </trkpt>
      <trkpt lat="41.588082700" lon="2.503667290">
        <ele>281.32</ele>
        <time>2016-03-27T09:33:15Z</time>
      </trkpt>
      <trkpt lat="41.587892770" lon="2.504006010">
        <ele>279.40</ele>
        <time>2016-03-27T09:33:21Z</time>
      </trkpt>
      <trkpt lat="41.587772490" lon="2.504089660">
        <ele>280.36</ele>
        <time>2016-03-27T09:33:26Z</time>
      </trkpt>
      <trkpt lat="41.587575850" lon="2.504141370">
        <ele>280.84</ele>
        <time>2016-03-27T09:33:32Z</time>
      </trkpt>
      <trkpt lat="41.587500240" lon="2.504161320">
        <ele>279.40</ele>
        <time>2016-03-27T09:33:34Z</time>
      </trkpt>
      <trkpt lat="41.587380970" lon="2.504250760">
        <ele>277.00</ele>
        <time>2016-03-27T09:33:37Z</time>
      </trkpt>
      <trkpt lat="41.587270830" lon="2.504327960">
        <ele>275.07</ele>
        <time>2016-03-27T09:33:41Z</time>
      </trkpt>
      <trkpt lat="41.587127250" lon="2.504365000">
        <ele>272.19</ele>
        <time>2016-03-27T09:33:47Z</time>
      </trkpt>
      <trkpt lat="41.586978970" lon="2.504392410">
        <ele>269.79</ele>
        <time>2016-03-27T09:33:52Z</time>
      </trkpt>
      <trkpt lat="41.586932290" lon="2.504424100">
        <ele>269.31</ele>
        <time>2016-03-27T09:33:54Z</time>
      </trkpt>
      <trkpt lat="41.586864390" lon="2.504483520">
        <ele>267.38</ele>
        <time>2016-03-27T09:33:56Z</time>
      </trkpt>
      <trkpt lat="41.586729020" lon="2.504643030">
        <ele>265.46</ele>
        <time>2016-03-27T09:34:00Z</time>
      </trkpt>
      <trkpt lat="41.586644620" lon="2.504736570">
        <ele>263.06</ele>
        <time>2016-03-27T09:34:05Z</time>
      </trkpt>
      <trkpt lat="41.586547470" lon="2.504887450">
        <ele>259.21</ele>
        <time>2016-03-27T09:34:09Z</time>
      </trkpt>
      <trkpt lat="41.586529200" lon="2.504908150">
        <ele>258.25</ele>
        <time>2016-03-27T09:34:10Z</time>
      </trkpt>
      <trkpt lat="41.586515120" lon="2.504947880">
        <ele>257.77</ele>
        <time>2016-03-27T09:34:12Z</time>
      </trkpt>
      <trkpt lat="41.586511350" lon="2.505013760">
        <ele>255.37</ele>
        <time>2016-03-27T09:34:14Z</time>
      </trkpt>
      <trkpt lat="41.586488210" lon="2.505080650">
        <ele>254.89</ele>
        <time>2016-03-27T09:34:16Z</time>
      </trkpt>
      <trkpt lat="41.586404640" lon="2.505174610">
        <ele>254.41</ele>
        <time>2016-03-27T09:34:20Z</time>
      </trkpt>
      <trkpt lat="41.586377820" lon="2.505212830">
        <ele>253.44</ele>
        <time>2016-03-27T09:34:21Z</time>
      </trkpt>
      <trkpt lat="41.586310180" lon="2.505292630">
        <ele>252.96</ele>
        <time>2016-03-27T09:34:23Z</time>
      </trkpt>
      <trkpt lat="41.586280680" lon="2.505374600">
        <ele>252.48</ele>
        <time>2016-03-27T09:34:25Z</time>
      </trkpt>
      <trkpt lat="41.586151340" lon="2.505435960">
        <ele>250.08</ele>
        <time>2016-03-27T09:34:30Z</time>
      </trkpt>
      <trkpt lat="41.586090740" lon="2.505454730">
        <ele>249.60</ele>
        <time>2016-03-27T09:34:32Z</time>
      </trkpt>
      <trkpt lat="41.586040030" lon="2.505498570">
        <ele>248.64</ele>
        <time>2016-03-27T09:34:34Z</time>
      </trkpt>
      <trkpt lat="41.586017740" lon="2.505521620">
        <ele>247.68</ele>
        <time>2016-03-27T09:34:35Z</time>
      </trkpt>
      <trkpt lat="41.585843980" lon="2.505583310">
        <ele>245.27</ele>
        <time>2016-03-27T09:34:41Z</time>
      </trkpt>
      <trkpt lat="41.585706680" lon="2.505699230">
        <ele>243.35</ele>
        <time>2016-03-27T09:34:45Z</time>
      </trkpt>
      <trkpt lat="41.585671810" lon="2.505711470">
        <ele>242.87</ele>
        <time>2016-03-27T09:34:46Z</time>
      </trkpt>
      <trkpt lat="41.585363110" lon="2.505700490">
        <ele>239.02</ele>
        <time>2016-03-27T09:34:53Z</time>
      </trkpt>
      <trkpt lat="41.585275180" lon="2.505709460">
        <ele>237.58</ele>
        <time>2016-03-27T09:34:55Z</time>
      </trkpt>
      <trkpt lat="41.585037470" lon="2.505632600">
        <ele>234.70</ele>
        <time>2016-03-27T09:35:02Z</time>
      </trkpt>
      <trkpt lat="41.584988350" lon="2.505595800">
        <ele>233.74</ele>
        <time>2016-03-27T09:35:04Z</time>
      </trkpt>
      <trkpt lat="41.584822390" lon="2.505472000">
        <ele>230.85</ele>
        <time>2016-03-27T09:35:09Z</time>
      </trkpt>
      <trkpt lat="41.584735050" lon="2.505414840">
        <ele>229.41</ele>
        <time>2016-03-27T09:35:11Z</time>
      </trkpt>
      <trkpt lat="41.584643440" lon="2.505379050">
        <ele>228.45</ele>
        <time>2016-03-27T09:35:13Z</time>
      </trkpt>
      <trkpt lat="41.584400780" lon="2.505289110">
        <ele>225.09</ele>
        <time>2016-03-27T09:35:18Z</time>
      </trkpt>
      <trkpt lat="41.584364490" lon="2.505245860">
        <ele>225.09</ele>
        <time>2016-03-27T09:35:19Z</time>
      </trkpt>
      <trkpt lat="41.584224850" lon="2.505128430">
        <ele>222.68</ele>
        <time>2016-03-27T09:35:23Z</time>
      </trkpt>
      <trkpt lat="41.584191070" lon="2.505124740">
        <ele>222.20</ele>
        <time>2016-03-27T09:35:24Z</time>
      </trkpt>
      <trkpt lat="41.584013290" lon="2.505129430">
        <ele>218.36</ele>
        <time>2016-03-27T09:35:30Z</time>
      </trkpt>
      <trkpt lat="41.583934920" lon="2.505196150">
        <ele>216.91</ele>
        <time>2016-03-27T09:35:32Z</time>
      </trkpt>
      <trkpt lat="41.583766940" lon="2.505308470">
        <ele>212.59</ele>
        <time>2016-03-27T09:35:37Z</time>
      </trkpt>
      <trkpt lat="41.583701650" lon="2.505326910">
        <ele>211.15</ele>
        <time>2016-03-27T09:35:39Z</time>
      </trkpt>
      <trkpt lat="41.583518340" lon="2.505171010">
        <ele>210.19</ele>
        <time>2016-03-27T09:35:46Z</time>
      </trkpt>
      <trkpt lat="41.583371650" lon="2.505135890">
        <ele>207.30</ele>
        <time>2016-03-27T09:35:51Z</time>
      </trkpt>
      <trkpt lat="41.583303090" lon="2.505000180">
        <ele>206.34</ele>
        <time>2016-03-27T09:35:54Z</time>
      </trkpt>
      <trkpt lat="41.583250530" lon="2.504800440">
        <ele>202.98</ele>
        <time>2016-03-27T09:35:58Z</time>
      </trkpt>
      <trkpt lat="41.583191440" lon="2.504851490">
        <ele>202.01</ele>
        <time>2016-03-27T09:36:03Z</time>
      </trkpt>
      <trkpt lat="41.583168390" lon="2.504950060">
        <ele>198.65</ele>
        <time>2016-03-27T09:36:07Z</time>
      </trkpt>
      <trkpt lat="41.583130170" lon="2.504949980">
        <ele>198.17</ele>
        <time>2016-03-27T09:36:10Z</time>
      </trkpt>
      <trkpt lat="41.583122210" lon="2.504906980">
        <ele>198.17</ele>
        <time>2016-03-27T09:36:12Z</time>
      </trkpt>
      <trkpt lat="41.583094380" lon="2.504742940">
        <ele>196.73</ele>
        <time>2016-03-27T09:36:16Z</time>
      </trkpt>
      <trkpt lat="41.583004110" lon="2.504832130">
        <ele>194.80</ele>
        <time>2016-03-27T09:36:21Z</time>
      </trkpt>
      <trkpt lat="41.582982060" lon="2.504871520">
        <ele>193.84</ele>
        <time>2016-03-27T09:36:22Z</time>
      </trkpt>
      <trkpt lat="41.582935790" lon="2.504830950">
        <ele>191.92</ele>
        <time>2016-03-27T09:36:26Z</time>
      </trkpt>
      <trkpt lat="41.582952730" lon="2.504547060">
        <ele>187.59</ele>
        <time>2016-03-27T09:36:32Z</time>
      </trkpt>
      <trkpt lat="41.582953820" lon="2.504498530">
        <ele>186.63</ele>
        <time>2016-03-27T09:36:33Z</time>
      </trkpt>
      <trkpt lat="41.583023720" lon="2.504322670">
        <ele>182.31</ele>
        <time>2016-03-27T09:36:38Z</time>
      </trkpt>
      <trkpt lat="41.583030590" lon="2.504309180">
        <ele>182.31</ele>
        <time>2016-03-27T09:36:39Z</time>
      </trkpt>
      <trkpt lat="41.583033280" lon="2.504276740">
        <ele>181.83</ele>
        <time>2016-03-27T09:36:42Z</time>
      </trkpt>
      <trkpt lat="41.582966720" lon="2.504239860">
        <ele>180.38</ele>
        <time>2016-03-27T09:36:46Z</time>
      </trkpt>
      <trkpt lat="41.582881140" lon="2.504189320">
        <ele>178.46</ele>
        <time>2016-03-27T09:36:50Z</time>
      </trkpt>
      <trkpt lat="41.582751060" lon="2.504111620">
        <ele>174.62</ele>
        <time>2016-03-27T09:36:56Z</time>
      </trkpt>
      <trkpt lat="41.582601190" lon="2.504196610">
        <ele>173.66</ele>
        <time>2016-03-27T09:37:01Z</time>
      </trkpt>
      <trkpt lat="41.582326510" lon="2.504316300">
        <ele>170.29</ele>
        <time>2016-03-27T09:37:06Z</time>
      </trkpt>
      <trkpt lat="41.582284520" lon="2.504333070">
        <ele>170.29</ele>
        <time>2016-03-27T09:37:07Z</time>
      </trkpt>
      <trkpt lat="41.582019230" lon="2.504509260">
        <ele>166.45</ele>
        <time>2016-03-27T09:37:12Z</time>
      </trkpt>
      <trkpt lat="41.581967180" lon="2.504549820">
        <ele>165.96</ele>
        <time>2016-03-27T09:37:13Z</time>
      </trkpt>
      <trkpt lat="41.581695020" lon="2.504675550">
        <ele>162.60</ele>
        <time>2016-03-27T09:37:18Z</time>
      </trkpt>
      <trkpt lat="41.581568620" lon="2.504749730">
        <ele>161.64</ele>
        <time>2016-03-27T09:37:20Z</time>
      </trkpt>
      <trkpt lat="41.581282800" lon="2.504962550">
        <ele>158.75</ele>
        <time>2016-03-27T09:37:25Z</time>
      </trkpt>
      <trkpt lat="41.581204340" lon="2.505054330">
        <ele>157.79</ele>
        <time>2016-03-27T09:37:27Z</time>
      </trkpt>
      <trkpt lat="41.580950620" lon="2.505524970">
        <ele>154.43</ele>
        <time>2016-03-27T09:37:34Z</time>
      </trkpt>
      <trkpt lat="41.580875690" lon="2.505661520">
        <ele>152.99</ele>
        <time>2016-03-27T09:37:36Z</time>
      </trkpt>
      <trkpt lat="41.580580900" lon="2.506141630">
        <ele>148.66</ele>
        <time>2016-03-27T09:37:43Z</time>
      </trkpt>
      <trkpt lat="41.580406970" lon="2.506402480">
        <ele>145.30</ele>
        <time>2016-03-27T09:37:47Z</time>
      </trkpt>
      <trkpt lat="41.580332630" lon="2.506488890">
        <ele>144.34</ele>
        <time>2016-03-27T09:37:49Z</time>
      </trkpt>
      <trkpt lat="41.580205640" lon="2.506568860">
        <ele>143.37</ele>
        <time>2016-03-27T09:37:52Z</time>
      </trkpt>
      <trkpt lat="41.580005150" lon="2.506644210">
        <ele>140.49</ele>
        <time>2016-03-27T09:37:57Z</time>
      </trkpt>
      <trkpt lat="41.579977990" lon="2.506775720">
        <ele>140.01</ele>
        <time>2016-03-27T09:38:01Z</time>
      </trkpt>
      <trkpt lat="41.579908750" lon="2.507002370">
        <ele>141.45</ele>
        <time>2016-03-27T09:38:08Z</time>
      </trkpt>
      <trkpt lat="41.579810600" lon="2.507222230">
        <ele>142.89</ele>
        <time>2016-03-27T09:38:16Z</time>
      </trkpt>
      <trkpt lat="41.579679340" lon="2.507408470">
        <ele>144.82</ele>
        <time>2016-03-27T09:38:24Z</time>
      </trkpt>
      <trkpt lat="41.579546990" lon="2.507581980">
        <ele>147.22</ele>
        <time>2016-03-27T09:38:33Z</time>
      </trkpt>
      <trkpt lat="41.579446070" lon="2.507728330">
        <ele>148.66</ele>
        <time>2016-03-27T09:38:41Z</time>
      </trkpt>
      <trkpt lat="41.579329900" lon="2.507854720">
        <ele>149.14</ele>
        <time>2016-03-27T09:38:48Z</time>
      </trkpt>
      <trkpt lat="41.579156140" lon="2.508029910">
        <ele>149.14</ele>
        <time>2016-03-27T09:38:55Z</time>
      </trkpt>
      <trkpt lat="41.579121860" lon="2.508065950">
        <ele>149.14</ele>
        <time>2016-03-27T09:38:56Z</time>
      </trkpt>
      <trkpt lat="41.579053880" lon="2.508161250">
        <ele>147.70</ele>
        <time>2016-03-27T09:38:58Z</time>
      </trkpt>
      <trkpt lat="41.578791450" lon="2.508584540">
        <ele>145.78</ele>
        <time>2016-03-27T09:39:06Z</time>
      </trkpt>
      <trkpt lat="41.578599920" lon="2.508862060">
        <ele>143.85</ele>
        <time>2016-03-27T09:39:11Z</time>
      </trkpt>
      <trkpt lat="41.578457680" lon="2.509049310">
        <ele>142.41</ele>
        <time>2016-03-27T09:39:16Z</time>
      </trkpt>
      <trkpt lat="41.578402940" lon="2.509113770">
        <ele>141.93</ele>
        <time>2016-03-27T09:39:18Z</time>
      </trkpt>
      <trkpt lat="41.578294990" lon="2.509232370">
        <ele>141.45</ele>
        <time>2016-03-27T09:39:21Z</time>
      </trkpt>
      <trkpt lat="41.578120980" lon="2.509390290">
        <ele>139.05</ele>
        <time>2016-03-27T09:39:25Z</time>
      </trkpt>
      <trkpt lat="41.577818310" lon="2.509456420">
        <ele>136.64</ele>
        <time>2016-03-27T09:39:30Z</time>
      </trkpt>
      <trkpt lat="41.577443970" lon="2.509607130">
        <ele>131.36</ele>
        <time>2016-03-27T09:39:35Z</time>
      </trkpt>
      <trkpt lat="41.577336180" lon="2.509669410">
        <ele>129.92</ele>
        <time>2016-03-27T09:39:37Z</time>
      </trkpt>
      <trkpt lat="41.577251610" lon="2.509871240">
        <ele>127.99</ele>
        <time>2016-03-27T09:39:41Z</time>
      </trkpt>
      <trkpt lat="41.577330480" lon="2.510066120">
        <ele>127.99</ele>
        <time>2016-03-27T09:39:45Z</time>
      </trkpt>
      <trkpt lat="41.577348330" lon="2.510097470">
        <ele>127.99</ele>
        <time>2016-03-27T09:39:46Z</time>
      </trkpt>
      <trkpt lat="41.577384210" lon="2.510154890">
        <ele>129.43</ele>
        <time>2016-03-27T09:39:48Z</time>
      </trkpt>
      <trkpt lat="41.577501390" lon="2.510310870">
        <ele>129.43</ele>
        <time>2016-03-27T09:39:53Z</time>
      </trkpt>
      <trkpt lat="41.577666510" lon="2.510500390">
        <ele>129.43</ele>
        <time>2016-03-27T09:39:58Z</time>
      </trkpt>
      <trkpt lat="41.577889220" lon="2.510818900">
        <ele>127.99</ele>
        <time>2016-03-27T09:40:04Z</time>
      </trkpt>
      <trkpt lat="41.578154920" lon="2.511119560">
        <ele>123.67</ele>
        <time>2016-03-27T09:40:10Z</time>
      </trkpt>
      <trkpt lat="41.578281910" lon="2.511257190">
        <ele>120.30</ele>
        <time>2016-03-27T09:40:13Z</time>
      </trkpt>
      <trkpt lat="41.578421640" lon="2.511425330">
        <ele>117.42</ele>
        <time>2016-03-27T09:40:17Z</time>
      </trkpt>
      <trkpt lat="41.578579720" lon="2.511570930">
        <ele>116.94</ele>
        <time>2016-03-27T09:40:23Z</time>
      </trkpt>
      <trkpt lat="41.578693460" lon="2.511680900">
        <ele>117.42</ele>
        <time>2016-03-27T09:40:28Z</time>
      </trkpt>
      <trkpt lat="41.578843920" lon="2.511873930">
        <ele>117.42</ele>
        <time>2016-03-27T09:40:35Z</time>
      </trkpt>
      <trkpt lat="41.579043240" lon="2.512160840">
        <ele>117.42</ele>
        <time>2016-03-27T09:40:44Z</time>
      </trkpt>
      <trkpt lat="41.579215230" lon="2.512443150">
        <ele>117.42</ele>
        <time>2016-03-27T09:40:52Z</time>
      </trkpt>
      <trkpt lat="41.579347420" lon="2.512723770">
        <ele>117.42</ele>
        <time>2016-03-27T09:40:59Z</time>
      </trkpt>
      <trkpt lat="41.579385720" lon="2.513050420">
        <ele>117.42</ele>
        <time>2016-03-27T09:41:07Z</time>
      </trkpt>
      <trkpt lat="41.579511280" lon="2.513425670">
        <ele>117.42</ele>
        <time>2016-03-27T09:41:18Z</time>
      </trkpt>
      <trkpt lat="41.579538190" lon="2.513482330">
        <ele>117.42</ele>
        <time>2016-03-27T09:41:24Z</time>
      </trkpt>
      <trkpt lat="41.579525700" lon="2.513480740">
        <ele>117.42</ele>
        <time>2016-03-27T09:41:38Z</time>
      </trkpt>
      <trkpt lat="41.579552440" lon="2.513549890">
        <ele>117.42</ele>
        <time>2016-03-27T09:41:48Z</time>
      </trkpt>
      <trkpt lat="41.579576160" lon="2.513620470">
        <ele>117.42</ele>
        <time>2016-03-27T09:41:53Z</time>
      </trkpt>
      <trkpt lat="41.579607420" lon="2.513665980">
        <ele>117.42</ele>
        <time>2016-03-27T09:42:05Z</time>
      </trkpt>
      <trkpt lat="41.579646150" lon="2.513752570">
        <ele>118.38</ele>
        <time>2016-03-27T09:42:10Z</time>
      </trkpt>
      <trkpt lat="41.579691080" lon="2.513885090">
        <ele>118.86</ele>
        <time>2016-03-27T09:42:16Z</time>
      </trkpt>
      <trkpt lat="41.579779760" lon="2.514067810">
        <ele>119.82</ele>
        <time>2016-03-27T09:42:24Z</time>
      </trkpt>
      <trkpt lat="41.579892910" lon="2.514300830">
        <ele>120.30</ele>
        <time>2016-03-27T09:42:32Z</time>
      </trkpt>
      <trkpt lat="41.580007070" lon="2.514566700">
        <ele>121.26</ele>
        <time>2016-03-27T09:42:40Z</time>
      </trkpt>
      <trkpt lat="41.580040180" lon="2.514631160">
        <ele>121.26</ele>
        <time>2016-03-27T09:42:44Z</time>
      </trkpt>
      <trkpt lat="41.580104890" lon="2.514850010">
        <ele>122.71</ele>
        <time>2016-03-27T09:42:52Z</time>
      </trkpt>
      <trkpt lat="41.580134480" lon="2.515053270">
        <ele>124.15</ele>
        <time>2016-03-27T09:42:59Z</time>
      </trkpt>
      <trkpt lat="41.580152920" lon="2.515259470">
        <ele>125.59</ele>
        <time>2016-03-27T09:43:06Z</time>
      </trkpt>
      <trkpt lat="41.580166580" lon="2.515535900">
        <ele>126.55</ele>
        <time>2016-03-27T09:43:15Z</time>
      </trkpt>
      <trkpt lat="41.580212180" lon="2.515787530">
        <ele>127.51</ele>
        <time>2016-03-27T09:43:23Z</time>
      </trkpt>
      <trkpt lat="41.580308230" lon="2.516006710">
        <ele>128.47</ele>
        <time>2016-03-27T09:43:31Z</time>
      </trkpt>
      <trkpt lat="41.580345620" lon="2.516060270">
        <ele>128.47</ele>
        <time>2016-03-27T09:43:36Z</time>
      </trkpt>
      <trkpt lat="41.580356770" lon="2.516056580">
        <ele>128.47</ele>
        <time>2016-03-27T09:43:46Z</time>
      </trkpt>
      <trkpt lat="41.580380400" lon="2.516046780">
        <ele>128.47</ele>
        <time>2016-03-27T09:44:04Z</time>
      </trkpt>
      <trkpt lat="41.580368170" lon="2.516068910">
        <ele>128.47</ele>
        <time>2016-03-27T09:44:23Z</time>
      </trkpt>
      <trkpt lat="41.580363890" lon="2.516076790">
        <ele>128.47</ele>
        <time>2016-03-27T09:44:35Z</time>
      </trkpt>
      <trkpt lat="41.580364230" lon="2.516073010">
        <ele>128.47</ele>
        <time>2016-03-27T09:44:51Z</time>
      </trkpt>
      <trkpt lat="41.580355170" lon="2.516080310">
        <ele>128.95</ele>
        <time>2016-03-27T09:44:59Z</time>
      </trkpt>
      <trkpt lat="41.580423230" lon="2.516138730">
        <ele>128.95</ele>
        <time>2016-03-27T09:45:07Z</time>
      </trkpt>
      <trkpt lat="41.580594640" lon="2.516297480">
        <ele>128.95</ele>
        <time>2016-03-27T09:45:14Z</time>
      </trkpt>
      <trkpt lat="41.580654240" lon="2.516351210">
        <ele>128.95</ele>
        <time>2016-03-27T09:45:16Z</time>
      </trkpt>
      <trkpt lat="41.580742170" lon="2.516649440">
        <ele>128.95</ele>
        <time>2016-03-27T09:45:22Z</time>
      </trkpt>
      <trkpt lat="41.580732020" lon="2.516778350">
        <ele>128.95</ele>
        <time>2016-03-27T09:45:25Z</time>
      </trkpt>
      <trkpt lat="41.580671000" lon="2.517002400">
        <ele>129.43</ele>
        <time>2016-03-27T09:45:32Z</time>
      </trkpt>
      <trkpt lat="41.580678040" lon="2.517097870">
        <ele>130.40</ele>
        <time>2016-03-27T09:45:36Z</time>
      </trkpt>
      <trkpt lat="41.580656250" lon="2.517248490">
        <ele>131.84</ele>
        <time>2016-03-27T09:45:43Z</time>
      </trkpt>
      <trkpt lat="41.580654910" lon="2.517292330">
        <ele>132.32</ele>
        <time>2016-03-27T09:45:45Z</time>
      </trkpt>
      <trkpt lat="41.580647280" lon="2.517507160">
        <ele>134.72</ele>
        <time>2016-03-27T09:45:53Z</time>
      </trkpt>
      <trkpt lat="41.580651810" lon="2.517713020">
        <ele>136.16</ele>
        <time>2016-03-27T09:46:01Z</time>
      </trkpt>
      <trkpt lat="41.580680560" lon="2.517767670">
        <ele>136.64</ele>
        <time>2016-03-27T09:46:04Z</time>
      </trkpt>
      <trkpt lat="41.580802100" lon="2.517796000">
        <ele>138.09</ele>
        <time>2016-03-27T09:46:11Z</time>
      </trkpt>
      <trkpt lat="41.580897320" lon="2.517727180">
        <ele>140.01</ele>
        <time>2016-03-27T09:46:17Z</time>
      </trkpt>
      <trkpt lat="41.581028660" lon="2.517622320">
        <ele>141.45</ele>
        <time>2016-03-27T09:46:25Z</time>
      </trkpt>
      <trkpt lat="41.581164530" lon="2.517450910">
        <ele>142.89</ele>
        <time>2016-03-27T09:46:34Z</time>
      </trkpt>
      <trkpt lat="41.581344990" lon="2.517341610">
        <ele>143.37</ele>
        <time>2016-03-27T09:46:42Z</time>
      </trkpt>
      <trkpt lat="41.581558140" lon="2.517225860">
        <ele>143.85</ele>
        <time>2016-03-27T09:46:51Z</time>
      </trkpt>
      <trkpt lat="41.581750760" lon="2.517096020">
        <ele>144.82</ele>
        <time>2016-03-27T09:47:00Z</time>
      </trkpt>
      <trkpt lat="41.581845810" lon="2.516988480">
        <ele>145.30</ele>
        <time>2016-03-27T09:47:06Z</time>
      </trkpt>
      <trkpt lat="41.582033400" lon="2.516966270">
        <ele>145.78</ele>
        <time>2016-03-27T09:47:13Z</time>
      </trkpt>
      <trkpt lat="41.582221070" lon="2.516993770">
        <ele>144.34</ele>
        <time>2016-03-27T09:47:18Z</time>
      </trkpt>
      <trkpt lat="41.582388040" lon="2.516950350">
        <ele>141.45</ele>
        <time>2016-03-27T09:47:23Z</time>
      </trkpt>
      <trkpt lat="41.582417790" lon="2.516971890">
        <ele>140.49</ele>
        <time>2016-03-27T09:47:25Z</time>
      </trkpt>
      <trkpt lat="41.582418460" lon="2.517145310">
        <ele>138.57</ele>
        <time>2016-03-27T09:47:30Z</time>
      </trkpt>
      <trkpt lat="41.582344790" lon="2.517290230">
        <ele>136.64</ele>
        <time>2016-03-27T09:47:35Z</time>
      </trkpt>
      <trkpt lat="41.582389290" lon="2.517354940">
        <ele>134.72</ele>
        <time>2016-03-27T09:47:39Z</time>
      </trkpt>
      <trkpt lat="41.582414610" lon="2.517363490">
        <ele>134.72</ele>
        <time>2016-03-27T09:47:40Z</time>
      </trkpt>
      <trkpt lat="41.582552990" lon="2.517371620">
        <ele>133.28</ele>
        <time>2016-03-27T09:47:46Z</time>
      </trkpt>
      <trkpt lat="41.582624150" lon="2.517301630">
        <ele>132.32</ele>
        <time>2016-03-27T09:47:50Z</time>
      </trkpt>
      <trkpt lat="41.582669330" lon="2.517321500">
        <ele>130.88</ele>
        <time>2016-03-27T09:47:53Z</time>
      </trkpt>
      <trkpt lat="41.582678050" lon="2.517407410">
        <ele>129.43</ele>
        <time>2016-03-27T09:47:58Z</time>
      </trkpt>
      <trkpt lat="41.582685180" lon="2.517413780">
        <ele>128.95</ele>
        <time>2016-03-27T09:47:59Z</time>
      </trkpt>
      <trkpt lat="41.582727340" lon="2.517368350">
        <ele>128.47</ele>
        <time>2016-03-27T09:48:03Z</time>
      </trkpt>
      <trkpt lat="41.582808140" lon="2.517334150">
        <ele>127.03</ele>
        <time>2016-03-27T09:48:07Z</time>
      </trkpt>
      <trkpt lat="41.582860860" lon="2.517405320">
        <ele>125.11</ele>
        <time>2016-03-27T09:48:11Z</time>
      </trkpt>
      <trkpt lat="41.582838230" lon="2.517537420">
        <ele>122.22</ele>
        <time>2016-03-27T09:48:17Z</time>
      </trkpt>
      <trkpt lat="41.582820710" lon="2.517601370">
        <ele>121.74</ele>
        <time>2016-03-27T09:48:19Z</time>
      </trkpt>
      <trkpt lat="41.582799920" lon="2.517756850">
        <ele>119.34</ele>
        <time>2016-03-27T09:48:25Z</time>
      </trkpt>
      <trkpt lat="41.582828920" lon="2.517797340">
        <ele>118.38</ele>
        <time>2016-03-27T09:48:28Z</time>
      </trkpt>
      <trkpt lat="41.582951800" lon="2.517696250">
        <ele>116.46</ele>
        <time>2016-03-27T09:48:35Z</time>
      </trkpt>
      <trkpt lat="41.583018770" lon="2.517613440">
        <ele>114.53</ele>
        <time>2016-03-27T09:48:40Z</time>
      </trkpt>
      <trkpt lat="41.583066720" lon="2.517581760">
        <ele>113.09</ele>
        <time>2016-03-27T09:48:43Z</time>
      </trkpt>
      <trkpt lat="41.583107960" lon="2.517682760">
        <ele>111.65</ele>
        <time>2016-03-27T09:48:48Z</time>
      </trkpt>
      <trkpt lat="41.583098150" lon="2.517731290">
        <ele>110.21</ele>
        <time>2016-03-27T09:48:51Z</time>
      </trkpt>
      <trkpt lat="41.583127400" lon="2.517909910">
        <ele>107.81</ele>
        <time>2016-03-27T09:48:58Z</time>
      </trkpt>
      <trkpt lat="41.583196890" lon="2.518074440">
        <ele>104.92</ele>
        <time>2016-03-27T09:49:05Z</time>
      </trkpt>
      <trkpt lat="41.583241820" lon="2.518165300">
        <ele>103.00</ele>
        <time>2016-03-27T09:49:12Z</time>
      </trkpt>
      <trkpt lat="41.583258500" lon="2.518222550">
        <ele>102.04</ele>
        <time>2016-03-27T09:49:20Z</time>
      </trkpt>
      <trkpt lat="41.583249190" lon="2.518245600">
        <ele>101.56</ele>
        <time>2016-03-27T09:49:28Z</time>
      </trkpt>
      <trkpt lat="41.583257490" lon="2.518285420">
        <ele>101.08</ele>
        <time>2016-03-27T09:49:37Z</time>
      </trkpt>
      <trkpt lat="41.583259340" lon="2.518319950">
        <ele>99.63</ele>
        <time>2016-03-27T09:49:44Z</time>
      </trkpt>
      <trkpt lat="41.583262770" lon="2.518343840">
        <ele>98.19</ele>
        <time>2016-03-27T09:49:51Z</time>
      </trkpt>
      <trkpt lat="41.583265540" lon="2.518379880">
        <ele>97.71</ele>
        <time>2016-03-27T09:50:02Z</time>
      </trkpt>
      <trkpt lat="41.583257830" lon="2.518402010">
        <ele>97.71</ele>
        <time>2016-03-27T09:50:11Z</time>
      </trkpt>
      <trkpt lat="41.583257660" lon="2.518404190">
        <ele>97.71</ele>
        <time>2016-03-27T09:50:19Z</time>
      </trkpt>
      <trkpt lat="41.583259840" lon="2.518424220">
        <ele>97.23</ele>
        <time>2016-03-27T09:50:27Z</time>
      </trkpt>
      <trkpt lat="41.583257160" lon="2.518446600">
        <ele>95.79</ele>
        <time>2016-03-27T09:50:34Z</time>
      </trkpt>
      <trkpt lat="41.583277440" lon="2.518473170">
        <ele>94.83</ele>
        <time>2016-03-27T09:50:44Z</time>
      </trkpt>
      <trkpt lat="41.583277780" lon="2.518513070">
        <ele>94.35</ele>
        <time>2016-03-27T09:50:51Z</time>
      </trkpt>
      <trkpt lat="41.583268220" lon="2.518554730">
        <ele>93.39</ele>
        <time>2016-03-27T09:50:55Z</time>
      </trkpt>
      <trkpt lat="41.583260170" lon="2.518638970">
        <ele>92.90</ele>
        <time>2016-03-27T09:51:04Z</time>
      </trkpt>
      <trkpt lat="41.583241650" lon="2.518639220">
        <ele>92.90</ele>
        <time>2016-03-27T09:51:17Z</time>
      </trkpt>
      <trkpt lat="41.583263530" lon="2.518665870">
        <ele>92.90</ele>
        <time>2016-03-27T09:51:25Z</time>
      </trkpt>
      <trkpt lat="41.583267970" lon="2.518679450">
        <ele>92.90</ele>
        <time>2016-03-27T09:51:26Z</time>
      </trkpt>
      <trkpt lat="41.583266630" lon="2.518774750">
        <ele>94.35</ele>
        <time>2016-03-27T09:51:31Z</time>
      </trkpt>
      <trkpt lat="41.583279620" lon="2.518968460">
        <ele>95.79</ele>
        <time>2016-03-27T09:51:39Z</time>
      </trkpt>
      <trkpt lat="41.583300160" lon="2.519203070">
        <ele>96.75</ele>
        <time>2016-03-27T09:51:48Z</time>
      </trkpt>
      <trkpt lat="41.583370310" lon="2.519411940">
        <ele>97.71</ele>
        <time>2016-03-27T09:51:57Z</time>
      </trkpt>
      <trkpt lat="41.583455390" lon="2.519484030">
        <ele>98.67</ele>
        <time>2016-03-27T09:52:02Z</time>
      </trkpt>
      <trkpt lat="41.583587320" lon="2.519542030">
        <ele>100.11</ele>
        <time>2016-03-27T09:52:10Z</time>
      </trkpt>
      <trkpt lat="41.583765940" lon="2.519606820">
        <ele>101.08</ele>
        <time>2016-03-27T09:52:19Z</time>
      </trkpt>
      <trkpt lat="41.583950090" lon="2.519611180">
        <ele>102.04</ele>
        <time>2016-03-27T09:52:28Z</time>
      </trkpt>
      <trkpt lat="41.584126780" lon="2.519575890">
        <ele>103.96</ele>
        <time>2016-03-27T09:52:38Z</time>
      </trkpt>
      <trkpt lat="41.584257870" lon="2.519487130">
        <ele>104.92</ele>
        <time>2016-03-27T09:52:46Z</time>
      </trkpt>
      <trkpt lat="41.584380920" lon="2.519394170">
        <ele>107.32</ele>
        <time>2016-03-27T09:52:54Z</time>
      </trkpt>
      <trkpt lat="41.584457190" lon="2.519352680">
        <ele>108.29</ele>
        <time>2016-03-27T09:52:59Z</time>
      </trkpt>
      <trkpt lat="41.584560370" lon="2.519261320">
        <ele>108.77</ele>
        <time>2016-03-27T09:53:06Z</time>
      </trkpt>
      <trkpt lat="41.584570100" lon="2.519240120">
        <ele>109.25</ele>
        <time>2016-03-27T09:53:07Z</time>
      </trkpt>
      <trkpt lat="41.584611250" lon="2.519176500">
        <ele>109.73</ele>
        <time>2016-03-27T09:53:11Z</time>
      </trkpt>
      <trkpt lat="41.584709660" lon="2.519010620">
        <ele>112.13</ele>
        <time>2016-03-27T09:53:21Z</time>
      </trkpt>
      <trkpt lat="41.584715690" lon="2.518977760">
        <ele>112.61</ele>
        <time>2016-03-27T09:53:23Z</time>
      </trkpt>
      <trkpt lat="41.584769500" lon="2.518857820">
        <ele>113.57</ele>
        <time>2016-03-27T09:53:30Z</time>
      </trkpt>
      <trkpt lat="41.584797000" lon="2.518802580">
        <ele>114.05</ele>
        <time>2016-03-27T09:53:33Z</time>
      </trkpt>
      <trkpt lat="41.584851650" lon="2.518575680">
        <ele>115.50</ele>
        <time>2016-03-27T09:53:42Z</time>
      </trkpt>
      <trkpt lat="41.584903950" lon="2.518345260">
        <ele>117.90</ele>
        <time>2016-03-27T09:53:52Z</time>
      </trkpt>
      <trkpt lat="41.584939820" lon="2.518192550">
        <ele>118.86</ele>
        <time>2016-03-27T09:53:59Z</time>
      </trkpt>
      <trkpt lat="41.584943760" lon="2.518144520">
        <ele>119.34</ele>
        <time>2016-03-27T09:54:01Z</time>
      </trkpt>
      <trkpt lat="41.584949880" lon="2.518017450">
        <ele>120.30</ele>
        <time>2016-03-27T09:54:07Z</time>
      </trkpt>
      <trkpt lat="41.584954740" lon="2.517943770">
        <ele>121.26</ele>
        <time>2016-03-27T09:54:11Z</time>
      </trkpt>
      <trkpt lat="41.584979390" lon="2.517876040">
        <ele>122.22</ele>
        <time>2016-03-27T09:54:15Z</time>
      </trkpt>
      <trkpt lat="41.585023980" lon="2.517787280">
        <ele>122.71</ele>
        <time>2016-03-27T09:54:19Z</time>
      </trkpt>
      <trkpt lat="41.585103020" lon="2.517705050">
        <ele>124.15</ele>
        <time>2016-03-27T09:54:26Z</time>
      </trkpt>
      <trkpt lat="41.585206540" lon="2.517621820">
        <ele>125.59</ele>
        <time>2016-03-27T09:54:33Z</time>
      </trkpt>
      <trkpt lat="41.585299570" lon="2.517574800">
        <ele>127.03</ele>
        <time>2016-03-27T09:54:40Z</time>
      </trkpt>
      <trkpt lat="41.585313910" lon="2.517566080">
        <ele>127.03</ele>
        <time>2016-03-27T09:54:41Z</time>
      </trkpt>
      <trkpt lat="41.585376440" lon="2.517500120">
        <ele>127.03</ele>
        <time>2016-03-27T09:54:45Z</time>
      </trkpt>
      <trkpt lat="41.585419350" lon="2.517442700">
        <ele>127.51</ele>
        <time>2016-03-27T09:54:48Z</time>
      </trkpt>
      <trkpt lat="41.585476270" lon="2.517367260">
        <ele>128.95</ele>
        <time>2016-03-27T09:54:53Z</time>
      </trkpt>
      <trkpt lat="41.585557900" lon="2.517245390">
        <ele>129.43</ele>
        <time>2016-03-27T09:55:00Z</time>
      </trkpt>
      <trkpt lat="41.585675590" lon="2.517079340">
        <ele>130.40</ele>
        <time>2016-03-27T09:55:10Z</time>
      </trkpt>
      <trkpt lat="41.585709700" lon="2.517011620">
        <ele>130.88</ele>
        <time>2016-03-27T09:55:13Z</time>
      </trkpt>
      <trkpt lat="41.585740460" lon="2.516916650">
        <ele>130.88</ele>
        <time>2016-03-27T09:55:18Z</time>
      </trkpt>
      <trkpt lat="41.585768290" lon="2.516750350">
        <ele>132.32</ele>
        <time>2016-03-27T09:55:26Z</time>
      </trkpt>
      <trkpt lat="41.585782120" lon="2.516620440">
        <ele>132.80</ele>
        <time>2016-03-27T09:55:32Z</time>
      </trkpt>
      <trkpt lat="41.585773150" lon="2.516558910">
        <ele>133.28</ele>
        <time>2016-03-27T09:55:35Z</time>
      </trkpt>
      <trkpt lat="41.585735430" lon="2.516343330">
        <ele>134.72</ele>
        <time>2016-03-27T09:55:44Z</time>
      </trkpt>
      <trkpt lat="41.585716070" lon="2.516119780">
        <ele>135.68</ele>
        <time>2016-03-27T09:55:53Z</time>
      </trkpt>
      <trkpt lat="41.585713470" lon="2.515932280">
        <ele>136.64</ele>
        <time>2016-03-27T09:56:01Z</time>
      </trkpt>
      <trkpt lat="41.585741550" lon="2.515865730">
        <ele>137.61</ele>
        <time>2016-03-27T09:56:05Z</time>
      </trkpt>
      <trkpt lat="41.585765110" lon="2.515857680">
        <ele>138.09</ele>
        <time>2016-03-27T09:56:07Z</time>
      </trkpt>
      <trkpt lat="41.585850350" lon="2.515944690">
        <ele>138.57</ele>
        <time>2016-03-27T09:56:14Z</time>
      </trkpt>
      <trkpt lat="41.585988990" lon="2.516062120">
        <ele>140.01</ele>
        <time>2016-03-27T09:56:23Z</time>
      </trkpt>
      <trkpt lat="41.586129800" lon="2.516129840">
        <ele>140.97</ele>
        <time>2016-03-27T09:56:31Z</time>
      </trkpt>
      <trkpt lat="41.586137260" lon="2.516126740">
        <ele>140.97</ele>
        <time>2016-03-27T09:56:35Z</time>
      </trkpt>
      <trkpt lat="41.586244380" lon="2.516112410">
        <ele>140.97</ele>
        <time>2016-03-27T09:56:41Z</time>
      </trkpt>
      <trkpt lat="41.586416880" lon="2.516052390">
        <ele>140.97</ele>
        <time>2016-03-27T09:56:48Z</time>
      </trkpt>
      <trkpt lat="41.586565490" lon="2.515991540">
        <ele>140.49</ele>
        <time>2016-03-27T09:56:53Z</time>
      </trkpt>
      <trkpt lat="41.586680740" lon="2.516118020">
        <ele>140.49</ele>
        <time>2016-03-27T09:56:57Z</time>
      </trkpt>
      <trkpt lat="41.586691310" lon="2.516302170">
        <ele>140.97</ele>
        <time>2016-03-27T09:57:00Z</time>
      </trkpt>
      <trkpt lat="41.586682000" lon="2.516512730">
        <ele>139.53</ele>
        <time>2016-03-27T09:57:04Z</time>
      </trkpt>
      <trkpt lat="41.586706310" lon="2.516853700">
        <ele>139.05</ele>
        <time>2016-03-27T09:57:11Z</time>
      </trkpt>
      <trkpt lat="41.586697840" lon="2.517070960">
        <ele>140.01</ele>
        <time>2016-03-27T09:57:16Z</time>
      </trkpt>
      <trkpt lat="41.586663560" lon="2.517548560">
        <ele>140.01</ele>
        <time>2016-03-27T09:57:26Z</time>
      </trkpt>
      <trkpt lat="41.586644530" lon="2.517647720">
        <ele>140.01</ele>
        <time>2016-03-27T09:57:28Z</time>
      </trkpt>
      <trkpt lat="41.586714610" lon="2.517968410">
        <ele>140.01</ele>
        <time>2016-03-27T09:57:34Z</time>
      </trkpt>
      <trkpt lat="41.586832620" lon="2.518019540">
        <ele>138.57</ele>
        <time>2016-03-27T09:57:37Z</time>
      </trkpt>
      <trkpt lat="41.587017860" lon="2.517979060">
        <ele>138.57</ele>
        <time>2016-03-27T09:57:41Z</time>
      </trkpt>
      <trkpt lat="41.587161030" lon="2.517907730">
        <ele>138.57</ele>
        <time>2016-03-27T09:57:44Z</time>
      </trkpt>
      <trkpt lat="41.587446520" lon="2.517976380">
        <ele>138.57</ele>
        <time>2016-03-27T09:57:51Z</time>
      </trkpt>
      <trkpt lat="41.587523380" lon="2.518020880">
        <ele>139.53</ele>
        <time>2016-03-27T09:57:54Z</time>
      </trkpt>
      <trkpt lat="41.587628650" lon="2.518075450">
        <ele>141.45</ele>
        <time>2016-03-27T09:57:59Z</time>
      </trkpt>
      <trkpt lat="41.587652040" lon="2.518170000">
        <ele>142.89</ele>
        <time>2016-03-27T09:58:03Z</time>
      </trkpt>
      <trkpt lat="41.587637290" lon="2.518234450">
        <ele>142.89</ele>
        <time>2016-03-27T09:58:05Z</time>
      </trkpt>
      <trkpt lat="41.587464540" lon="2.518604520">
        <ele>139.53</ele>
        <time>2016-03-27T09:58:11Z</time>
      </trkpt>
      <trkpt lat="41.587389350" lon="2.518820350">
        <ele>137.61</ele>
        <time>2016-03-27T09:58:14Z</time>
      </trkpt>
      <trkpt lat="41.587325560" lon="2.519036940">
        <ele>135.68</ele>
        <time>2016-03-27T09:58:17Z</time>
      </trkpt>
      <trkpt lat="41.587355320" lon="2.519341790">
        <ele>133.28</ele>
        <time>2016-03-27T09:58:21Z</time>
      </trkpt>
      <trkpt lat="41.587405530" lon="2.519393000">
        <ele>132.80</ele>
        <time>2016-03-27T09:58:22Z</time>
      </trkpt>
      <trkpt lat="41.587640050" lon="2.519578490">
        <ele>131.84</ele>
        <time>2016-03-27T09:58:26Z</time>
      </trkpt>
      <trkpt lat="41.587990920" lon="2.519660380">
        <ele>127.51</ele>
        <time>2016-03-27T09:58:31Z</time>
      </trkpt>
      <trkpt lat="41.588061410" lon="2.519622830">
        <ele>127.03</ele>
        <time>2016-03-27T09:58:32Z</time>
      </trkpt>
      <trkpt lat="41.588595930" lon="2.519309100">
        <ele>126.55</ele>
        <time>2016-03-27T09:58:40Z</time>
      </trkpt>
      <trkpt lat="41.588792570" lon="2.519311950">
        <ele>124.63</ele>
        <time>2016-03-27T09:58:43Z</time>
      </trkpt>
      <trkpt lat="41.589115860" lon="2.519258560">
        <ele>120.30</ele>
        <time>2016-03-27T09:58:48Z</time>
      </trkpt>
      <trkpt lat="41.589286850" lon="2.519355120">
        <ele>118.86</ele>
        <time>2016-03-27T09:58:51Z</time>
      </trkpt>
      <trkpt lat="41.589549120" lon="2.519321420">
        <ele>116.94</ele>
        <time>2016-03-27T09:58:55Z</time>
      </trkpt>
      <trkpt lat="41.589710550" lon="2.519332150">
        <ele>115.50</ele>
        <time>2016-03-27T09:58:58Z</time>
      </trkpt>
      <trkpt lat="41.589709960" lon="2.519426280">
        <ele>115.50</ele>
        <time>2016-03-27T09:59:00Z</time>
      </trkpt>
      <trkpt lat="41.589655980" lon="2.519549740">
        <ele>114.53</ele>
        <time>2016-03-27T09:59:02Z</time>
      </trkpt>
      <trkpt lat="41.589417180" lon="2.519866080">
        <ele>112.13</ele>
        <time>2016-03-27T09:59:07Z</time>
      </trkpt>
      <trkpt lat="41.589120300" lon="2.520015690">
        <ele>109.25</ele>
        <time>2016-03-27T09:59:11Z</time>
      </trkpt>
      <trkpt lat="41.588796920" lon="2.520261700">
        <ele>106.36</ele>
        <time>2016-03-27T09:59:16Z</time>
      </trkpt>
      <trkpt lat="41.588590140" lon="2.520610720">
        <ele>104.44</ele>
        <time>2016-03-27T09:59:20Z</time>
      </trkpt>
      <trkpt lat="41.588493830" lon="2.520795460">
        <ele>103.96</ele>
        <time>2016-03-27T09:59:22Z</time>
      </trkpt>
      <trkpt lat="41.588393250" lon="2.520983970">
        <ele>102.04</ele>
        <time>2016-03-27T09:59:24Z</time>
      </trkpt>
      <trkpt lat="41.588149670" lon="2.521316900">
        <ele>99.15</ele>
        <time>2016-03-27T09:59:28Z</time>
      </trkpt>
      <trkpt lat="41.587839120" lon="2.521731130">
        <ele>95.31</ele>
        <time>2016-03-27T09:59:34Z</time>
      </trkpt>
      <trkpt lat="41.587793440" lon="2.521794330">
        <ele>95.31</ele>
        <time>2016-03-27T09:59:35Z</time>
      </trkpt>
      <trkpt lat="41.587722030" lon="2.521897010">
        <ele>93.87</ele>
        <time>2016-03-27T09:59:37Z</time>
      </trkpt>
      <trkpt lat="41.587736110" lon="2.522011090">
        <ele>92.42</ele>
        <time>2016-03-27T09:59:41Z</time>
      </trkpt>
      <trkpt lat="41.588006760" lon="2.522107650">
        <ele>93.39</ele>
        <time>2016-03-27T09:59:50Z</time>
      </trkpt>
      <trkpt lat="41.588242040" lon="2.522224320">
        <ele>94.35</ele>
        <time>2016-03-27T09:59:58Z</time>
      </trkpt>
      <trkpt lat="41.588502800" lon="2.522349300">
        <ele>95.31</ele>
        <time>2016-03-27T10:00:07Z</time>
      </trkpt>
      <trkpt lat="41.588679330" lon="2.522420130">
        <ele>95.79</ele>
        <time>2016-03-27T10:00:14Z</time>
      </trkpt>
      <trkpt lat="41.588846800" lon="2.522492550">
        <ele>96.27</ele>
        <time>2016-03-27T10:00:21Z</time>
      </trkpt>
      <trkpt lat="41.589061710" lon="2.522590360">
        <ele>97.23</ele>
        <time>2016-03-27T10:00:28Z</time>
      </trkpt>
      <trkpt lat="41.589313500" lon="2.522728410">
        <ele>98.19</ele>
        <time>2016-03-27T10:00:37Z</time>
      </trkpt>
      <trkpt lat="41.589537800" lon="2.522834360">
        <ele>99.15</ele>
        <time>2016-03-27T10:00:45Z</time>
      </trkpt>
      <trkpt lat="41.589564960" lon="2.522844920">
        <ele>99.63</ele>
        <time>2016-03-27T10:00:46Z</time>
      </trkpt>
      <trkpt lat="41.589753970" lon="2.522965540">
        <ele>100.11</ele>
        <time>2016-03-27T10:00:54Z</time>
      </trkpt>
      <trkpt lat="41.589944410" lon="2.523046420">
        <ele>101.08</ele>
        <time>2016-03-27T10:01:01Z</time>
      </trkpt>
      <trkpt lat="41.590164600" lon="2.523238120">
        <ele>102.04</ele>
        <time>2016-03-27T10:01:10Z</time>
      </trkpt>
      <trkpt lat="41.590272050" lon="2.523367110">
        <ele>102.52</ele>
        <time>2016-03-27T10:01:15Z</time>
      </trkpt>
      <trkpt lat="41.590237770" lon="2.523541460">
        <ele>103.48</ele>
        <time>2016-03-27T10:01:21Z</time>
      </trkpt>
      <trkpt lat="41.590163430" lon="2.523645560">
        <ele>104.92</ele>
        <time>2016-03-27T10:01:27Z</time>
      </trkpt>
      <trkpt lat="41.590131740" lon="2.523658640">
        <ele>105.40</ele>
        <time>2016-03-27T10:01:29Z</time>
      </trkpt>
      <trkpt lat="41.589965440" lon="2.523652270">
        <ele>107.32</ele>
        <time>2016-03-27T10:01:38Z</time>
      </trkpt>
      <trkpt lat="41.589793700" lon="2.523597200">
        <ele>108.77</ele>
        <time>2016-03-27T10:01:47Z</time>
      </trkpt>
      <trkpt lat="41.589657240" lon="2.523538190">
        <ele>110.21</ele>
        <time>2016-03-27T10:01:54Z</time>
      </trkpt>
      <trkpt lat="41.589481050" lon="2.523472310">
        <ele>111.65</ele>
        <time>2016-03-27T10:02:03Z</time>
      </trkpt>
      <trkpt lat="41.589315600" lon="2.523425200">
        <ele>113.09</ele>
        <time>2016-03-27T10:02:11Z</time>
      </trkpt>
      <trkpt lat="41.589102020" lon="2.523351610">
        <ele>114.53</ele>
        <time>2016-03-27T10:02:21Z</time>
      </trkpt>
      <trkpt lat="41.588940000" lon="2.523375410">
        <ele>115.98</ele>
        <time>2016-03-27T10:02:29Z</time>
      </trkpt>
      <trkpt lat="41.588801110" lon="2.523523600">
        <ele>118.38</ele>
        <time>2016-03-27T10:02:39Z</time>
      </trkpt>
      <trkpt lat="41.588747220" lon="2.523634160">
        <ele>119.82</ele>
        <time>2016-03-27T10:02:46Z</time>
      </trkpt>
      <trkpt lat="41.588713190" lon="2.523765920">
        <ele>122.22</ele>
        <time>2016-03-27T10:02:53Z</time>
      </trkpt>
      <trkpt lat="41.588689380" lon="2.523874800">
        <ele>124.15</ele>
        <time>2016-03-27T10:03:00Z</time>
      </trkpt>
      <trkpt lat="41.588669850" lon="2.523998100">
        <ele>126.07</ele>
        <time>2016-03-27T10:03:08Z</time>
      </trkpt>
      <trkpt lat="41.588666590" lon="2.524155850">
        <ele>127.03</ele>
        <time>2016-03-27T10:03:16Z</time>
      </trkpt>
      <trkpt lat="41.588652590" lon="2.524256850">
        <ele>128.47</ele>
        <time>2016-03-27T10:03:22Z</time>
      </trkpt>
      <trkpt lat="41.588593660" lon="2.524380820">
        <ele>129.92</ele>
        <time>2016-03-27T10:03:30Z</time>
      </trkpt>
      <trkpt lat="41.588565830" lon="2.524419960">
        <ele>129.92</ele>
        <time>2016-03-27T10:03:33Z</time>
      </trkpt>
      <trkpt lat="41.588489640" lon="2.524529260">
        <ele>132.32</ele>
        <time>2016-03-27T10:03:42Z</time>
      </trkpt>
      <trkpt lat="41.588427780" lon="2.524608890">
        <ele>132.80</ele>
        <time>2016-03-27T10:03:49Z</time>
      </trkpt>
      <trkpt lat="41.588391410" lon="2.524678880">
        <ele>134.72</ele>
        <time>2016-03-27T10:03:55Z</time>
      </trkpt>
      <trkpt lat="41.588427110" lon="2.524716600">
        <ele>134.72</ele>
        <time>2016-03-27T10:03:59Z</time>
      </trkpt>
      <trkpt lat="41.588480340" lon="2.524699840">
        <ele>135.68</ele>
        <time>2016-03-27T10:04:06Z</time>
      </trkpt>
      <trkpt lat="41.588502550" lon="2.524679130">
        <ele>136.16</ele>
        <time>2016-03-27T10:04:09Z</time>
      </trkpt>
      <trkpt lat="41.588594420" lon="2.524515600">
        <ele>136.16</ele>
        <time>2016-03-27T10:04:17Z</time>
      </trkpt>
      <trkpt lat="41.588678070" lon="2.524373280">
        <ele>136.64</ele>
        <time>2016-03-27T10:04:25Z</time>
      </trkpt>
      <trkpt lat="41.588733720" lon="2.524258700">
        <ele>137.61</ele>
        <time>2016-03-27T10:04:32Z</time>
      </trkpt>
      <trkpt lat="41.588879400" lon="2.524178820">
        <ele>140.01</ele>
        <time>2016-03-27T10:04:42Z</time>
      </trkpt>
      <trkpt lat="41.588988700" lon="2.524146290">
        <ele>141.45</ele>
        <time>2016-03-27T10:04:49Z</time>
      </trkpt>
      <trkpt lat="41.589099430" lon="2.524132800">
        <ele>142.89</ele>
        <time>2016-03-27T10:04:57Z</time>
      </trkpt>
      <trkpt lat="41.589243760" lon="2.524107990">
        <ele>145.30</ele>
        <time>2016-03-27T10:05:06Z</time>
      </trkpt>
      <trkpt lat="41.589259100" lon="2.524107070">
        <ele>145.30</ele>
        <time>2016-03-27T10:05:07Z</time>
      </trkpt>
      <trkpt lat="41.589376360" lon="2.524144790">
        <ele>147.22</ele>
        <time>2016-03-27T10:05:15Z</time>
      </trkpt>
      <trkpt lat="41.589463790" lon="2.524236320">
        <ele>149.62</ele>
        <time>2016-03-27T10:05:23Z</time>
      </trkpt>
      <trkpt lat="41.589555740" lon="2.524337070">
        <ele>151.06</ele>
        <time>2016-03-27T10:05:31Z</time>
      </trkpt>
      <trkpt lat="41.589587670" lon="2.524375960">
        <ele>152.51</ele>
        <time>2016-03-27T10:05:35Z</time>
      </trkpt>
      <trkpt lat="41.589654220" lon="2.524544690">
        <ele>153.95</ele>
        <time>2016-03-27T10:05:46Z</time>
      </trkpt>
      <trkpt lat="41.589709800" lon="2.524667900">
        <ele>155.87</ele>
        <time>2016-03-27T10:05:55Z</time>
      </trkpt>
      <trkpt lat="41.589717260" lon="2.524683990">
        <ele>155.87</ele>
        <time>2016-03-27T10:05:56Z</time>
      </trkpt>
      <trkpt lat="41.589781040" lon="2.524791370">
        <ele>157.79</ele>
        <time>2016-03-27T10:06:04Z</time>
      </trkpt>
      <trkpt lat="41.589840640" lon="2.524908290">
        <ele>159.72</ele>
        <time>2016-03-27T10:06:14Z</time>
      </trkpt>
      <trkpt lat="41.589853630" lon="2.524966300">
        <ele>160.20</ele>
        <time>2016-03-27T10:06:18Z</time>
      </trkpt>
      <trkpt lat="41.589894620" lon="2.525073250">
        <ele>161.64</ele>
        <time>2016-03-27T10:06:25Z</time>
      </trkpt>
      <trkpt lat="41.589903170" lon="2.525086410">
        <ele>161.64</ele>
        <time>2016-03-27T10:06:26Z</time>
      </trkpt>
      <trkpt lat="41.589923450" lon="2.525115490">
        <ele>161.64</ele>
        <time>2016-03-27T10:06:28Z</time>
      </trkpt>
      <trkpt lat="41.589978100" lon="2.525292350">
        <ele>161.64</ele>
        <time>2016-03-27T10:06:34Z</time>
      </trkpt>
      <trkpt lat="41.589999890" lon="2.525341550">
        <ele>161.64</ele>
        <time>2016-03-27T10:06:35Z</time>
      </trkpt>
      <trkpt lat="41.590096200" lon="2.525624020">
        <ele>160.68</ele>
        <time>2016-03-27T10:06:42Z</time>
      </trkpt>
      <trkpt lat="41.590164850" lon="2.525689400">
        <ele>161.64</ele>
        <time>2016-03-27T10:06:48Z</time>
      </trkpt>
      <trkpt lat="41.590174410" lon="2.525692090">
        <ele>162.12</ele>
        <time>2016-03-27T10:06:49Z</time>
      </trkpt>
      <trkpt lat="41.590204920" lon="2.525680350">
        <ele>162.60</ele>
        <time>2016-03-27T10:06:52Z</time>
      </trkpt>
      <trkpt lat="41.590264930" lon="2.525577000">
        <ele>163.56</ele>
        <time>2016-03-27T10:07:00Z</time>
      </trkpt>
      <trkpt lat="41.590322680" lon="2.525487820">
        <ele>165.48</ele>
        <time>2016-03-27T10:07:08Z</time>
      </trkpt>
      <trkpt lat="41.590410440" lon="2.525396870">
        <ele>167.89</ele>
        <time>2016-03-27T10:07:18Z</time>
      </trkpt>
      <trkpt lat="41.590440030" lon="2.525340130">
        <ele>167.89</ele>
        <time>2016-03-27T10:07:22Z</time>
      </trkpt>
      <trkpt lat="41.590496020" lon="2.525296040">
        <ele>167.89</ele>
        <time>2016-03-27T10:07:29Z</time>
      </trkpt>
      <trkpt lat="41.590553850" lon="2.525276430">
        <ele>168.37</ele>
        <time>2016-03-27T10:07:36Z</time>
      </trkpt>
      <trkpt lat="41.590542710" lon="2.525282210">
        <ele>168.37</ele>
        <time>2016-03-27T10:07:44Z</time>
      </trkpt>
      <trkpt lat="41.590473810" lon="2.525368710">
        <ele>168.37</ele>
        <time>2016-03-27T10:07:52Z</time>
      </trkpt>
      <trkpt lat="41.590478500" lon="2.525532750">
        <ele>169.33</ele>
        <time>2016-03-27T10:08:01Z</time>
      </trkpt>
      <trkpt lat="41.590470120" lon="2.525664090">
        <ele>171.73</ele>
        <time>2016-03-27T10:08:10Z</time>
      </trkpt>
      <trkpt lat="41.590487300" lon="2.525775820">
        <ele>173.17</ele>
        <time>2016-03-27T10:08:18Z</time>
      </trkpt>
      <trkpt lat="41.590509180" lon="2.525858470">
        <ele>174.62</ele>
        <time>2016-03-27T10:08:23Z</time>
      </trkpt>
      <trkpt lat="41.590536250" lon="2.525848660">
        <ele>175.10</ele>
        <time>2016-03-27T10:08:26Z</time>
      </trkpt>
      <trkpt lat="41.590558550" lon="2.525787390">
        <ele>176.06</ele>
        <time>2016-03-27T10:08:31Z</time>
      </trkpt>
      <trkpt lat="41.590563410" lon="2.525725030">
        <ele>177.02</ele>
        <time>2016-03-27T10:08:36Z</time>
      </trkpt>
      <trkpt lat="41.590612860" lon="2.525667860">
        <ele>178.46</ele>
        <time>2016-03-27T10:08:44Z</time>
      </trkpt>
      <trkpt lat="41.590666420" lon="2.525666520">
        <ele>178.94</ele>
        <time>2016-03-27T10:08:49Z</time>
      </trkpt>
      <trkpt lat="41.590781510" lon="2.525724610">
        <ele>181.35</ele>
        <time>2016-03-27T10:08:59Z</time>
      </trkpt>
      <trkpt lat="41.590799780" lon="2.525734580">
        <ele>181.35</ele>
        <time>2016-03-27T10:09:01Z</time>
      </trkpt>
      <trkpt lat="41.590914020" lon="2.525800130">
        <ele>183.75</ele>
        <time>2016-03-27T10:09:12Z</time>
      </trkpt>
      <trkpt lat="41.590997340" lon="2.525874980">
        <ele>184.71</ele>
        <time>2016-03-27T10:09:20Z</time>
      </trkpt>
      <trkpt lat="41.591063560" lon="2.525898780">
        <ele>185.19</ele>
        <time>2016-03-27T10:09:24Z</time>
      </trkpt>
      <trkpt lat="41.591116110" lon="2.525894090">
        <ele>185.19</ele>
        <time>2016-03-27T10:09:28Z</time>
      </trkpt>
      <trkpt lat="41.591172350" lon="2.525892330">
        <ele>186.63</ele>
        <time>2016-03-27T10:09:33Z</time>
      </trkpt>
      <trkpt lat="41.591338400" lon="2.525925520">
        <ele>187.59</ele>
        <time>2016-03-27T10:09:43Z</time>
      </trkpt>
      <trkpt lat="41.591481900" lon="2.526027950">
        <ele>187.59</ele>
        <time>2016-03-27T10:09:50Z</time>
      </trkpt>
      <trkpt lat="41.591550460" lon="2.526114110">
        <ele>188.56</ele>
        <time>2016-03-27T10:09:57Z</time>
      </trkpt>
      <trkpt lat="41.591569660" lon="2.526193830">
        <ele>190.48</ele>
        <time>2016-03-27T10:10:04Z</time>
      </trkpt>
      <trkpt lat="41.591563960" lon="2.526198520">
        <ele>190.48</ele>
        <time>2016-03-27T10:10:05Z</time>
      </trkpt>
      <trkpt lat="41.591537050" lon="2.526198770">
        <ele>190.96</ele>
        <time>2016-03-27T10:10:08Z</time>
      </trkpt>
      <trkpt lat="41.591471840" lon="2.526239420">
        <ele>192.88</ele>
        <time>2016-03-27T10:10:16Z</time>
      </trkpt>
      <trkpt lat="41.591442670" lon="2.526259290">
        <ele>193.84</ele>
        <time>2016-03-27T10:10:21Z</time>
      </trkpt>
      <trkpt lat="41.591386510" lon="2.526367160">
        <ele>195.28</ele>
        <time>2016-03-27T10:10:30Z</time>
      </trkpt>
      <trkpt lat="41.591373770" lon="2.526449980">
        <ele>197.21</ele>
        <time>2016-03-27T10:10:37Z</time>
      </trkpt>
      <trkpt lat="41.591356000" lon="2.526478060">
        <ele>197.69</ele>
        <time>2016-03-27T10:10:40Z</time>
      </trkpt>
      <trkpt lat="41.591339830" lon="2.526520550">
        <ele>199.13</ele>
        <time>2016-03-27T10:10:43Z</time>
      </trkpt>
      <trkpt lat="41.591318790" lon="2.526623990">
        <ele>200.09</ele>
        <time>2016-03-27T10:10:50Z</time>
      </trkpt>
      <trkpt lat="41.591254330" lon="2.526688950">
        <ele>201.05</ele>
        <time>2016-03-27T10:10:57Z</time>
      </trkpt>
      <trkpt lat="41.591225830" lon="2.526717110">
        <ele>201.53</ele>
        <time>2016-03-27T10:11:00Z</time>
      </trkpt>
      <trkpt lat="41.591165900" lon="2.526793640">
        <ele>202.01</ele>
        <time>2016-03-27T10:11:08Z</time>
      </trkpt>
      <trkpt lat="41.591113680" lon="2.526877870">
        <ele>202.49</ele>
        <time>2016-03-27T10:11:13Z</time>
      </trkpt>
      <trkpt lat="41.591013180" lon="2.526978370">
        <ele>203.46</ele>
        <time>2016-03-27T10:11:21Z</time>
      </trkpt>
      <trkpt lat="41.590969350" lon="2.527149950">
        <ele>203.46</ele>
        <time>2016-03-27T10:11:28Z</time>
      </trkpt>
      <trkpt lat="41.590974960" lon="2.527237460">
        <ele>203.46</ele>
        <time>2016-03-27T10:11:31Z</time>
      </trkpt>
      <trkpt lat="41.590979740" lon="2.527317760">
        <ele>203.94</ele>
        <time>2016-03-27T10:11:34Z</time>
      </trkpt>
      <trkpt lat="41.591047970" lon="2.527446250">
        <ele>203.46</ele>
        <time>2016-03-27T10:11:40Z</time>
      </trkpt>
      <trkpt lat="41.591130610" lon="2.527664100">
        <ele>203.94</ele>
        <time>2016-03-27T10:11:48Z</time>
      </trkpt>
      <trkpt lat="41.591181740" lon="2.527901890">
        <ele>203.94</ele>
        <time>2016-03-27T10:11:54Z</time>
      </trkpt>
      <trkpt lat="41.591198420" lon="2.527995770">
        <ele>203.94</ele>
        <time>2016-03-27T10:11:56Z</time>
      </trkpt>
      <trkpt lat="41.591243430" lon="2.528073130">
        <ele>202.98</ele>
        <time>2016-03-27T10:11:58Z</time>
      </trkpt>
      <trkpt lat="41.591300100" lon="2.528147230">
        <ele>202.98</ele>
        <time>2016-03-27T10:12:00Z</time>
      </trkpt>
      <trkpt lat="41.591373690" lon="2.528284270">
        <ele>202.49</ele>
        <time>2016-03-27T10:12:03Z</time>
      </trkpt>
      <trkpt lat="41.591514250" lon="2.528408830">
        <ele>202.49</ele>
        <time>2016-03-27T10:12:07Z</time>
      </trkpt>
      <trkpt lat="41.591704610" lon="2.528617870">
        <ele>202.01</ele>
        <time>2016-03-27T10:12:14Z</time>
      </trkpt>
      <trkpt lat="41.591793620" lon="2.528777970">
        <ele>200.57</ele>
        <time>2016-03-27T10:12:17Z</time>
      </trkpt>
      <trkpt lat="41.591926810" lon="2.528923900">
        <ele>196.73</ele>
        <time>2016-03-27T10:12:22Z</time>
      </trkpt>
      <trkpt lat="41.591964440" lon="2.528976700">
        <ele>196.25</ele>
        <time>2016-03-27T10:12:24Z</time>
      </trkpt>
      <trkpt lat="41.592101570" lon="2.528972430">
        <ele>194.32</ele>
        <time>2016-03-27T10:12:29Z</time>
      </trkpt>
      <trkpt lat="41.592162340" lon="2.529115590">
        <ele>193.36</ele>
        <time>2016-03-27T10:12:32Z</time>
      </trkpt>
      <trkpt lat="41.592240130" lon="2.529298150">
        <ele>191.44</ele>
        <time>2016-03-27T10:12:35Z</time>
      </trkpt>
      <trkpt lat="41.592399470" lon="2.529506690">
        <ele>190.48</ele>
        <time>2016-03-27T10:12:39Z</time>
      </trkpt>
      <trkpt lat="41.592546400" lon="2.529622610">
        <ele>189.52</ele>
        <time>2016-03-27T10:12:46Z</time>
      </trkpt>
      <trkpt lat="41.592721410" lon="2.529701070">
        <ele>189.52</ele>
        <time>2016-03-27T10:12:53Z</time>
      </trkpt>
      <trkpt lat="41.592773210" lon="2.529706930">
        <ele>189.52</ele>
        <time>2016-03-27T10:12:55Z</time>
      </trkpt>
      <trkpt lat="41.592886870" lon="2.529768880">
        <ele>190.96</ele>
        <time>2016-03-27T10:13:00Z</time>
      </trkpt>
      <trkpt lat="41.592933730" lon="2.529838700">
        <ele>191.92</ele>
        <time>2016-03-27T10:13:03Z</time>
      </trkpt>
      <trkpt lat="41.592956610" lon="2.529916480">
        <ele>192.40</ele>
        <time>2016-03-27T10:13:06Z</time>
      </trkpt>
      <trkpt lat="41.593069180" lon="2.530030220">
        <ele>192.40</ele>
        <time>2016-03-27T10:13:11Z</time>
      </trkpt>
      <trkpt lat="41.593184930" lon="2.530083620">
        <ele>192.88</ele>
        <time>2016-03-27T10:13:17Z</time>
      </trkpt>
      <trkpt lat="41.593352820" lon="2.530123010">
        <ele>195.28</ele>
        <time>2016-03-27T10:13:26Z</time>
      </trkpt>
      <trkpt lat="41.593499670" lon="2.530154360">
        <ele>197.69</ele>
        <time>2016-03-27T10:13:35Z</time>
      </trkpt>
      <trkpt lat="41.593620540" lon="2.530201380">
        <ele>200.09</ele>
        <time>2016-03-27T10:13:44Z</time>
      </trkpt>
      <trkpt lat="41.593760850" lon="2.530252010">
        <ele>202.49</ele>
        <time>2016-03-27T10:13:54Z</time>
      </trkpt>
      <trkpt lat="41.593798240" lon="2.530257790">
        <ele>203.46</ele>
        <time>2016-03-27T10:13:57Z</time>
      </trkpt>
      <trkpt lat="41.593818770" lon="2.530263240">
        <ele>203.94</ele>
        <time>2016-03-27T10:13:59Z</time>
      </trkpt>
      <trkpt lat="41.593960930" lon="2.530292160">
        <ele>204.42</ele>
        <time>2016-03-27T10:14:08Z</time>
      </trkpt>
      <trkpt lat="41.594125050" lon="2.530379160">
        <ele>204.42</ele>
        <time>2016-03-27T10:14:18Z</time>
      </trkpt>
      <trkpt lat="41.594280360" lon="2.530406740">
        <ele>205.38</ele>
        <time>2016-03-27T10:14:27Z</time>
      </trkpt>
      <trkpt lat="41.594437190" lon="2.530427110">
        <ele>205.86</ele>
        <time>2016-03-27T10:14:36Z</time>
      </trkpt>
      <trkpt lat="41.594550850" lon="2.530374720">
        <ele>207.30</ele>
        <time>2016-03-27T10:14:44Z</time>
      </trkpt>
      <trkpt lat="41.594602230" lon="2.530356700">
        <ele>209.22</ele>
        <time>2016-03-27T10:14:49Z</time>
      </trkpt>
      <trkpt lat="41.594687140" lon="2.530374550">
        <ele>209.70</ele>
        <time>2016-03-27T10:14:55Z</time>
      </trkpt>
      <trkpt lat="41.594717230" lon="2.530478070">
        <ele>210.19</ele>
        <time>2016-03-27T10:15:00Z</time>
      </trkpt>
      <trkpt lat="41.594722590" lon="2.530521570">
        <ele>210.67</ele>
        <time>2016-03-27T10:15:02Z</time>
      </trkpt>
      <trkpt lat="41.594745140" lon="2.530612090">
        <ele>210.67</ele>
        <time>2016-03-27T10:15:06Z</time>
      </trkpt>
      <trkpt lat="41.594819150" lon="2.530811920">
        <ele>212.59</ele>
        <time>2016-03-27T10:15:15Z</time>
      </trkpt>
      <trkpt lat="41.594945220" lon="2.530980560">
        <ele>212.59</ele>
        <time>2016-03-27T10:15:24Z</time>
      </trkpt>
      <trkpt lat="41.595100700" lon="2.531065300">
        <ele>212.59</ele>
        <time>2016-03-27T10:15:30Z</time>
      </trkpt>
      <trkpt lat="41.595262640" lon="2.531041750">
        <ele>212.59</ele>
        <time>2016-03-27T10:15:35Z</time>
      </trkpt>
      <trkpt lat="41.595478560" lon="2.530926250">
        <ele>213.07</ele>
        <time>2016-03-27T10:15:42Z</time>
      </trkpt>
      <trkpt lat="41.595649130" lon="2.530983660">
        <ele>213.55</ele>
        <time>2016-03-27T10:15:48Z</time>
      </trkpt>
      <trkpt lat="41.595861280" lon="2.531078300">
        <ele>214.51</ele>
        <time>2016-03-27T10:15:56Z</time>
      </trkpt>
      <trkpt lat="41.596045260" lon="2.531146440">
        <ele>215.47</ele>
        <time>2016-03-27T10:16:03Z</time>
      </trkpt>
      <trkpt lat="41.596243150" lon="2.531192460">
        <ele>215.95</ele>
        <time>2016-03-27T10:16:11Z</time>
      </trkpt>
      <trkpt lat="41.596448760" lon="2.531212070">
        <ele>216.43</ele>
        <time>2016-03-27T10:16:18Z</time>
      </trkpt>
      <trkpt lat="41.596635340" lon="2.531170410">
        <ele>216.91</ele>
        <time>2016-03-27T10:16:25Z</time>
      </trkpt>
      <trkpt lat="41.596787980" lon="2.531033700">
        <ele>218.36</ele>
        <time>2016-03-27T10:16:32Z</time>
      </trkpt>
      <trkpt lat="41.596820500" lon="2.530979560">
        <ele>218.84</ele>
        <time>2016-03-27T10:16:34Z</time>
      </trkpt>
      <trkpt lat="41.597019740" lon="2.530932370">
        <ele>217.40</ele>
        <time>2016-03-27T10:16:39Z</time>
      </trkpt>
      <trkpt lat="41.597088300" lon="2.530916780">
        <ele>216.43</ele>
        <time>2016-03-27T10:16:40Z</time>
      </trkpt>
      <trkpt lat="41.597250490" lon="2.530776550">
        <ele>214.99</ele>
        <time>2016-03-27T10:16:43Z</time>
      </trkpt>
      <trkpt lat="41.597374380" lon="2.530687200">
        <ele>213.55</ele>
        <time>2016-03-27T10:16:46Z</time>
      </trkpt>
      <trkpt lat="41.597556520" lon="2.530622490">
        <ele>213.07</ele>
        <time>2016-03-27T10:16:53Z</time>
      </trkpt>
      <trkpt lat="41.597701270" lon="2.530687870">
        <ele>213.07</ele>
        <time>2016-03-27T10:16:58Z</time>
      </trkpt>
      <trkpt lat="41.597823810" lon="2.530773780">
        <ele>214.03</ele>
        <time>2016-03-27T10:17:04Z</time>
      </trkpt>
      <trkpt lat="41.597939650" lon="2.530866320">
        <ele>215.95</ele>
        <time>2016-03-27T10:17:12Z</time>
      </trkpt>
      <trkpt lat="41.598014500" lon="2.530911580">
        <ele>216.43</ele>
        <time>2016-03-27T10:17:17Z</time>
      </trkpt>
      <trkpt lat="41.598136380" lon="2.530968070">
        <ele>218.36</ele>
        <time>2016-03-27T10:17:25Z</time>
      </trkpt>
      <trkpt lat="41.598229000" lon="2.531046450">
        <ele>220.76</ele>
        <time>2016-03-27T10:17:33Z</time>
      </trkpt>
      <trkpt lat="41.598316750" lon="2.531188600">
        <ele>222.68</ele>
        <time>2016-03-27T10:17:42Z</time>
      </trkpt>
      <trkpt lat="41.598325300" lon="2.531222630">
        <ele>223.16</ele>
        <time>2016-03-27T10:17:44Z</time>
      </trkpt>
      <trkpt lat="41.598363360" lon="2.531362020">
        <ele>225.09</ele>
        <time>2016-03-27T10:17:52Z</time>
      </trkpt>
      <trkpt lat="41.598401910" lon="2.531489340">
        <ele>227.49</ele>
        <time>2016-03-27T10:18:00Z</time>
      </trkpt>
      <trkpt lat="41.598471990" lon="2.531620520">
        <ele>229.41</ele>
        <time>2016-03-27T10:18:09Z</time>
      </trkpt>
      <trkpt lat="41.598537620" lon="2.531728230">
        <ele>229.41</ele>
        <time>2016-03-27T10:18:17Z</time>
      </trkpt>
      <trkpt lat="41.598577430" lon="2.531834010">
        <ele>229.89</ele>
        <time>2016-03-27T10:18:22Z</time>
      </trkpt>
      <trkpt lat="41.598574250" lon="2.532021680">
        <ele>229.89</ele>
        <time>2016-03-27T10:18:28Z</time>
      </trkpt>
      <trkpt lat="41.598547260" lon="2.532185290">
        <ele>229.89</ele>
        <time>2016-03-27T10:18:35Z</time>
      </trkpt>
      <trkpt lat="41.598531750" lon="2.532278670">
        <ele>229.89</ele>
        <time>2016-03-27T10:18:37Z</time>
      </trkpt>
      <trkpt lat="41.598557310" lon="2.532452260">
        <ele>228.45</ele>
        <time>2016-03-27T10:18:40Z</time>
      </trkpt>
      <trkpt lat="41.598692430" lon="2.532643280">
        <ele>226.05</ele>
        <time>2016-03-27T10:18:45Z</time>
      </trkpt>
      <trkpt lat="41.598815230" lon="2.532662220">
        <ele>224.61</ele>
        <time>2016-03-27T10:18:48Z</time>
      </trkpt>
      <trkpt lat="41.598881530" lon="2.532852660">
        <ele>221.24</ele>
        <time>2016-03-27T10:18:52Z</time>
      </trkpt>
      <trkpt lat="41.598873230" lon="2.532954250">
        <ele>220.76</ele>
        <time>2016-03-27T10:18:54Z</time>
      </trkpt>
      <trkpt lat="41.598878090" lon="2.533081150">
        <ele>220.28</ele>
        <time>2016-03-27T10:18:56Z</time>
      </trkpt>
      <trkpt lat="41.598892420" lon="2.533162710">
        <ele>219.80</ele>
        <time>2016-03-27T10:18:58Z</time>
      </trkpt>
      <trkpt lat="41.598914050" lon="2.533320960">
        <ele>216.43</ele>
        <time>2016-03-27T10:19:01Z</time>
      </trkpt>
      <trkpt lat="41.598988310" lon="2.533517770">
        <ele>213.07</ele>
        <time>2016-03-27T10:19:05Z</time>
      </trkpt>
      <trkpt lat="41.598996360" lon="2.533646430">
        <ele>211.15</ele>
        <time>2016-03-27T10:19:07Z</time>
      </trkpt>
      <trkpt lat="41.599065010" lon="2.533973570">
        <ele>207.30</ele>
        <time>2016-03-27T10:19:11Z</time>
      </trkpt>
      <trkpt lat="41.599098030" lon="2.534137020">
        <ele>204.42</ele>
        <time>2016-03-27T10:19:13Z</time>
      </trkpt>
      <trkpt lat="41.599189310" lon="2.534318570">
        <ele>200.57</ele>
        <time>2016-03-27T10:19:17Z</time>
      </trkpt>
      <trkpt lat="41.599242030" lon="2.534330640">
        <ele>200.09</ele>
        <time>2016-03-27T10:19:18Z</time>
      </trkpt>
      <trkpt lat="41.599447640" lon="2.534342630">
        <ele>198.65</ele>
        <time>2016-03-27T10:19:21Z</time>
      </trkpt>
      <trkpt lat="41.599647050" lon="2.534316310">
        <ele>195.28</ele>
        <time>2016-03-27T10:19:25Z</time>
      </trkpt>
      <trkpt lat="41.599693730" lon="2.534457880">
        <ele>193.36</ele>
        <time>2016-03-27T10:19:28Z</time>
      </trkpt>
      <trkpt lat="41.599588460" lon="2.534652170">
        <ele>191.92</ele>
        <time>2016-03-27T10:19:32Z</time>
      </trkpt>
      <trkpt lat="41.599386620" lon="2.534900860">
        <ele>189.52</ele>
        <time>2016-03-27T10:19:38Z</time>
      </trkpt>
      <trkpt lat="41.599327280" lon="2.534998600">
        <ele>187.59</ele>
        <time>2016-03-27T10:19:42Z</time>
      </trkpt>
      <trkpt lat="41.599225770" lon="2.535268160">
        <ele>184.23</ele>
        <time>2016-03-27T10:19:47Z</time>
      </trkpt>
      <trkpt lat="41.599246560" lon="2.535467400">
        <ele>180.87</ele>
        <time>2016-03-27T10:19:51Z</time>
      </trkpt>
      <trkpt lat="41.599283940" lon="2.535478290">
        <ele>180.87</ele>
        <time>2016-03-27T10:19:52Z</time>
      </trkpt>
      <trkpt lat="41.599377570" lon="2.535493130">
        <ele>179.90</ele>
        <time>2016-03-27T10:19:54Z</time>
      </trkpt>
      <trkpt lat="41.599481500" lon="2.535496400">
        <ele>179.42</ele>
        <time>2016-03-27T10:19:56Z</time>
      </trkpt>
      <trkpt lat="41.599734220" lon="2.535375950">
        <ele>177.50</ele>
        <time>2016-03-27T10:20:01Z</time>
      </trkpt>
      <trkpt lat="41.599862380" lon="2.535347620">
        <ele>176.54</ele>
        <time>2016-03-27T10:20:03Z</time>
      </trkpt>
      <trkpt lat="41.600130430" lon="2.535242430">
        <ele>173.66</ele>
        <time>2016-03-27T10:20:07Z</time>
      </trkpt>
      <trkpt lat="41.600374590" lon="2.535092390">
        <ele>170.29</ele>
        <time>2016-03-27T10:20:12Z</time>
      </trkpt>
      <trkpt lat="41.600350790" lon="2.535164730">
        <ele>169.81</ele>
        <time>2016-03-27T10:20:15Z</time>
      </trkpt>
      <trkpt lat="41.600322540" lon="2.535202440">
        <ele>169.33</ele>
        <time>2016-03-27T10:20:16Z</time>
      </trkpt>
      <trkpt lat="41.600185250" lon="2.535407470">
        <ele>168.37</ele>
        <time>2016-03-27T10:20:22Z</time>
      </trkpt>
      <trkpt lat="41.600127500" lon="2.535471840">
        <ele>168.37</ele>
        <time>2016-03-27T10:20:24Z</time>
      </trkpt>
      <trkpt lat="41.599989530" lon="2.535617600">
        <ele>167.89</ele>
        <time>2016-03-27T10:20:28Z</time>
      </trkpt>
      <trkpt lat="41.599886770" lon="2.535749200">
        <ele>166.45</ele>
        <time>2016-03-27T10:20:31Z</time>
      </trkpt>
      <trkpt lat="41.599718880" lon="2.535936530">
        <ele>164.52</ele>
        <time>2016-03-27T10:20:35Z</time>
      </trkpt>
      <trkpt lat="41.599569760" lon="2.536205260">
        <ele>162.12</ele>
        <time>2016-03-27T10:20:40Z</time>
      </trkpt>
      <trkpt lat="41.599547050" lon="2.536233590">
        <ele>161.16</ele>
        <time>2016-03-27T10:20:41Z</time>
      </trkpt>
      <trkpt lat="41.599474550" lon="2.536256720">
        <ele>160.68</ele>
        <time>2016-03-27T10:20:43Z</time>
      </trkpt>
      <trkpt lat="41.599344880" lon="2.536361660">
        <ele>160.68</ele>
        <time>2016-03-27T10:20:48Z</time>
      </trkpt>
      <trkpt lat="41.599308330" lon="2.536383370">
        <ele>162.12</ele>
        <time>2016-03-27T10:20:50Z</time>
      </trkpt>
      <trkpt lat="41.599208420" lon="2.536452350">
        <ele>164.04</ele>
        <time>2016-03-27T10:20:56Z</time>
      </trkpt>
      <trkpt lat="41.599059560" lon="2.536539940">
        <ele>161.64</ele>
        <time>2016-03-27T10:21:01Z</time>
      </trkpt>
      <trkpt lat="41.599059470" lon="2.536623340">
        <ele>160.20</ele>
        <time>2016-03-27T10:21:05Z</time>
      </trkpt>
      <trkpt lat="41.599107250" lon="2.536611190">
        <ele>159.24</ele>
        <time>2016-03-27T10:21:07Z</time>
      </trkpt>
      <trkpt lat="41.599109770" lon="2.536678080">
        <ele>157.79</ele>
        <time>2016-03-27T10:21:11Z</time>
      </trkpt>
      <trkpt lat="41.598980680" lon="2.536782430">
        <ele>154.91</ele>
        <time>2016-03-27T10:21:16Z</time>
      </trkpt>
      <trkpt lat="41.598992170" lon="2.536832560">
        <ele>153.95</ele>
        <time>2016-03-27T10:21:19Z</time>
      </trkpt>
      <trkpt lat="41.599134240" lon="2.536833980">
        <ele>152.99</ele>
        <time>2016-03-27T10:21:24Z</time>
      </trkpt>
      <trkpt lat="41.599199700" lon="2.536865080">
        <ele>151.54</ele>
        <time>2016-03-27T10:21:28Z</time>
      </trkpt>
      <trkpt lat="41.599104900" lon="2.536938840">
        <ele>149.62</ele>
        <time>2016-03-27T10:21:32Z</time>
      </trkpt>
      <trkpt lat="41.599044220" lon="2.536993990">
        <ele>148.18</ele>
        <time>2016-03-27T10:21:34Z</time>
      </trkpt>
      <trkpt lat="41.598961990" lon="2.537146460">
        <ele>146.26</ele>
        <time>2016-03-27T10:21:38Z</time>
      </trkpt>
      <trkpt lat="41.598976910" lon="2.537169170">
        <ele>145.30</ele>
        <time>2016-03-27T10:21:43Z</time>
      </trkpt>
      <trkpt lat="41.599027870" lon="2.537179740">
        <ele>144.34</ele>
        <time>2016-03-27T10:21:46Z</time>
      </trkpt>
      <trkpt lat="41.598995270" lon="2.537232790">
        <ele>143.85</ele>
        <time>2016-03-27T10:21:48Z</time>
      </trkpt>
      <trkpt lat="41.598944060" lon="2.537312920">
        <ele>142.41</ele>
        <time>2016-03-27T10:21:50Z</time>
      </trkpt>
      <trkpt lat="41.598807850" lon="2.537625820">
        <ele>140.01</ele>
        <time>2016-03-27T10:21:55Z</time>
      </trkpt>
      <trkpt lat="41.598599640" lon="2.537764290">
        <ele>137.61</ele>
        <time>2016-03-27T10:22:00Z</time>
      </trkpt>
      <trkpt lat="41.598513230" lon="2.537819270">
        <ele>135.68</ele>
        <time>2016-03-27T10:22:04Z</time>
      </trkpt>
      <trkpt lat="41.598580280" lon="2.537952380">
        <ele>134.72</ele>
        <time>2016-03-27T10:22:08Z</time>
      </trkpt>
      <trkpt lat="41.598590090" lon="2.538032260">
        <ele>133.76</ele>
        <time>2016-03-27T10:22:12Z</time>
      </trkpt>
      <trkpt lat="41.598496710" lon="2.538071230">
        <ele>132.32</ele>
        <time>2016-03-27T10:22:15Z</time>
      </trkpt>
      <trkpt lat="41.598414740" lon="2.538094280">
        <ele>130.40</ele>
        <time>2016-03-27T10:22:18Z</time>
      </trkpt>
      <trkpt lat="41.598460340" lon="2.538279110">
        <ele>129.43</ele>
        <time>2016-03-27T10:22:22Z</time>
      </trkpt>
      <trkpt lat="41.598578270" lon="2.538317080">
        <ele>127.99</ele>
        <time>2016-03-27T10:22:25Z</time>
      </trkpt>
      <trkpt lat="41.598609790" lon="2.538298470">
        <ele>127.99</ele>
        <time>2016-03-27T10:22:26Z</time>
      </trkpt>
      <trkpt lat="41.598659990" lon="2.538315650">
        <ele>126.07</ele>
        <time>2016-03-27T10:22:29Z</time>
      </trkpt>
      <trkpt lat="41.598616570" lon="2.538468870">
        <ele>124.63</ele>
        <time>2016-03-27T10:22:32Z</time>
      </trkpt>
      <trkpt lat="41.598462430" lon="2.538740450">
        <ele>120.30</ele>
        <time>2016-03-27T10:22:37Z</time>
      </trkpt>
      <trkpt lat="41.598420190" lon="2.538754950">
        <ele>119.34</ele>
        <time>2016-03-27T10:22:38Z</time>
      </trkpt>
      <trkpt lat="41.598304430" lon="2.538767940">
        <ele>118.38</ele>
        <time>2016-03-27T10:22:41Z</time>
      </trkpt>
      <trkpt lat="41.598276440" lon="2.538795850">
        <ele>117.42</ele>
        <time>2016-03-27T10:22:43Z</time>
      </trkpt>
      <trkpt lat="41.598332760" lon="2.538977650">
        <ele>115.50</ele>
        <time>2016-03-27T10:22:47Z</time>
      </trkpt>
      <trkpt lat="41.598354050" lon="2.539013190">
        <ele>115.50</ele>
        <time>2016-03-27T10:22:48Z</time>
      </trkpt>
      <trkpt lat="41.598397050" lon="2.539049320">
        <ele>114.53</ele>
        <time>2016-03-27T10:22:50Z</time>
      </trkpt>
      <trkpt lat="41.598516580" lon="2.539047730">
        <ele>112.61</ele>
        <time>2016-03-27T10:22:55Z</time>
      </trkpt>
      <trkpt lat="41.598597800" lon="2.539012520">
        <ele>112.61</ele>
        <time>2016-03-27T10:23:03Z</time>
      </trkpt>
      <trkpt lat="41.598656890" lon="2.538989560">
        <ele>112.61</ele>
        <time>2016-03-27T10:23:10Z</time>
      </trkpt>
      <trkpt lat="41.598694610" lon="2.538967260">
        <ele>112.13</ele>
        <time>2016-03-27T10:23:17Z</time>
      </trkpt>
      <trkpt lat="41.598713800" lon="2.538921750">
        <ele>112.13</ele>
        <time>2016-03-27T10:23:22Z</time>
      </trkpt>
      <trkpt lat="41.598831490" lon="2.538840360">
        <ele>111.17</ele>
        <time>2016-03-27T10:23:29Z</time>
      </trkpt>
      <trkpt lat="41.598841540" lon="2.538829880">
        <ele>111.17</ele>
        <time>2016-03-27T10:23:30Z</time>
      </trkpt>
      <trkpt lat="41.598871550" lon="2.538775480">
        <ele>111.17</ele>
        <time>2016-03-27T10:23:34Z</time>
      </trkpt>
      <trkpt lat="41.598932490" lon="2.538671460">
        <ele>113.57</ele>
        <time>2016-03-27T10:23:40Z</time>
      </trkpt>
      <trkpt lat="41.598985040" lon="2.538522430">
        <ele>114.53</ele>
        <time>2016-03-27T10:23:46Z</time>
      </trkpt>
      <trkpt lat="41.599034080" lon="2.538405670">
        <ele>116.94</ele>
        <time>2016-03-27T10:23:52Z</time>
      </trkpt>
      <trkpt lat="41.599085040" lon="2.538292940">
        <ele>118.38</ele>
        <time>2016-03-27T10:23:58Z</time>
      </trkpt>
      <trkpt lat="41.599104150" lon="2.538218000">
        <ele>119.82</ele>
        <time>2016-03-27T10:24:03Z</time>
      </trkpt>
      <trkpt lat="41.599139100" lon="2.538103590">
        <ele>122.22</ele>
        <time>2016-03-27T10:24:10Z</time>
      </trkpt>
      <trkpt lat="41.599203480" lon="2.538010130">
        <ele>122.71</ele>
        <time>2016-03-27T10:24:16Z</time>
      </trkpt>
      <trkpt lat="41.599207250" lon="2.538000320">
        <ele>122.71</ele>
        <time>2016-03-27T10:24:17Z</time>
      </trkpt>
      <trkpt lat="41.599265420" lon="2.537888590">
        <ele>123.67</ele>
        <time>2016-03-27T10:24:25Z</time>
      </trkpt>
      <trkpt lat="41.599336830" lon="2.537813160">
        <ele>124.15</ele>
        <time>2016-03-27T10:24:30Z</time>
      </trkpt>
      <trkpt lat="41.599348310" lon="2.537801090">
        <ele>124.63</ele>
        <time>2016-03-27T10:24:31Z</time>
      </trkpt>
      <trkpt lat="41.599394830" lon="2.537726150">
        <ele>125.11</ele>
        <time>2016-03-27T10:24:37Z</time>
      </trkpt>
      <trkpt lat="41.599425260" lon="2.537673090">
        <ele>125.11</ele>
        <time>2016-03-27T10:24:40Z</time>
      </trkpt>
      <trkpt lat="41.599531380" lon="2.537571340">
        <ele>125.59</ele>
        <time>2016-03-27T10:24:48Z</time>
      </trkpt>
      <trkpt lat="41.599607570" lon="2.537490960">
        <ele>126.55</ele>
        <time>2016-03-27T10:24:56Z</time>
      </trkpt>
      <trkpt lat="41.599645290" lon="2.537424070">
        <ele>127.03</ele>
        <time>2016-03-27T10:25:02Z</time>
      </trkpt>
      <trkpt lat="41.599716110" lon="2.537289120">
        <ele>127.99</ele>
        <time>2016-03-27T10:25:10Z</time>
      </trkpt>
      <trkpt lat="41.599815690" lon="2.537155340">
        <ele>128.95</ele>
        <time>2016-03-27T10:25:16Z</time>
      </trkpt>
      <trkpt lat="41.599871760" lon="2.537083090">
        <ele>129.43</ele>
        <time>2016-03-27T10:25:18Z</time>
      </trkpt>
      <trkpt lat="41.599918280" lon="2.537048640">
        <ele>129.43</ele>
        <time>2016-03-27T10:25:20Z</time>
      </trkpt>
      <trkpt lat="41.599975280" lon="2.537053080">
        <ele>129.92</ele>
        <time>2016-03-27T10:25:23Z</time>
      </trkpt>
      <trkpt lat="41.600023980" lon="2.537194740">
        <ele>130.40</ele>
        <time>2016-03-27T10:25:31Z</time>
      </trkpt>
      <trkpt lat="41.600018870" lon="2.537381570">
        <ele>130.88</ele>
        <time>2016-03-27T10:25:38Z</time>
      </trkpt>
      <trkpt lat="41.600021210" lon="2.537457340">
        <ele>130.88</ele>
        <time>2016-03-27T10:25:40Z</time>
      </trkpt>
      <trkpt lat="41.600015180" lon="2.537613000">
        <ele>130.88</ele>
        <time>2016-03-27T10:25:45Z</time>
      </trkpt>
      <trkpt lat="41.599979050" lon="2.537802760">
        <ele>131.36</ele>
        <time>2016-03-27T10:25:51Z</time>
      </trkpt>
      <trkpt lat="41.599900930" lon="2.538023960">
        <ele>131.84</ele>
        <time>2016-03-27T10:25:58Z</time>
      </trkpt>
      <trkpt lat="41.599794990" lon="2.538343390">
        <ele>129.43</ele>
        <time>2016-03-27T10:26:04Z</time>
      </trkpt>
      <trkpt lat="41.599688870" lon="2.538592170">
        <ele>127.99</ele>
        <time>2016-03-27T10:26:07Z</time>
      </trkpt>
      <trkpt lat="41.599588790" lon="2.538927450">
        <ele>126.55</ele>
        <time>2016-03-27T10:26:11Z</time>
      </trkpt>
      <trkpt lat="41.599570770" lon="2.539235060">
        <ele>126.07</ele>
        <time>2016-03-27T10:26:15Z</time>
      </trkpt>
      <trkpt lat="41.599568590" lon="2.539471520">
        <ele>126.07</ele>
        <time>2016-03-27T10:26:19Z</time>
      </trkpt>
      <trkpt lat="41.599580330" lon="2.539911980">
        <ele>122.71</ele>
        <time>2016-03-27T10:26:24Z</time>
      </trkpt>
      <trkpt lat="41.599636650" lon="2.540322530">
        <ele>120.78</ele>
        <time>2016-03-27T10:26:28Z</time>
      </trkpt>
      <trkpt lat="41.599686440" lon="2.540474490">
        <ele>120.30</ele>
        <time>2016-03-27T10:26:30Z</time>
      </trkpt>
      <trkpt lat="41.599832120" lon="2.540591670">
        <ele>118.86</ele>
        <time>2016-03-27T10:26:33Z</time>
      </trkpt>
      <trkpt lat="41.599892470" lon="2.540686390">
        <ele>118.38</ele>
        <time>2016-03-27T10:26:36Z</time>
      </trkpt>
      <trkpt lat="41.599834720" lon="2.540727290">
        <ele>117.42</ele>
        <time>2016-03-27T10:26:39Z</time>
      </trkpt>
      <trkpt lat="41.599799680" lon="2.540712790">
        <ele>116.46</ele>
        <time>2016-03-27T10:26:40Z</time>
      </trkpt>
      <trkpt lat="41.599608240" lon="2.540586220">
        <ele>113.57</ele>
        <time>2016-03-27T10:26:46Z</time>
      </trkpt>
      <trkpt lat="41.599559870" lon="2.540450100">
        <ele>112.61</ele>
        <time>2016-03-27T10:26:51Z</time>
      </trkpt>
      <trkpt lat="41.599471110" lon="2.540459320">
        <ele>111.65</ele>
        <time>2016-03-27T10:26:54Z</time>
      </trkpt>
      <trkpt lat="41.599473710" lon="2.540595110">
        <ele>109.73</ele>
        <time>2016-03-27T10:26:57Z</time>
      </trkpt>
      <trkpt lat="41.599581920" lon="2.540750510">
        <ele>108.77</ele>
        <time>2016-03-27T10:27:00Z</time>
      </trkpt>
      <trkpt lat="41.599748630" lon="2.540920160">
        <ele>106.84</ele>
        <time>2016-03-27T10:27:03Z</time>
      </trkpt>
      <trkpt lat="41.600088020" lon="2.541233980">
        <ele>102.52</ele>
        <time>2016-03-27T10:27:08Z</time>
      </trkpt>
      <trkpt lat="41.600224810" lon="2.541369010">
        <ele>100.60</ele>
        <time>2016-03-27T10:27:10Z</time>
      </trkpt>
      <trkpt lat="41.600559580" lon="2.541520640">
        <ele>98.19</ele>
        <time>2016-03-27T10:27:15Z</time>
      </trkpt>
      <trkpt lat="41.600669470" lon="2.541505720">
        <ele>100.11</ele>
        <time>2016-03-27T10:27:17Z</time>
      </trkpt>
      <trkpt lat="41.600858060" lon="2.541458360">
        <ele>100.60</ele>
        <time>2016-03-27T10:27:21Z</time>
      </trkpt>
      <trkpt lat="41.601254190" lon="2.541391730">
        <ele>100.60</ele>
        <time>2016-03-27T10:27:30Z</time>
      </trkpt>
      <trkpt lat="41.601384610" lon="2.541361720">
        <ele>100.60</ele>
        <time>2016-03-27T10:27:33Z</time>
      </trkpt>
      <trkpt lat="41.601485110" lon="2.541349560">
        <ele>100.60</ele>
        <time>2016-03-27T10:27:35Z</time>
      </trkpt>
      <trkpt lat="41.601588290" lon="2.541356520">
        <ele>100.60</ele>
        <time>2016-03-27T10:27:37Z</time>
      </trkpt>
      <trkpt lat="41.601833800" lon="2.541299190">
        <ele>102.52</ele>
        <time>2016-03-27T10:27:44Z</time>
      </trkpt>
      <trkpt lat="41.602147370" lon="2.541235820">
        <ele>103.00</ele>
        <time>2016-03-27T10:27:52Z</time>
      </trkpt>
      <trkpt lat="41.602417770" lon="2.541141860">
        <ele>103.96</ele>
        <time>2016-03-27T10:28:00Z</time>
      </trkpt>
      <trkpt lat="41.602701080" lon="2.541048490">
        <ele>105.40</ele>
        <time>2016-03-27T10:28:09Z</time>
      </trkpt>
      <trkpt lat="41.602886320" lon="2.540971210">
        <ele>107.32</ele>
        <time>2016-03-27T10:28:16Z</time>
      </trkpt>
      <trkpt lat="41.603015570" lon="2.540927950">
        <ele>107.81</ele>
        <time>2016-03-27T10:28:22Z</time>
      </trkpt>
      <trkpt lat="41.603280010" lon="2.540758300">
        <ele>108.77</ele>
        <time>2016-03-27T10:28:31Z</time>
      </trkpt>
      <trkpt lat="41.603547980" lon="2.540576170">
        <ele>109.73</ele>
        <time>2016-03-27T10:28:40Z</time>
      </trkpt>
      <trkpt lat="41.603833140" lon="2.540390420">
        <ele>111.65</ele>
        <time>2016-03-27T10:28:49Z</time>
      </trkpt>
      <trkpt lat="41.604094820" lon="2.540174340">
        <ele>112.13</ele>
        <time>2016-03-27T10:28:58Z</time>
      </trkpt>
      <trkpt lat="41.604379890" lon="2.539967810">
        <ele>113.09</ele>
        <time>2016-03-27T10:29:08Z</time>
      </trkpt>
      <trkpt lat="41.604440150" lon="2.539900170">
        <ele>113.09</ele>
        <time>2016-03-27T10:29:11Z</time>
      </trkpt>
      <trkpt lat="41.604559850" lon="2.539927910">
        <ele>113.09</ele>
        <time>2016-03-27T10:29:15Z</time>
      </trkpt>
      <trkpt lat="41.604734940" lon="2.540040810">
        <ele>113.09</ele>
        <time>2016-03-27T10:29:20Z</time>
      </trkpt>
      <trkpt lat="41.604970640" lon="2.540066040">
        <ele>114.05</ele>
        <time>2016-03-27T10:29:28Z</time>
      </trkpt>
      <trkpt lat="41.605253700" lon="2.540097390">
        <ele>114.53</ele>
        <time>2016-03-27T10:29:36Z</time>
      </trkpt>
      <trkpt lat="41.605547570" lon="2.540154300">
        <ele>115.50</ele>
        <time>2016-03-27T10:29:45Z</time>
      </trkpt>
      <trkpt lat="41.605838000" lon="2.540221190">
        <ele>116.46</ele>
        <time>2016-03-27T10:29:55Z</time>
      </trkpt>
      <trkpt lat="41.606009920" lon="2.540304680">
        <ele>117.42</ele>
        <time>2016-03-27T10:30:01Z</time>
      </trkpt>
      <trkpt lat="41.606015870" lon="2.540335350">
        <ele>117.42</ele>
        <time>2016-03-27T10:30:02Z</time>
      </trkpt>
      <trkpt lat="41.606011930" lon="2.540362180">
        <ele>117.42</ele>
        <time>2016-03-27T10:30:03Z</time>
      </trkpt>
      <trkpt lat="41.605994330" lon="2.540388240">
        <ele>117.42</ele>
        <time>2016-03-27T10:30:04Z</time>
      </trkpt>
      <trkpt lat="41.605930710" lon="2.540392850">
        <ele>117.90</ele>
        <time>2016-03-27T10:30:07Z</time>
      </trkpt>
      <trkpt lat="41.605916040" lon="2.540396290">
        <ele>117.90</ele>
        <time>2016-03-27T10:30:08Z</time>
      </trkpt>
      <trkpt lat="41.605910090" lon="2.540408190">
        <ele>117.90</ele>
        <time>2016-03-27T10:30:09Z</time>
      </trkpt>
      <trkpt lat="41.605912850" lon="2.540424370">
        <ele>117.90</ele>
        <time>2016-03-27T10:30:10Z</time>
      </trkpt>
      <trkpt lat="41.605942190" lon="2.540444400">
        <ele>117.90</ele>
        <time>2016-03-27T10:30:12Z</time>
      </trkpt>
      <trkpt lat="41.605963730" lon="2.540468370">
        <ele>118.38</ele>
        <time>2016-03-27T10:30:20Z</time>
      </trkpt>
      <trkpt lat="41.605965990" lon="2.540552950">
        <ele>118.38</ele>
        <time>2016-03-27T10:30:23Z</time>
      </trkpt>
      <trkpt lat="41.605970610" lon="2.540588070">
        <ele>118.38</ele>
        <time>2016-03-27T10:30:25Z</time>
      </trkpt>
      <trkpt lat="41.606077560" lon="2.540634760">
        <ele>118.86</ele>
        <time>2016-03-27T10:30:29Z</time>
      </trkpt>
      <trkpt lat="41.606374030" lon="2.540729050">
        <ele>119.82</ele>
        <time>2016-03-27T10:30:40Z</time>
      </trkpt>
      <trkpt lat="41.606479890" lon="2.540771130">
        <ele>120.30</ele>
        <time>2016-03-27T10:30:45Z</time>
      </trkpt>
      <trkpt lat="41.606563620" lon="2.540921080">
        <ele>120.78</ele>
        <time>2016-03-27T10:30:50Z</time>
      </trkpt>
      <trkpt lat="41.606639060" lon="2.541172290">
        <ele>122.71</ele>
        <time>2016-03-27T10:30:57Z</time>
      </trkpt>
      <trkpt lat="41.606727070" lon="2.541486610">
        <ele>124.63</ele>
        <time>2016-03-27T10:31:06Z</time>
      </trkpt>
      <trkpt lat="41.606822790" lon="2.541789950">
        <ele>125.59</ele>
        <time>2016-03-27T10:31:15Z</time>
      </trkpt>
      <trkpt lat="41.606898820" lon="2.542060180">
        <ele>127.51</ele>
        <time>2016-03-27T10:31:23Z</time>
      </trkpt>
      <trkpt lat="41.607018850" lon="2.542255310">
        <ele>128.95</ele>
        <time>2016-03-27T10:31:30Z</time>
      </trkpt>
      <trkpt lat="41.607093030" lon="2.542382800">
        <ele>129.92</ele>
        <time>2016-03-27T10:31:37Z</time>
      </trkpt>
      <trkpt lat="41.607100820" lon="2.542399730">
        <ele>130.40</ele>
        <time>2016-03-27T10:31:43Z</time>
      </trkpt>
      <trkpt lat="41.607100230" lon="2.542402750">
        <ele>130.88</ele>
        <time>2016-03-27T10:31:51Z</time>
      </trkpt>
      <trkpt lat="41.607079530" lon="2.542410130">
        <ele>130.88</ele>
        <time>2016-03-27T10:32:03Z</time>
      </trkpt>
    </trkseg>
  </trk>
</gpx>
